     2              OBSERVATION DATA    GPS                 RINEX VERSION / TYPE
teqc 1997Jul24 19970813                                     PGM / RUN BY / DATE
                                                            COMMENT
BIT 2 OF LLI FLAGS DATA COLLECTED UNDER A-S CONDITION       COMMENT
BIT 2 OF LLI FLAGS DATA COLLECTED UNDER A-S CONDITION       COMMENT
Original Marker Name: 55487.PINY                            COMMENT
Campaign Name: TREX12                                       COMMENT
4-Character Station Name: PINY                              COMMENT
6-Character Antenna Code: TI4100                            COMMENT
Vertical Measurement Point: PAE                             COMMENT
Vertical Offset to Rinex Ref. Point: 0.0000                 COMMENT
Radial Measurement Point: RRP                               COMMENT
Radial Offset to Rinex Ref. Point: 0.0000                   COMMENT
Antenna Height from Field Measurement: 1.7030 m             COMMENT
Original XYZ: -2369608.4470 -4761344.7578 3511130.7319      COMMENT
New XYZ position is based on association with SCEC monument COMMENT
E1D0K5S1+0011. Position of that monument is believed to be  COMMENT
valid to within 1 m horizontally; vertical accuracy         COMMENT
should be no worse than 3-times this value.                 COMMENT
                                                            COMMENT
Revised Rinex header created by UCSD GPS archive for        COMMENT
GSAC on 12-Apr-1999 (1999:102) 10:41:42 GMT                 COMMENT
For assistance contact dagnew@ucsd.edu or hjohnson@ucsd.edu COMMENT
                                                            COMMENT
PINYON FLAT NCMN 1981                                       MARKER NAME
E NATIONAL GEODETIC SURVEY                                  OBSERVER / AGENCY
UT04 TI 4100 1.5                                            REC # / TYPE / VERS
108 TI 4100                                                 ANT # / TYPE
 -2369636.0000 -4761325.0000  3511116.0000                  APPROX POSITION XYZ
        1.7030        0.0000        0.0000                  ANTENNA: DELTA H/E/N
     1     1     0                                          WAVELENGTH FACT L1/2
     4    P1    P2    L1    L2                              # / TYPES OF OBSERV
    30                                                      INTERVAL
  1988     3    28     2    11   59.000000                  TIME OF FIRST OBS
  1988     3    28     8     7   59.000000                  TIME OF LAST OBS
     0                                                      # OF SATELLITES
                                                            END OF HEADER
 88  3 28  2 11 59.0800000  0  3G 6G 8G11
  22286291.040    22286296.763      604234.725 8  -1070596.528 8
  21367936.436    21367943.241      488359.919 8   -962601.104 7
  24384492.880    24384502.027      339172.061 7  -1096735.761 7
 88  3 28  2 12 29.0800000  0  3G 6G 8G11
  22274590.241    22274596.822      542748.780 9  -1118507.583 8
  21352157.677    21352163.771      405438.468 8  -1027215.138 8
  24362888.805    24362898.323      225647.431 7  -1185196.240 7
 88  3 28  2 12 59.0800000  0  3G 6G 8G11
  22262896.652    22262901.433      481297.694 8  -1166391.483 9
  21336473.458    21336479.057      323020.591 8  -1091436.801 8
  24341298.444    24341308.050      112187.017 9  -1273606.674 7
 88  3 28  2 13 29.0800000  0  3G 6G 8G11
  22251208.307    22251214.331      419881.979 8  -1214247.818 8
  21320885.974    21320892.014      241109.481 9  -1155263.561 8
  24319720.713    24319729.315       -1206.438 8  -1361965.003 7
 88  3 28  2 13 59.0800000  0  3G 6G 8G11
  22239528.827    22239534.038      358502.557 8  -1262075.868 8
  21305396.589    21305401.247      159708.010 9  -1218693.204 7
  24298155.272    24298165.800     -114530.060 9  -1450268.898 9
 88  3 28  2 14 29.0800000  0  3G 6G 8G11
  22227856.447    22227859.853      297160.593 8  -1309874.750 8
  21290003.189    21290009.235       78819.563 9  -1281723.098 8
  24276602.969    24276613.548     -227781.110 8  -1538516.244 8
 88  3 28  2 14 59.0800000  0  3G 6G 8G11
  22216190.679    22216194.214      235856.766 8  -1357643.938 8
  21274709.165    21274714.787       -1553.409 9  -1344351.326 8
  24255066.633    24255076.243     -340956.636 9  -1626704.750 8
 88  3 28  2 15 29.0800000  0  3G 6G 8G11
  22204531.893    22204537.887      174592.445 8  -1405382.344 9
  21259513.935    21259518.204      -81407.466 9  -1406575.206 8
  24233545.257    24233555.048     -454053.284 7  -1714831.794 9
 88  3 28  2 15 59.0800000  0  3G 6G 8G11
  22192880.976    22192887.071      113368.457 7  -1453089.266 8
  21244417.069    21244420.821     -160739.802 9  -1468392.544 8
  24212038.682    24212049.019     -567068.685 7  -1802895.517 9
 88  3 28  2 16 29.0800000  0  3G 6G 8G11
  22181237.330    22181243.970       52185.662 8  -1500764.083 8
  21229420.737    21229425.111     -239547.026 9  -1529800.712 8
  24190549.064    24190557.923     -680000.060 6  -1890893.749 8
 88  3 28  2 16 59.0800000  0  3G 6G 8G11
  22169603.153    22169609.037       -8954.455 8  -1548405.666 8
  21214523.958    21214530.360     -317825.973 8  -1590797.249 8
  24169075.174    24169084.080     -792843.652 6  -1978823.639 8
 88  3 28  2 17 29.0800000  0  3G 6G 8G11
  22157976.962    22157981.602      -70052.115 8  -1596014.180 8
  21199729.290    21199734.165     -395575.006 8  -1651380.824 7
  24147618.284    24147627.614     -905597.901 7  -2066683.881 8
 88  3 28  2 17 59.0800000  0  3G 6G 8G11
  22146359.017    22146364.338     -131106.132 9  -1643588.707 8
  21185035.674    21185041.145     -472790.826 8  -1711548.938 7
  24126180.111    24126188.945    -1018259.650 7  -2154472.053 7
 88  3 28  2 18 29.0800000  0  3G 6G 8G11
  22134749.541    22134754.048     -192114.994 8  -1691128.063 8
  21170444.190    21170449.205     -549470.219 9  -1771299.052 7
  24104758.957    24104768.407    -1130825.676 7  -2242185.653 8
 88  3 28  2 18 59.0800000  0  3G 6G 8G11
  22123147.791    22123153.659     -253078.228 8  -1738631.797 9
  21155955.261    21155959.120     -625610.444 9  -1830629.030 8
  24083357.379    24083365.505    -1243293.447 7  -2329822.699 8
 88  3 28  2 19 29.0800000  0  3G 6G 8G11
  22111555.800    22111562.040     -313993.696 8  -1786098.341 8
  21141568.440    21141573.725     -701207.723 8  -1889535.923 7
  24061973.977    24061984.137    -1355659.167 7  -2417380.180 8
 88  3 28  2 19 59.0800000  0  3G 6G 8G11
  22099974.543    22099979.190     -374860.202 9  -1833526.721 9
  21127287.717    21127292.218     -776259.311 8  -1948017.635 8
  24040612.252    24040620.483    -1467919.516 8  -2504855.581 8
 88  3 28  2 20 29.0800000  0  3G 6G 8G11
  22088400.752    22088406.057     -435675.017 8  -1880914.852 7
  21113109.253    21113116.195     -850760.856 8  -2006070.704 8
  24019270.348    24019279.114    -1580070.460 8  -2592245.722 7
 88  3 28  2 20 59.0800000  0  3G 6G 8G11
  22076837.379    22076843.545     -496439.091 8  -1928263.472 8
  21099038.790    21099042.830     -924710.822 9  -2063693.983 7
  23997949.274    23997957.571    -1692111.018 8  -2679549.862 8
 88  3 28  2 21 29.0800000  0  3G 6G 8G11
  22065285.967    22065289.863     -557150.431 9  -1975570.969 7
  21085070.941    21085075.996     -998106.072 9  -2120885.015 8
  23976649.729    23976659.031    -1804036.987 8  -2766764.692 8
 88  3 28  2 21 59.0800000  0  3G 6G 8G11
  22053741.512    22053748.108     -617807.730 8  -2022836.332 8
  21071209.808    21071215.081    -1070943.578 9  -2177641.443 8
  23955374.479    23955382.768    -1915845.366 8  -2853887.890 8
 88  3 28  2 22 29.0800000  0  3G 6G 8G11
  22042209.621    22042216.702     -678410.631 8  -2070059.324 8
  21057455.822    21057460.913    -1143221.174 9  -2233961.591 7
  23934119.798    23934129.711    -2027533.869 8  -2940917.705 8
 88  3 28  2 22 59.0800000  0  3G 6G 8G11
  22030689.004    22030692.625     -738957.827 9  -2117238.924 9
  21043809.693    21043812.952    -1214936.045 9  -2289843.241 6
  23912890.530    23912897.798    -2139099.802 7  -3027851.959 8
 88  3 28  2 23 29.0800000  0  3G 6G 8G11
  22019178.061    22019182.053     -799448.229 8  -2164374.262 9
  21030270.398    21030275.590    -1286085.568 8  -2345284.358 7
  23891684.666    23891691.936    -2250540.178 7  -3114688.423 8
 88  3 28  2 23 59.0800000  0  3G 6G 8G11
  22007675.615    22007681.156     -859880.207 7  -2211464.070 8
  21016837.825    21016844.037    -1356666.715 9  -2400282.589 8
  23870502.168    23870509.698    -2361851.810 8  -3201424.528 8
 88  3 28  2 24 29.0800000  0  3G 6G 8G11
  21996188.195    21996192.462     -920252.875 8  -2258507.688 8
  21003516.263    21003522.631    -1426676.649 9  -2454835.721 7
  23849345.835    23849352.837    -2473031.813 6  -3288058.129 8
 88  3 28  2 24 59.0800000  0  3G 6G 8G11
  21984713.485    21984716.344     -980565.334 9  -2305504.379 8
  20990302.026    20990306.751    -1496113.439 9  -2508942.254 7
  23828212.955    23828221.994    -2584077.938 7  -3374587.352 8
 88  3 28  2 25 29.0800000  0  3G 6G 8G11
  21973246.413    21973250.707    -1040816.028 8  -2352452.934 8
  20977198.282    20977203.860    -1564974.141 9  -2562599.872 8
  23807106.110    23807114.720    -2694986.637 7  -3461009.496 8
 88  3 28  2 25 59.0800000  0  3G 6G 8G11
  21961791.448    21961798.300    -1101003.881 7  -2399352.525 8
  20964205.742    20964210.366    -1633255.941 8  -2615806.417 7
  23786028.951    23786035.383    -2805754.974 8  -3547322.314 8
 88  3 28  2 26 29.0800000  0  3G 6G 8G11
  21950351.590    21950356.614    -1161127.109 8  -2446201.729 8
  20951322.378    20951326.965    -1700956.156 8  -2668559.772 7
  23764976.993    23764984.501    -2916379.566 8  -3633523.154 8
 88  3 28  2 26 59.0800000  0  3G 6G 8G11
  21938923.241    21938927.432    -1221184.903 8  -2492999.994 9
  20938550.550    20938556.388    -1768072.424 9  -2720858.112 7
  23743952.397    23743962.618    -3026858.121 7  -3719610.149 9
 88  3 28  2 27 29.0800000  0  3G 6G 8G11
  21927508.170    21927512.375    -1281175.845 9  -2539746.172 9
  20925889.338    20925895.418    -1834601.865 8  -2772699.188 7
  23722957.979    23722965.817    -3137187.694 8  -3805581.112 7
 88  3 28  2 27 59.0800000  0  3G 6G 8G11
  21916104.803    21916109.494    -1341098.780 9  -2586439.349 9
  20913341.903    20913348.997    -1900542.266 9  -2824081.255 7
  23701991.697    23701999.603    -3247365.347 9  -3891433.677 8
 88  3 28  2 28 29.0800000  0  3G 6G 8G11
  21904715.057    21904719.476    -1400952.258 8  -2633078.354 9
  20900906.353    20900913.557    -1965890.930 8  -2875002.251 7
  23681054.601    23681063.169    -3357388.060 8  -3977165.499 8
 88  3 28  2 28 59.0800000  0  3G 6G 8G11
  21893338.049    21893343.901    -1460735.460 8  -2679662.599 8
  20888584.132    20888590.244    -2030645.115 9  -2925459.988 7
  23660148.162    23660156.481    -3467253.229 8  -4062774.585 8
 88  3 28  2 29 29.0800000  0  3G 6G 8G11
  21881975.519    21881980.369    -1520446.726 8  -2726190.801 8
  20876375.084    20876380.325    -2094802.600 8  -2975452.767 8
  23639273.724    23639280.793    -3576957.725 8  -4148258.482 8
 88  3 28  2 29 59.0800000  0  3G 6G 8G11
  21870627.929    21870631.234    -1580084.112 8  -2772661.462 8
  20864281.168    20864287.804    -2158360.442 7  -3024978.292 8
  23618427.043    23618435.893    -3686498.015 7  -4233614.421 8
 88  3 28  2 30 29.0800000  0  3G 6G 8G11
  21859291.703    21859296.965    -1639646.224 7  -2819073.459 8
  20852299.677    20852305.740    -2221316.434 8  -3074034.853 7
  23597614.154    23597622.736    -3795870.939 7  -4318839.904 8
 88  3 28  2 30 59.0800000  0  3G 6G 8G11
  21847972.729    21847977.523    -1699133.005 9  -2865426.722 9
  20840435.029    20840440.481    -2283669.237 9  -3122621.407 8
  23576833.652    23576841.696    -3905075.021 7  -4403933.861 9
 88  3 28  2 31 29.0800000  0  3G 6G 8G11
  21836668.097    21836671.645    -1758542.325 9  -2911719.634 8
  20828684.740    20828690.854    -2345415.704 8  -3170735.497 8
  23556085.855    23556093.513    -4014106.200 7  -4488893.089 8
 88  3 28  2 31 59.0800000  0  3G 6G 8G11
  21825378.170    21825380.833    -1817872.430 9  -2957950.851 8
  20817051.628    20817055.720    -2406553.041 8  -3218374.904 8
  23535371.073    23535378.282    -4122961.554 8  -4573715.280 9
 88  3 28  2 32 29.0800000  0  3G 6G 8G11
  21814099.324    21814107.338    -1877122.041 8  -3004119.348 7
  20805533.991    20805538.598    -2467078.569 9  -3265537.599 8
  23514689.749    23514697.294    -4231637.858 7  -4658397.966 8
 88  3 28  2 32 59.0800000  0  3G 6G 8G11
  21802840.536    21802849.006    -1936289.858 8  -3050224.061 9
  20794133.425    20794137.709    -2526990.438 9  -3312222.126 8
  23494045.810    23494051.625    -4340132.614 8  -4742939.218 9
 88  3 28  2 33 29.0800000  0  3G 6G 8G11
  21791600.208    21791604.617    -1995374.509 9  -3096263.983 8
  20782848.639    20782853.175    -2586286.707 8  -3358426.968 9
  23473432.382    23473441.031    -4448443.162 7  -4827336.913 9
 88  3 28  2 33 59.0800000  0  3G 6G 8G11
  21780372.099    21780377.440    -2054374.678 9  -3142238.116 8
  20771683.956    20771687.842    -2644965.165 9  -3404150.387 7
  23452858.342    23452865.443    -4556566.531 7  -4911588.738 8
 88  3 28  2 34 29.0800000  0  3G 6G 8G11
  21769160.105    21769164.898    -2113289.275 8  -3188145.515 9
  20760634.763    20760639.981    -2703023.915 8  -3449390.910 8
  23432318.657    23432326.658    -4664500.426 8  -4995692.931 8
 88  3 28  2 34 59.0800000  0  3G 6G 8G11
  21757966.482    21757970.532    -2172116.007 8  -3233984.481 8
  20749704.938    20749708.587    -2760459.541 8  -3494145.901 6
  23411815.216    23411823.870    -4772240.907 8  -5079646.419 8
 88  3 28  2 35 29.0800000  0  3G 6G 8G11
  21746789.686    21746793.348    -2230854.074 9  -3279754.393 8
  20738894.699    20738897.770    -2817271.015 9  -3538414.539 7
  23391350.037    23391358.913    -4879785.541 8  -5163447.317 7
 88  3 28  2 35 59.0800000  0  3G 6G 8G11
  21735629.661    21735634.399    -2289501.809 9  -3325453.894 9
  20728201.981    20728207.191    -2873456.143 8  -3582195.108 8
  23370923.796    23370930.734    -4987131.528 8  -5247093.398 8
 88  3 28  2 36 29.0800000  0  3G 6G 8G11
  21724483.662    21724490.988    -2348057.995 8  -3371082.031 9
  20717629.729    20717634.968    -2929013.033 9  -3625486.130 8
  23350533.544    23350543.746    -5094276.117 7  -5330582.565 7
 88  3 28  2 36 59.0800000  0  3G 6G 8G11
  21713361.467    21713365.718    -2406521.346 8  -3416637.831 8
  20707177.513    20707183.418    -2983939.389 8  -3668285.843 7
  23330185.253    23330192.085    -5201216.234 8  -5413912.397 8
 88  3 28  2 37 29.0800000  0  3G 6G 8G11
  21702252.670    21702257.292    -2464889.850 8  -3462119.761 9
  20696846.035    20696851.180    -3038232.630 9  -3710592.215 8
  23309873.400    23309881.682    -5307948.836 7  -5497080.529 7
 88  3 28  2 37 59.0800000  0  3G 6G 8G11
  21691162.731    21691169.527    -2523162.085 7  -3507526.674 8
  20686635.024    20686641.440    -3091891.124 8  -3752403.971 8
  23289603.285    23289610.851    -5414470.997 8  -5580084.683 8
 88  3 28  2 38 29.0800000  0  3G 6G 8G11
  21680092.940    21680099.325    -2581336.957 8  -3552857.681 8
  20676545.612    20676550.924    -3144913.516 8  -3793720.084 8
  23269374.016    23269380.230    -5520780.398 8  -5662923.058 8
 88  3 28  2 38 59.0800000  0  3G 6G 8G11
  21669044.900    21669046.917    -2639412.810 9  -3598111.552 9
  20666576.869    20666581.621    -3197297.541 8  -3834538.759 8
  23249184.234    23249191.912    -5626874.142 8  -5745593.393 8
 88  3 28  2 39 29.0800000  0  3G 6G 8G11
  21658010.281    21658013.401    -2697387.671 9  -3643286.736 8
  20656729.947    20656736.208    -3249041.076 8  -3874858.354 7
  23229035.824    23229045.023    -5732748.684 8  -5828092.913 8
 88  3 28  2 39 59.0800000  0  3G 6G 8G11
  21646996.123    21647000.877    -2755259.472 8  -3688381.626 7
  20647005.862    20647011.010    -3300141.262 8  -3914676.659 7
  23208932.291    23208939.429    -5838400.749 8  -5910419.075 8
 88  3 28  2 40 29.0800000  0  3G 6G 8G11
  21636004.059    21636010.227    -2813026.976 8  -3733395.213 9
  20637405.707    20637410.081    -3350596.331 8  -3953992.234 7
  23188868.932    23188877.462    -5943827.953 8  -5992570.048 8
 88  3 28  2 40 59.0800000  0  3G 6G 8G11
  21625032.774    21625036.881    -2870689.020 8  -3778326.637 9
  20627926.612    20627930.860    -3400405.231 9  -3992804.319 7
  23168851.500    23168858.252    -6049027.747 8  -6074543.806 9
 88  3 28  2 41 29.0800000  0  3G 6G 8G11
  21614078.345    21614083.808    -2928243.475 8  -3823174.244 9
  20618571.211    20618575.847    -3449565.821 8  -4031111.249 8
  23148874.854    23148883.320    -6153997.187 8  -6156338.061 7
 88  3 28  2 41 59.0800000  0  3G 6G 8G11
  21603146.320    21603152.515    -2985689.442 9  -3867937.279 9
  20609340.354    20609344.992    -3498077.128 8  -4068912.218 8
  23128945.550    23128953.808    -6258733.515 8  -6237950.694 9
 88  3 28  2 42 29.0800000  0  3G 6G 8G11
  21592237.537    21592242.674    -3043025.249 9  -3912614.492 8
  20600232.693    20600236.989    -3545936.996 9  -4106205.592 8
  23109059.363    23109067.709    -6363233.790 8  -6319379.352 8
 88  3 28  2 42 59.0800000  0  3G 6G 8G11
  21581349.756    21581352.064    -3100248.918 8  -3957204.314 8
  20591248.962    20591255.170    -3593143.283 8  -4142989.670 9
  23089218.676    23089226.242    -6467494.714 9  -6400621.535 8
 88  3 28  2 43 29.0800000  0  3G 6G 8G11
  21570480.241    21570485.119    -3157359.787 8  -4001706.251 9
  20582390.781    20582395.700    -3639695.418 9  -4179264.012 7
  23069423.357    23069432.144    -6571514.754 8  -6481676.007 9
 88  3 28  2 43 59.0800000  0  3G 6G 8G11
  21559633.957    21559639.339    -3214355.823 8  -4046118.692 9
  20573657.788    20573662.350    -3685591.316 9  -4215027.018 8
  23049676.185    23049683.766    -6675290.648 8  -6562540.215 8
 88  3 28  2 44 29.0800000  0  3G 6G 8G11
  21548809.714    21548815.480    -3271235.677 8  -4090440.638 8
  20565049.325    20565053.137    -3730829.956 9  -4250277.858 7
  23029976.113    23029982.597    -6778819.905 8  -6643212.279 7
 88  3 28  2 44 59.0800000  0  3G 6G 8G11
  21538008.478    21538015.187    -3327996.847 7  -4134670.068 8
  20556566.708    20556571.087    -3775408.783 8  -4285014.575 8
  23010320.905    23010327.769    -6882098.816 9  -6723689.246 8
 88  3 28  2 45 29.0800000  0  3G 6G 8G11
  21527230.022    21527234.156    -3384637.910 8  -4178805.890 8
  20548208.515    20548214.236    -3819326.591 9  -4319236.214 8
  22990716.620    22990724.319    -6985124.742 7  -6803969.081 8
 88  3 28  2 45 59.0800000  0  3G 6G 8G11
  21516475.261    21516479.753    -3441156.381 9  -4222846.233 9
  20539978.551    20539982.142    -3862580.493 9  -4352940.509 7
  22971159.991    22971166.759    -7087894.353 7  -6884049.201 8
 88  3 28  2 46 29.0800000  0  3G 6G 8G11
  21505744.311    21505748.405    -3497551.392 9  -4266790.348 8
  20531873.924    20531879.603    -3905169.891 9  -4386127.028 7
  22951651.867    22951660.298    -7190405.510 8  -6963927.917 8
 88  3 28  2 46 59.0800000  0  3G 6G 8G11
  21495035.484    21495040.436    -3553820.638 8  -4310636.451 8
  20523896.040    20523899.840    -3947093.215 9  -4418794.515 8
  22932195.539    22932203.038    -7292654.898 9  -7043602.686 8
 88  3 28  2 47 29.0800000  0  3G 6G 8G11
  21484350.556    21484356.363    -3609963.031 7  -4354383.720 7
  20516044.265    20516048.184    -3988349.084 8  -4450941.914 8
  22912788.160    22912795.835    -7394640.294 8  -7123071.721 9
 88  3 28  2 47 59.0800000  0  3G 6G 8G11
  21473693.123    21473698.390    -3665975.902 8  -4398030.085 8
  20508320.758    20508325.816    -4028935.235 8  -4482567.448 7
  22893430.417    22893438.583    -7496357.777 8  -7202332.023 8
 88  3 28  2 48 29.0800000  0  3G 6G 8G11
  21463060.335    21463064.171    -3721857.738 8  -4441574.329 8
  20500725.509    20500730.335    -4068850.569 8  -4513670.272 7
  22874127.722    22874134.803    -7597804.670 8  -7281381.441 8
 88  3 28  2 48 59.0800000  0  3G 6G 8G11
  21452450.873    21452455.194    -3777607.526 9  -4485015.676 9
  20493257.974    20493262.557    -4108094.736 8  -4544250.113 7
  22854873.963    22854880.461    -7698979.194 9  -7360218.633 8
 88  3 28  2 49 29.0800000  0  3G 6G 8G11
  21441868.510    21441871.442    -3833223.409 8  -4528352.653 9
  20485917.237    20485922.786    -4146666.290 8  -4574305.819 7
  22835673.909    22835680.297    -7799878.276 8  -7438841.196 8
 88  3 28  2 49 59.0800000  0  3G 6G 8G11
  21431309.043    21431313.449    -3888703.311 9  -4571583.716 9
  20478706.082    20478711.387    -4184563.947 9  -4603836.430 7
  22816526.708    22816533.388    -7900498.904 9  -7517246.793 9
 88  3 28  2 50 29.0800000  0  3G 6G 8G11
  21420778.192    21420783.630    -3944045.129 8  -4614707.160 8
  20471622.796    20471627.839    -4221785.809 9  -4632840.434 7
  22797432.571    22797439.295    -8000838.218 7  -7595433.184 8
 88  3 28  2 50 59.0800000  0  3G 6G 8G11
  21410274.903    21410278.981    -3999247.015 9  -4657721.579 8
  20464668.611    20464673.119    -4258330.713 9  -4661316.946 8
  22778392.910    22778399.995    -8100893.362 8  -7673398.117 8
 88  3 28  2 51 29.0800000  0  3G 6G 8G11
  21399795.023    21399800.074    -4054307.627 7  -4700625.908 9
  20457843.651    20457847.695    -4294197.546 8  -4689265.104 7
  22759406.914    22759414.101    -8200662.119 9  -7751139.883 7
 88  3 28  2 51 59.0800000  0  3G 6G 8G11
  21389345.104    21389351.074    -4109224.965 9  -4743418.607 8
  20451146.755    20451152.673    -4329385.170 9  -4716684.003 7
  22740476.619    22740482.633    -8300141.497 9  -7828656.224 7
 88  3 28  2 52 29.0800000  0  3G 6G 8G11
  21378922.837    21378928.686    -4163996.649 8  -4786097.815 9
  20444579.014    20444585.175    -4363891.973 9  -4743572.387 8
  22721601.887    22721608.825    -8399328.236 7  -7905944.509 8
 88  3 28  2 52 59.0800000  0  3G 6G 8G11
  21368527.438    21368532.474    -4218621.345 8  -4828662.479 9
  20438143.445    20438149.778    -4397717.314 8  -4769929.753 7
  22702784.200    22702790.679    -8498220.074 8  -7983002.975 9
 88  3 28  2 53 29.0800000  0  3G 6G 8G11
  21358161.773    21358166.422    -4273097.283 8  -4871111.205 8
  20431837.569    20431841.586    -4430860.127 8  -4795755.273 7
  22684021.593    22684027.264    -8596814.088 8  -8059829.413 8
 88  3 28  2 53 59.0800000  0  3G 6G 8G11
  21347824.612    21347827.702    -4327422.361 9  -4913442.405 8
  20425659.413    20425663.878    -4463319.211 8  -4821048.044 8
  22665316.799    22665322.669    -8695107.754 7  -8136421.788 7
 88  3 28  2 54 29.0800000  0  3G 6G 8G11
  21337515.181    21337519.192    -4381594.555 9  -4955654.485 9
  20419613.153    20419618.042    -4495093.409 8  -4845807.136 7
  22646669.488    22646675.724    -8793098.055 8  -8212777.787 7
 88  3 28  2 54 59.0800000  0  3G 6G 8G11
  21327236.719    21327241.584    -4435612.279 8  -4997746.200 9
  20413697.762    20413701.242    -4526181.902 7  -4870031.905 6
  22628081.291    22628086.125    -8890782.302 8  -8288895.283 8
 88  3 28  2 55 29.0800000  0  3G 6G 8G11
  21316985.158    21316991.081    -4489473.511 9  -5039715.943 9
  20407913.483    20407917.063    -4556583.842 8  -4893721.701 7
  22609551.468    22609558.226    -8988157.860 8  -8364772.258 9
 88  3 28  2 55 59.0800000  0  3G 6G 8G11
  21306768.908    21306772.615    -4543176.845 8  -5081562.672 9
  20402257.181    20402262.554    -4586299.059 8  -4916876.378 7
  22591080.935    22591087.113    -9085222.618 7  -8440407.060 8
 88  3 28  2 56 29.0800000  0  3G 6G 8G11
  21296579.848    21296582.038    -4596719.492 9  -5123284.182 9
  20396735.114    20396737.866    -4615325.448 9  -4939494.316 7
  22572669.964    22572676.162    -9181972.881 8  -8515796.787 8
 88  3 28  2 56 59.0800000  0  3G 6G 8G11
  21286421.008    21286426.290    -4650099.899 9  -5164879.285 8
  20391342.282    20391345.585    -4643662.645 8  -4961575.199 8
  22554317.162    22554324.032    -9278406.719 8  -8590939.951 8
 88  3 28  2 57 29.0800000  0  3G 6G 8G11
  21276293.822    21276298.790    -4703317.295 8  -5206347.349 9
  20386080.515    20386084.316    -4671311.009 9  -4983119.375 6
  22536028.997    22536035.025    -9374522.364 8  -8665835.184 9
 88  3 28  2 57 59.0800000  0  3G 6G 8G11
  21266198.746    21266202.466    -4756369.209 9  -5247686.476 8
  20380950.695    20380955.966    -4698269.556 9  -5004126.009 7
  22517798.345    22517805.229    -9470316.207 8  -8740479.657 8
 88  3 28  2 58 29.0800000  0  3G 6G 8G11
  21256135.090    21256138.067    -4809253.243 9  -5288894.786 8
  20375952.373    20375956.022    -4724536.944 8  -5024594.058 7
  22499631.016    22499638.395    -9565785.483 8  -8814871.234 9
 88  3 28  2 58 59.0800000  0  3G 6G 8G11
  21246102.773    21246108.112    -4861967.880 8  -5329971.106 8
  20371086.186    20371089.609    -4750112.293 8  -5044522.861 7
  22481526.941    22481533.340    -9660928.253 8  -8889008.376 8
 88  3 28  2 59 29.0800000  0  3G 6G 8G11
  21236104.481    21236109.992    -4914511.053 8  -5370913.799 8
  20366350.746    20366354.252    -4774995.271 9  -5063912.177 7
  22463484.624    22463490.646    -9755741.631 8  -8962888.853 8
 88  3 28  2 59 59.0800000  0  3G 6G 8G11
  21226138.819    21226143.813    -4966880.159 8  -5411720.859 9
  20361747.803    20361751.144    -4799184.599 9  -5082760.974 7
  22445506.068    22445512.008    -9850222.331 8  -9036510.118 9
 88  3 28  3  0 29.0800000  0  3G 6G 8G11
  21216207.350    21216210.344    -5019073.904 9  -5452391.262 8
  20357275.764    20357279.382    -4822680.265 8  -5101069.250 6
  22427589.423    22427595.572    -9944368.295 8  -9109870.539 7
 88  3 28  3  0 59.0800000  0  3G 6G 8G11
  21206308.541    21206311.687    -5071090.240 8  -5492923.465 7
  20352936.107    20352940.351    -4845481.841 9  -5118836.684 7
  22409737.997    22409743.477   -10038176.989 8  -9182968.143 8
 88  3 28  3  1 29.0800000  0  3G 6G 8G11
  21196443.897    21196448.221    -5122926.347 8  -5533315.219 8
  20348730.302    20348732.394    -4867588.002 8  -5136062.248 7
  22391952.199    22391958.168   -10131645.094 8  -9255800.382 8
 88  3 28  3  1 59.0800000  0  3G 6G 8G11
  21186614.946    21186619.864    -5174580.527 8  -5573565.184 8
  20344655.219    20344660.404    -4888998.547 9  -5152745.766 7
  22374231.588    22374236.521   -10224770.291 9  -9328365.404 7
 88  3 28  3  2 29.0800000  0  3G 6G 8G11
  21176820.188    21176823.921    -5226049.568 8  -5613670.893 8
  20340713.590    20340718.176    -4909711.643 8  -5168885.809 7
  22356575.383    22356581.937   -10317548.584 9  -9400660.114 8
 88  3 28  3  2 59.0800000  0  3G 6G 8G11
  21167062.006    21167065.455    -5277331.970 8  -5653631.163 8
  20336904.476    20336909.103    -4929727.587 8  -5184482.640 6
  22338986.379    22338992.125   -10409978.151 8  -9472683.080 7
 88  3 28  3  3 29.0800000  0  3G 6G 8G11
  21157338.625    21157342.730    -5328426.844 9  -5693445.334 8
  20333228.470    20333231.485    -4949046.848 8  -5199536.579 7
  22321465.416    22321470.172   -10502057.675 8  -9544433.326 8
 88  3 28  3  3 59.0800000  0  3G 6G 8G11
  21147652.819    21147656.468    -5379333.095 8  -5733112.519 8
  20329684.666    20329687.234    -4967670.177 9  -5214048.234 6
  22304009.360    22304015.040   -10593785.482 8  -9615909.469 7
 88  3 28  3  4 29.0800000  0  3G 6G 8G11
  21138000.326    21138006.949    -5430047.771 7  -5772630.403 8
  20326274.184    20326276.796    -4985596.701 9  -5228016.926 7
  22286621.905    22286627.740   -10685158.141 8  -9687108.905 9
 88  3 28  3  4 59.0800000  0  3G 6G 8G11
  21128386.524    21128391.519    -5480568.613 9  -5811997.236 8
  20322994.520    20322998.665    -5002826.114 9  -5241442.436 7
  22269302.655    22269307.093   -10776173.113 8  -9758029.615 8
 88  3 28  3  5 29.0800000  0  3G 6G 8G11
  21118810.182    21118815.033    -5530894.325 7  -5851212.050 9
  20319849.067    20319854.962    -5019358.141 9  -5254324.522 7
  22252052.088    22252057.083   -10866828.095 9  -9828669.795 8
 88  3 28  3  5 59.0800000  0  3G 6G 8G11
  21109271.762    21109275.912    -5581022.633 9  -5890273.046 9
  20316837.030    20316839.723    -5035192.367 8  -5266662.843 7
  22234870.080    22234874.757   -10957120.737 9  -9899027.657 8
 88  3 28  3  6 29.0800000  0  3G 6G 8G11
  21099770.487    21099773.893    -5630951.537 8  -5929178.652 8
  20313955.877    20313957.655    -5050329.177 8  -5278457.739 7
  22217756.288    22217763.075   -11047048.833 8  -9969101.476 7
 88  3 28  3  6 59.0800000  0  3G 6G 8G11
  21090306.216    21090311.984    -5680679.009 8  -5967927.301 8
  20311206.954    20311211.929    -5064768.243 8  -5289708.949 6
  22200714.137    22200720.300   -11136609.572 9 -10038889.004 8
 88  3 28  3  7 29.0800000  0  3G 6G 8G11
  21080883.872    21080887.836    -5730203.018 8  -6006517.413 9
  20308593.807    20308598.104    -5078509.284 9  -5300416.217 7
  22183740.496    22183747.015   -11225800.636 8 -10108388.468 8
 88  3 28  3  7 59.0800000  0  3G 6G 8G11
  21071499.274    21071501.565    -5779520.972 8  -6044946.935 9
  20306111.365    20306114.523    -5091552.276 9  -5310579.575 8
  22166837.428    22166844.575   -11314619.069 8 -10177597.590 8
 88  3 28  3  8 29.0800000  0  3G 6G 8G11
  21062152.711    21062156.717    -5828631.313 9  -6083214.697 8
  20303761.624    20303766.572    -5103897.269 9  -5320199.032 8
  22150008.314    22150014.072   -11403063.481 8 -10246515.257 8
 88  3 28  3  8 59.0800000  0  3G 6G 8G11
  21052848.447    21052850.935    -5877531.273 8  -6121318.550 8
  20301546.237    20301551.455    -5115543.868 8  -5329274.291 7
  22133248.277    22133256.199   -11491130.403 8 -10315138.798 8
 88  3 28  3  9 29.0800000  0  3G 6G 8G11
  21043583.903    21043586.709    -5926219.315 8  -6159257.267 8
  20299462.195    20299467.496    -5126492.736 9  -5337805.858 7
  22116563.744    22116569.242   -11578817.908 7 -10383466.659 8
 88  3 28  3  9 59.0800000  0  3G 6G 8G11
  21034358.911    21034362.186    -5974693.219 9  -6197029.103 8
  20297510.924    20297516.030    -5136743.950 8  -5345793.779 7
  22099949.193    22099954.499   -11666123.678 8 -10451497.073 9
 88  3 28  3 10 29.0800000  0  3G 6G 8G11
  21025175.045    21025179.092    -6022950.676 9  -6234632.291 9
  20295692.883    20295698.229    -5146297.072 8  -5353237.749 7
  22083410.344    22083414.108   -11753045.004 9 -10519227.924 8
 88  3 28  3 10 59.0800000  0  3G 6G 8G11
  21016033.647    21016036.964    -6070990.097 9  -6272065.584 9
  20294008.142    20294011.777    -5155153.015 8  -5360138.472 7
  22066941.793    22066948.310   -11839580.080 8 -10586657.812 7
 88  3 28  3 11 29.0800000  0  3G 6G 8G11
  21006933.572    21006938.781    -6118808.984 8  -6309327.032 8
  20292455.276    20292461.588    -5163311.440 8  -5366495.670 7
  22050548.706    22050555.264   -11925726.181 8 -10653784.581 8
 88  3 28  3 11 59.0800000  0  3G 6G 8G11
  20997877.086    20997879.845    -6166405.115 8  -6346414.914 7
  20291035.938    20291039.486    -5170772.489 8  -5372309.455 8
  22034231.207    22034236.148   -12011481.046 8 -10720606.501 8
 88  3 28  3 12 29.0800000  0  3G 6G 8G11
  20988860.292    20988866.028    -6213776.644 9  -6383327.759 8
  20289748.202    20289752.225    -5177536.677 8  -5377580.249 8
  22017986.648    22017992.150   -12096842.581 8 -10787121.943 7
 88  3 28  3 12 59.0800000  0  3G 6G 8G11
  20979891.490    20979894.856    -6260921.070 8  -6420063.649 8
  20288594.774    20288597.853    -5183604.026 9  -5382308.023 8
  22001817.032    22001823.832   -12181808.112 8 -10853328.800 9
 88  3 28  3 13 29.0800000  0  3G 6G 8G11
  20970961.700    20970967.378    -6307835.955 8  -6456620.677 9
  20287571.405    20287576.136    -5188974.216 8  -5386492.563 8
  21985726.618    21985730.986   -12266375.094 9 -10919225.090 8
 88  3 28  3 13 59.0800000  0  3G 6G 8G11
  20962079.067    20962085.221    -6354519.698 8  -6492997.602 9
  20286683.511    20286687.509    -5193648.115 8  -5390134.551 7
  21969708.931    21969714.679   -12350541.739 7 -10984809.431 8
 88  3 28  3 14 29.0800000  0  3G 6G 8G11
  20953239.621    20953243.455    -6400969.892 8  -6529192.530 9
  20285925.791    20285929.457    -5197626.042 9  -5393234.207 7
  21953769.789    21953774.635   -12434305.595 8 -11050079.948 8
 88  3 28  3 14 59.0800000  0  3G 6G 8G11
  20944445.421    20944448.825    -6447184.387 8  -6565203.809 8
  20285301.198    20285305.082    -5200908.777 9  -5395792.172 8
  21937906.292    21937912.439   -12517664.447 8 -11115034.877 7
 88  3 28  3 15 29.0800000  0  3G 6G 8G11
  20935696.954    20935700.945    -6493161.033 8  -6601029.731 9
  20284808.409    20284812.675    -5203496.698 9  -5397808.718 8
  21922119.841    21922126.806   -12600616.138 8 -11179672.506 8
 88  3 28  3 15 59.0800000  0  3G 6G 8G11
  20926993.476    20926997.494    -6538897.796 8  -6636668.745 7
  20284449.114    20284451.442    -5205390.477 8  -5399284.373 8
  21906413.635    21906419.547   -12683158.536 8 -11243991.199 8
 88  3 28  3 16 29.0800000  0  3G 6G 8G11
  20918336.157    20918340.820    -6584392.294 9  -6672118.978 9
  20284219.496    20284223.527    -5206590.475 8  -5400219.418 8
  21890783.017    21890790.090   -12765288.952 8 -11307988.875 7
 88  3 28  3 16 59.0800000  0  3G 6G 8G11
  20909725.457    20909728.690    -6629642.580 8  -6707378.930 8
  20284122.000    20284127.692    -5207097.319 8  -5400614.342 7
  21875234.637    21875241.187   -12847005.541 8 -11371664.075 8
 88  3 28  3 17 29.0800000  0  3G 6G 8G11
  20901161.721    20901165.884    -6674646.174 8  -6742446.628 8
  20284157.665    20284162.832    -5206911.373 8  -5400469.446 8
  21859764.616    21859769.237   -12928306.135 8 -11435015.118 7
 88  3 28  3 17 59.0800000  0  3G 6G 8G11
  20892643.234    20892649.342    -6719401.099 9  -6777320.552 8
  20284324.570    20284330.368    -5206033.037 8  -5399785.006 8
  21844372.060    21844378.832   -13009188.306 8 -11498040.146 8
 88  3 28  3 18 29.0800000  0  3G 6G 8G11
  20884175.653    20884180.217    -6763904.748 8  -6811998.705 9
  20284624.364    20284628.132    -5204462.829 8  -5398561.444 7
  21829060.842    21829066.588   -13089650.281 8 -11560737.733 8
 88  3 28  3 18 59.0800000  0  3G 6G 8G11
  20875755.182    20875759.574    -6808155.068 9  -6846479.446 9
  20285055.217    20285059.829    -5202201.694 9  -5396799.505 8
  21813827.617    21813835.034   -13169689.412 9 -11623105.833 8
 88  3 28  3 19 29.0800000  0  3G 6G 8G11
  20867382.330    20867385.950    -6852150.118 8  -6880761.282 8
  20285616.989    20285621.013    -5199250.634 8  -5394499.964 8
  21798680.344    21798685.653   -13249304.070 8 -11685143.179 7
 88  3 28  3 19 59.0800000  0  3G 6G 8G11
  20859059.018    20859063.697    -6895887.715 8  -6914842.517 7
  20286309.220    20286313.181    -5195610.241 8  -5391663.277 8
  21783611.256    21783616.769   -13328492.218 9 -11746848.186 8
 88  3 28  3 20 29.0800000  0  3G 6G 8G11
  20850788.074    20850790.866    -6939365.782 8  -6948721.479 8
  20287133.598    20287137.869    -5191281.576 8  -5388290.284 9
  21768622.817    21768627.633   -13407251.863 8 -11808219.280 7
 88  3 28  3 20 59.0800000  0  3G 6G 8G11
  20842563.814    20842567.030    -6982581.314 8  -6982395.893 9
  20288087.544    20288092.066    -5186264.724 8  -5384381.033 8
  21753716.276    21753724.143   -13485580.224 8 -11869254.320 7
 88  3 28  3 21 29.0800000  0  3G 6G 8G11
  20834389.601    20834393.880    -7025532.710 9  -7015864.493 8
  20289172.598    20289176.943    -5180561.036 8  -5379936.580 8
  21738894.291    21738902.275   -13563475.389 8 -11929951.800 7
 88  3 28  3 21 59.0800000  0  3G 6G 8G11
  20826266.587    20826270.709    -7068217.710 9  -7049125.520 9
  20290389.954    20290392.866    -5174171.551 8  -5374957.755 7
  21724154.630    21724158.777   -13640935.903 9 -11990310.578 6
 88  3 28  3 22 29.0800000  0  3G 6G 8G11
  20818195.604    20818199.038    -7110633.724 8  -7082176.902 9
  20291734.960    20291739.633    -5167096.510 8  -5369444.716 8
  21709497.739    21709502.402   -13717959.207 8 -12050328.716 8
 88  3 28  3 22 59.0800000  0  3G 6G 8G11
  20810175.788    20810179.951    -7152778.961 8  -7115017.336 9
  20293212.169    20293216.771    -5159337.647 8  -5363398.835 8
  21694925.118    21694929.323   -13794543.807 8 -12110004.977 8
 88  3 28  3 23 29.0800000  0  3G 6G 8G11
  20802206.943    20802211.808    -7194651.288 7  -7147645.089 8
  20294819.469    20294823.399    -5150895.601 8  -5356820.607 7
  21680434.002    21680439.986   -13870687.407 8 -12169337.630 8
 88  3 28  3 23 59.0800000  0  3G 6G 8G11
  20794291.729    20794296.140    -7236247.323 8  -7180057.572 8
  20296554.443    20296559.860    -5141770.752 8  -5349710.311 7
  21666029.954    21666033.700   -13946387.234 8 -12228324.444 8
 88  3 28  3 24 29.0800000  0  3G 6G 8G11
  20786429.317    20786434.265    -7277565.779 8  -7212253.752 8
  20298419.872    20298425.001    -5131964.745 8  -5342069.262 7
  21651708.388    21651714.552   -14021642.328 8 -12286964.729 7
 88  3 28  3 24 59.0800000  0  3G 6G 8G11
  20778618.299    20778623.922    -7318604.482 8  -7244231.935 9
  20300416.736    20300419.799    -5121478.762 8  -5333898.347 9
  21637473.125    21637479.066   -14096450.730 8 -12345256.935 8
 88  3 28  3 25 29.0800000  0  3G 6G 8G11
  20770863.662    20770866.640    -7359361.079 8  -7275990.310 8
  20302541.211    20302545.576    -5110313.714 8  -5325198.302 7
  21623322.135    21623329.131   -14170810.330 8 -12403199.439 8
 88  3 28  3 25 59.0800000  0  3G 6G 8G11
  20763163.230    20763166.176    -7399832.582 9  -7307526.533 9
  20304793.943    20304798.682    -5098470.353 7  -5315969.700 8
  21609258.970    21609263.653   -14244718.663 7 -12460790.293 7
 88  3 28  3 26 29.0800000  0  3G 6G 8G11
  20755514.310    20755520.120    -7440017.643 9  -7338839.531 9
  20307175.332    20307180.329    -5085950.554 8  -5306214.001 8
  21595278.664    21595286.181   -14318174.774 8 -12518028.761 8
 88  3 28  3 26 59.0800000  0  3G 6G 8G11
  20747923.142    20747928.020    -7479914.106 8  -7369927.674 9
  20309688.186    20309692.412    -5072755.729 7  -5295932.311 7
  21581387.729    21581392.930   -14391176.549 8 -12574913.223 7
 88  3 28  3 27 29.0800000  0  3G 6G 8G11
  20740387.294    20740390.940    -7519519.326 8  -7400788.883 9
  20312325.793    20312330.993    -5058886.845 8  -5285125.380 8
  21567583.976    21567589.754   -14463721.995 8 -12631442.073 8
 88  3 28  3 27 59.0800000  0  3G 6G 8G11
  20732904.930    20732909.109    -7558831.184 9  -7431421.482 8
  20315093.950    20315097.464    -5044345.060 8  -5273794.111 7
  21553865.010    21553872.177   -14535809.524 9 -12687614.146 7
 88  3 28  3 28 29.0800000  0  4G 6G 8G11G 9
  20725481.403    20725485.361    -7597847.418 8  -7461823.720 9
  20317990.131    20317992.367    -5029131.790 8  -5261939.601 7
  21540235.050    21540240.599   -14607437.185 9 -12743427.874 8
                  22886705.275   -27460086.758 9
 88  3 28  3 28 59.0800000  0  4G 6G 8G11G 9
  20718113.601    20718117.002    -7636566.470 8  -7491994.405 8
  20321011.531    20321016.046    -5013249.054 8  -5249563.450 6
  21526693.001    21526697.521   -14678604.023 9 -12798882.524 8
  22869744.000    22869749.760   -27549371.873 8  34968819.851 8
 88  3 28  3 29 29.0800000  0  4G 6G 8G11G 9
  20710802.091    20710808.183    -7674985.682 8  -7521931.433 8
  20324161.398    20324165.199    -4996697.805 8  -5236666.355 6
  21513238.239    21513243.849   -14749307.780 8 -12853976.315 8
  22852761.398    22852767.239   -27638614.649 8  34899280.127 7
 88  3 28  3 29 59.0800000  0  4G 6G 8G11G 9
  20703550.680    20703552.018    -7713101.886 9  -7551632.347 8
  20327437.340    20327441.203    -4979478.717 8  -5223248.870 6
  21499872.340    21499877.232   -14819545.429 9 -12908706.892 7
  22835789.102    22835792.451   -27727812.134 9  34829775.645 8
 88  3 28  3 30 29.0800000  0  4G 6G 8G11G 9
  20696353.989    20696357.728    -7750913.099 8  -7581095.622 8
  20330841.531    20330845.260    -4961593.117 7  -5209312.042 7
  21486594.509    21486600.439   -14889315.749 9 -12963073.325 8
  22818825.154    22818827.443   -27816962.936 9  34760307.592 8
 88  3 28  3 30 59.0800000  0  4G 6G 8G11G 9
  20689217.281    20689221.365    -7788417.814 8  -7610320.057 8
  20334371.002    20334376.756    -4943042.848 9  -5194857.286 7
  21473406.515    21473412.684   -14958618.024 9 -13017075.080 7
  22801868.224    22801873.307   -27906066.091 8  34690876.664 9
 88  3 28  3 31 29.0800000  0  4G 6G 8G11G 9
  20682137.863    20682142.194    -7825613.537 8  -7639303.705 8
  20338027.087    20338031.699    -4923829.420 9  -5179885.777 7
  21460308.411    21460313.420   -15027449.989 8 -13070710.331 7
  22784922.572    22784926.699   -27995119.116 7  34621484.814 8
 88  3 28  3 31 59.0800000  0  4G 6G 8G11G 9
  20675120.895    20675123.492    -7862497.545 8  -7668044.477 8
  20341809.741    20341813.057    -4903954.298 8  -5164398.651 7
  21447300.271    21447304.354   -15095809.507 9 -13123977.455 7
  22767984.680    22767989.175   -28084119.866 8  34552133.672 8
 88  3 28  3 32 29.0800000  0  4G 6G 8G11G 9
  20668160.935    20668164.903    -7899066.838 8  -7696540.026 8
  20345716.674    20345721.599    -4883418.186 8  -5148396.485 7
  21434381.226    21434385.843   -15163694.264 9 -13176874.622 6
  22751059.978    22751063.460   -28173065.719 8  34482825.297 9
 88  3 28  3 32 59.0800000  0  4G 6G 8G11G 9
  20661260.356    20661266.200    -7935320.700 8  -7724789.770 8
  20349750.618    20349754.854    -4862223.854 9  -5131881.410 7
  21421554.264    21421559.036   -15231104.098 8 -13229401.701 7
  22734141.897    22734146.690   -28261956.508 7  34413559.856 8
 88  3 28  3 33 29.0800000  0  4G 6G 8G11G 9
  20654424.170    20654428.627    -7971256.413 9  -7752791.603 8
  20353907.514    20353912.958    -4840372.828 8  -5114854.637 7
  21408816.160    21408822.904   -15298036.983 9 -13281557.169 6
  22717236.307    22717244.293   -28350789.759 8  34344339.212 6
 88  3 28  3 33 59.0800000  0  4G 6G 8G11G 9
  20647646.678    20647650.135    -8006871.070 8  -7780543.280 7
  20358190.659    20358195.658    -4817866.326 8  -5097317.087 7
  21396171.365    21396177.277   -15364490.732 8 -13333339.272 6
  22700346.569    22700350.910   -28439562.754 8  34275165.547 7
 88  3 28  3 34 29.0800000  0  4G 6G 8G11G 9
  20640931.605    20640934.818    -8042163.301 8  -7808043.705 8
  20362597.828    20362601.448    -4794706.213 8  -5079270.245 6
  21383616.143    21383622.986   -15430464.513 9 -13384747.394 7
  22683465.283    22683469.898   -28528274.481 8  34206039.617 7
 88  3 28  3 34 59.0800000  0  4G 6G 8G11G 9
  20634276.344    20634280.586    -8077130.151 9  -7835290.565 7
  20367129.414    20367133.517    -4770893.707 9  -5060715.037 6
  21371153.852    21371160.640   -15495956.271 8 -13435779.881 7
  22666596.193    22666601.544   -28616922.209 8  34136963.547 7
 88  3 28  3 35 29.0800000  0  4G 6G 8G11G 9
  20627684.415    20627687.469    -8111769.177 8  -7862281.989 8
  20371783.277    20371788.869    -4746430.696 9  -5041652.923 6
  21358783.581    21358788.855   -15560964.359 9 -13486435.488 7
  22649737.101    22649742.639   -28705504.063 7  34067938.789 6
 88  3 28  3 35 59.0800000  0  4G 6G 8G11G 9
  20621157.651    20621159.805    -8146078.221 9  -7889016.319 8
  20376563.227    20376567.988    -4721318.951 9  -5022085.336 7
  21346506.093    21346512.048   -15625487.107 7 -13536712.923 7
  22632895.521    22632900.070   -28794017.874 8  33998967.022 7
 88  3 28  3 36 29.0800000  0  4G 6G 8G11G 9
  20614691.041    20614695.941    -8180055.662 8  -7915492.223 7
  20381464.975    20381469.735    -4695560.737 9  -5002014.005 6
  21334321.547    21334325.240   -15689523.481 8 -13586611.378 7
  22616064.624    22616070.446   -28882462.483 8  33930049.236 7
 88  3 28  3 36 59.0800000  0  4G 6G 8G11G 9
  20608288.767    20608292.980    -8213698.786 8  -7941707.626 8
  20386488.738    20386491.664    -4669157.181 9  -4981439.791 6
  21322227.514    21322232.892   -15753072.126 8 -13636129.768 7
  22599249.037    22599252.843   -28970835.217 9  33861187.408 8
 88  3 28  3 37 29.0800000  0  4G 6G 8G11G 9
  20601950.825    20601953.899    -8247004.695 8  -7967660.267 7
  20391636.340    20391641.832    -4642109.402 8  -4960363.602 7
  21310227.536    21310232.967   -15816130.505 8 -13685266.134 7
  22582444.730    22582450.583   -29059133.657 9  33792383.520 9
 88  3 28  3 37 59.0800000  0  4G 6G 8G11G 9
  20595676.961    20595680.975    -8279972.382 8  -7993349.368 8
  20396903.934    20396909.396    -4614420.680 8  -4938787.967 7
  21298320.942    21298327.230   -15878698.288 8 -13734020.209 7
  22565656.897    22565662.258   -29147357.042 8  33723638.069 8
 88  3 28  3 38 29.0800000  0  4G 6G 8G11G 9
  20589468.805    20589472.389    -8312599.406 9  -8018773.012 8
  20402297.007    20402300.563    -4586092.546 8  -4916714.086 7
  21286508.882    21286513.602   -15940773.654 9 -13782390.592 7
  22548883.642    22548888.201   -29235502.741 8  33654953.166 7
 88  3 28  3 38 59.0800000  0  4G 6G 8G11G 9
  20583326.297    20583327.680    -8344882.266 9  -8043928.487 7
  20407807.870    20407813.036    -4557125.983 8  -4894142.724 6
  21274789.243    21274795.299   -16002354.299 8 -13830375.488 7
  22532125.525    22532130.169   -29323567.580 9  33586331.240 7
 88  3 28  3 39 29.0800000  0  4G 6G 8G11G 9
  20577247.814    20577250.739    -8376819.495 9  -8068814.616 7
  20413442.633    20413445.076    -4527523.374 9  -4871075.746 6
  21263167.190    21263170.985   -16063439.677 9 -13877974.453 8
  22515383.512    22515387.318   -29411550.386 9  33517773.259 8
 88  3 28  3 39 59.0800000  0  4G 6G 8G11G 9
  20571236.496    20571239.365    -8408409.151 8  -8093429.942 7
  20419195.596    20419199.546    -4497287.042 9  -4847514.949 7
  21251636.836    21251642.011   -16124028.735 8 -13925186.672 8
  22498656.940    22498659.996   -29499449.512 9  33449280.471 8
 88  3 28  3 40 29.0800000  0  4G 6G 8G11G 9
  20565292.256    20565296.885    -8439648.052 8  -8117771.928 7
  20425070.335    20425072.365    -4466418.073 9  -4823461.211 7
  21240202.062    21240206.694   -16184119.085 9 -13972010.296 8
  22481944.263    22481949.942   -29587261.693 8  33380855.439 8
 88  3 28  3 40 59.0800000  0  4G 6G 8G11G 9
  20559415.359    20559417.856    -8470535.021 9  -8141839.663 8
  20431063.342    20431066.044    -4434919.553 8  -4798916.907 7
  21228861.682    21228867.346   -16243710.446 8 -14018445.081 8
  22465252.726    22465257.276   -29674986.010 8  33312498.895 8
 88  3 28  3 41 29.0800000  0  4G 6G 8G11G 9
  20553604.109    20553607.794    -8501067.318 9  -8165631.062 8
  20437176.987    20437180.196    -4402793.037 8  -4773883.231 6
  21217617.325    21217622.181   -16302800.799 9 -14064489.487 8
  22448576.656    22448580.892   -29762619.767 8  33244212.888 7
 88  3 28  3 41 59.0800000  0  4G 6G 8G11G 9
  20547862.864    20547866.950    -8531242.651 9  -8189144.279 8
  20443409.582    20443413.187    -4370040.371 9  -4748361.648 7
  21206467.637    21206473.889   -16361388.885 9 -14110142.492 7
  22431918.689    22431921.031   -29850160.834 9  33175999.097 7
 88  3 28  3 42 29.0800000  0  4G 6G 8G11G 9
  20542188.352    20542192.469    -8561059.112 9  -8212377.856 8
  20449762.039    20449765.947    -4336664.232 9  -4722354.263 6
  21195415.310    21195420.327   -16419473.977 9 -14155403.584 7
  22415277.580    22415282.856   -29937607.528 7  33107858.872 7
 88  3 28  3 42 59.0800000  0  4G 6G 8G11G 9
  20536584.989    20536587.100    -8590514.102 8  -8235329.795 8
  20456230.663    20456234.822    -4302666.376 9  -4695862.410 7
  21184458.373    21184462.062   -16477054.305 7 -14200271.332 8
  22398654.284    22398658.999   -30024956.848 7  33039794.524 8
 88  3 28  3 43 29.0800000  0  4G 6G 8G11G 9
  20531046.873    20531051.176    -8619605.232 8  -8257998.200 8
  20462818.891    20462822.667    -4268048.390 9  -4668887.356 7
  21173596.628    21173601.875   -16534128.785 9 -14244744.928 8
  22382053.132    22382056.272   -30112206.947 8  32971807.488 8
 88  3 28  3 43 59.0800000  0  4G 6G 8G11G 9
  20525580.424    20525583.675    -8648330.918 9  -8280381.837 8
  20469522.944    20469527.999    -4232813.189 9  -4641431.342 7
  21162832.625    21162837.645   -16590696.603 8 -14288823.722 7
  22365468.106    22365471.658   -30199356.164 9  32903899.061 7
 88  3 28  3 44 29.0800000  0  4G 6G 8G11G 9
  20520184.455    20520188.240    -8676688.844 9  -8302478.920 8
  20476345.143    20476348.810    -4196962.901 8  -4613496.051 7
  21152164.585    21152169.878   -16646756.394 9 -14332506.632 7
  22348903.513    22348906.818   -30286402.126 8  32836071.060 8
 88  3 28  3 44 59.0800000  0  4G 6G 8G11G 9
  20514858.946    20514862.403    -8704676.826 9  -8324287.712 8
  20483284.100    20483288.053    -4160499.619 8  -4585083.094 6
  21141593.778    21141598.050   -16702307.236 9 -14375792.968 7
  22332360.251    22332362.653   -30373342.729 9  32768325.177 7
 88  3 28  3 45 29.0800000  0  4G 6G 8G11G 9
  20509603.470    20509606.939    -8732292.461 8  -8345806.385 8
  20490339.148    20490342.263    -4123425.347 8  -4556194.055 6
  21131119.018    21131124.771   -16757347.576 8 -14418681.506 7
  22315835.429    22315839.800   -30460175.610 9  32700663.218 8
 88  3 28  3 45 59.0800000  0  4G 6G 8G11G 9
  20504419.649    20504423.838    -8759533.339 8  -8367033.022 8
  20497509.579    20497513.870    -4085742.244 8  -4526830.586 7
  21120740.737    21120749.007   -16811875.864 8 -14461171.052 7
  22299333.302    22299336.729   -30546898.221 8  32633087.205 7
 88  3 28  3 46 29.0800000  0  4G 6G 8G11G 9
  20499307.493    20499312.710    -8786397.453 9  -8387966.100 7
  20504795.583    20504799.714    -4047452.715 8  -4496994.593 7
  21110465.046    21110471.143   -16865891.659 9 -14503261.277 7
  22282853.275    22282856.041   -30633508.466 8  32565598.736 8
 88  3 28  3 46 59.0800000  0  4G 6G 8G11G 9
  20494267.225    20494272.527    -8812882.807 8  -8408604.030 8
  20512197.474    20512202.161    -4008559.097 9  -4466687.889 6
  21100282.189    21100287.403   -16919393.935 9 -14544951.301 7
  22266391.564    22266394.905   -30720004.464 8  32498199.323 8
 88  3 28  3 47 29.0800000  0  4G 6G 8G11G 9
  20489299.616    20489305.006    -8838986.593 8  -8428944.614 8
  20519712.165    20519716.260    -3969063.522 9  -4435912.104 7
  21090201.293    21090204.287   -16972380.808 8 -14586239.758 7
  22249952.316    22249955.821   -30806383.450 8  32430891.063 7
 88  3 28  3 47 59.0800000  0  4G 6G 8G11G 9
  20484405.676    20484410.504    -8864706.966 8  -8448986.442 8
  20527341.475    20527346.538    -3928968.438 9  -4404669.169 7
  21080214.409    21080219.062   -17024851.680 7 -14627126.118 7
  22233540.841    22233542.917   -30892643.207 8  32363675.713 8
 88  3 28  3 48 29.0800000  0  4G 6G 8G11G 9
  20479585.311    20479588.794    -8890041.794 8  -8468727.838 7
  20535085.982    20535091.109    -3888276.325 8  -4372961.019 7
  21070329.364    21070332.943   -17076805.623 8 -14667609.671 7
  22217147.660    22217151.593   -30978781.580 8  32296554.928 9
 88  3 28  3 48 59.0800000  0  4G 6G 8G11G 9
  20474838.466    20474840.878    -8914988.797 8  -8488167.035 8
  20542941.524    20542945.674    -3846989.510 9  -4340789.480 7
  21060541.177    21060545.996   -17128241.500 9 -14707689.561 7
  22200780.059    22200784.740   -31064796.175 8  32229530.630 8
 88  3 28  3 49 29.0800000  0  4G 6G 8G11G 9
  20470164.714    20470167.897    -8939545.878 8  -8507302.401 9
  20550911.653    20550916.776    -3805110.402 8  -4308156.411 8
  21050851.065    21050857.478   -17179158.478 9 -14747365.097 7
  22184435.143    22184440.107   -31150684.778 8  32162604.501 8
 88  3 28  3 49 59.0800000  0  4G 6G 8G11G 9
  20465566.309    20465569.554    -8963711.002 8  -8526132.352 8
  20558994.243    20558997.557    -3762641.690 8  -4275063.913 7
  21041260.889    21041265.260   -17229555.856 8 -14786635.762 7
  22168115.746    22168120.312   -31236445.308 8  32095778.179 8
 88  3 28  3 50 29.0800000  0  4G 6G 8G11G 9
  20461041.432    20461046.476    -8987481.822 9  -8544655.069 8
  20567186.365    20567191.858    -3719585.569 8  -4241513.684 6
  21031770.246    21031774.672   -17279432.615 8 -14825500.725 7
  22151820.718    22151824.575   -31322075.173 8  32029053.636 8
 88  3 28  3 50 59.0800000  0  4G 6G 8G11G 9
  20456594.794    20456597.164    -9010856.760 8  -8562869.306 8
  20575492.286    20575495.617    -3675944.464 9  -4207507.642 6
  21022376.600    21022382.898   -17328787.851 8 -14863959.324 7
  22135551.034    22135556.609   -31407572.408 8  31962432.453 8
 88  3 28  3 51 29.0800000  0  4G 6G 8G11G 9
  20452223.138    20452225.749    -9033832.820 9  -8580772.723 8
  20583907.445    20583912.451    -3631720.636 9  -4173047.526 8
  21013086.932    21013089.370   -17377620.355 8 -14902010.609 7
  22119306.477    22119311.964   -31492934.323 9  31895916.747 7
 88  3 28  3 51 59.0800000  0  4G 6G 8G11G 9
  20447925.519    20447930.129    -9056408.392 8  -8598364.090 8
  20592432.120    20592437.421    -3586916.489 9  -4138135.200 8
  21003891.758    21003897.326   -17425929.740 9 -14939654.243 7
  22103089.848    22103095.171   -31578158.612 9  31829508.262 8
 88  3 28  3 52 29.0800000  0  4G 6G 8G11G 9
  20443706.683    20443710.209    -9078580.781 8  -8615641.270 8
  20601069.336    20601073.374    -3541534.028 9  -4102772.250 8
  20994798.082    20994804.444   -17473714.479 9 -14976889.072 8
  22086899.165    22086901.941   -31663242.701 9  31763208.999 7
 88  3 28  3 52 59.0800000  0  4G 6G 8G11G 9
  20439564.344    20439567.826    -9100348.058 8  -8632602.790 7
  20609814.345    20609818.799    -3495576.446 9  -4066961.158 8
  20985805.330    20985810.014   -17520974.108 9 -15013714.748 8
  22070734.791    22070738.391   -31748183.761 8  31697021.178 8
 88  3 28  3 53 29.0800000  0  4G 6G 8G11G 9
  20435499.531    20435504.188    -9121708.652 9  -8649247.405 8
  20618668.372    20618674.153    -3449046.700 9  -4030704.224 8
  20976913.231    20976917.481   -17567708.304 8 -15050130.970 7
  22054598.388    22054604.800   -31832980.885 8  31630945.591 9
 88  3 28  3 53 59.0800000  0  4G 6G 8G11G 9
  20431512.477    20431516.174    -9142659.947 9  -8665573.078 8
  20627632.058    20627636.492    -3401946.775 8  -3994002.986 8
  20968119.498    20968125.576   -17613915.664 8 -15086136.666 6
  22038490.624    22038495.124   -31917630.502 9  31564984.896 7
 88  3 28  3 54 29.0800000  0  4G 6G 8G11G 9
  20427604.954    20427608.038    -9163199.449 8  -8681577.890 9
  20636702.021    20636707.468    -3354279.157 8  -3956859.378 7
  20959427.762    20959432.067   -17659594.923 9 -15121730.871 7
  22022410.354    22022414.402   -32002130.150 9  31499141.028 7
 88  3 28  3 54 59.0800000  0  4G 6G 8G11G 9
  20423775.014    20423777.524    -9183325.197 9  -8697260.287 7
  20645880.745    20645885.386    -3306046.136 9  -3919275.221 8
  20950834.826    20950839.989   -17704745.838 9 -15156913.376 8
  22006359.277    22006362.353   -32086477.159 8  31433416.116 7
 88  3 28  3 55 29.0800000  0  4G 6G 8G11G 9
  20420022.459    20420028.117    -9203035.805 8  -8712619.192 7
  20655165.203    20655170.568    -3257251.092 9  -3881253.107 8
  20942344.831    20942348.895   -17749368.014 9 -15191683.889 7
  21990339.263    21990344.032   -32170670.224 9  31367811.175 7
 88  3 28  3 55 59.0800000  0  4G 6G 8G11G 9
  20416351.923    20416357.050    -9222328.462 8  -8727652.420 7
  20664557.947    20664562.646    -3207896.290 9  -3842794.821 8
  20933953.525    20933959.075   -17793460.364 8 -15226041.530 8
  21974348.234    21974351.820   -32254705.863 9  31302328.907 9
 88  3 28  3 56 29.0800000  0  4G 6G 8G11G 9
  20412762.634    20412765.180    -9241201.800 8  -8742358.922 7
  20674056.038    20674060.532    -3157985.144 9  -3803903.037 8
  20925664.072    20925667.424   -17837023.015 8 -15259986.428 7
  21958385.958    21958388.432   -32338582.434 8  31236970.585 8
 88  3 28  3 56 59.0800000  0  4G 6G 8G11G 9
  20409249.585    20409253.144    -9259653.207 9  -8756736.620 7
  20683658.391    20683664.571    -3107519.359 8  -3764579.055 8
  20917475.745    20917480.597   -17880054.506 8 -15293517.435 7
  21942454.798    21942459.464   -32422296.900 8  31171738.584 8
 88  3 28  3 57 29.0800000  0  4G 6G 8G11G 9
  20405819.103    20405823.074    -9277681.103 8  -8770784.343 7
  20693367.589    20693372.339    -3056502.139 9  -3724825.370 8
  20909387.913    20909391.420   -17922554.684 8 -15326634.430 6
  21926556.242    21926559.424   -32505847.363 9  31106634.360 7
 88  3 28  3 57 59.0800000  0  4G 6G 8G11G 9
  20402469.665    20402474.567    -9295283.257 8  -8784500.284 8
  20703179.150    20703183.870    -3004936.218 8  -3684644.151 8
  20901401.650    20901405.355   -17964523.027 9 -15359336.988 7
  21910690.110    21910693.294   -32589231.256 9  31041659.925 8
 88  3 28  3 58 29.0800000  0  3G 6G11G 9
  20399200.260    20399204.804    -9312457.524 9  -8797882.818 8
  20893516.513    20893522.092   -18005958.695 8 -15391624.511 7
  21894854.492    21894857.209   -32672445.443 8  30976817.769 8
 88  3 28  3 58 59.0800000  0  4G 6G13G11G 9
  20396013.051    20396017.897    -9329201.864 8  -8810930.342 8
  23875221.126    23875227.653   -38390676.923 8  48717010.568 8
  20885734.015    20885736.979   -18046860.911 8 -15423496.341 7
  21879052.229    21879055.605   -32755487.963 9  30912109.386 9
 88  3 28  3 59 29.0800000  0  4G 6G13G11G 9
  20392911.420    20392914.158    -9345514.209 8  -8823641.263 7
  23854179.803    23854186.071   -38501250.240 7  48630849.114 7
  20878051.092    20878055.140   -18087229.364 8 -15454952.260 7
  21863282.577    21863285.618   -32838355.969 8  30847536.930 8
 88  3 28  3 59 59.0800000  0  4G 6G13G11G 9
  20389890.387    20389891.888    -9361392.409 8  -8836013.874 7
  23833179.177    23833187.950   -38611606.929 7  48544856.973 8
  20870471.117    20870476.181   -18127063.189 8 -15485991.596 7
  21847545.698    21847551.080   -32921046.779 8  30783102.562 9
 88  3 28  4  0 29.0800000  0  4G 6G13G11G 9
  20386951.022    20386954.375    -9376834.644 9  -8848046.774 8
  23812219.674    23812227.101   -38721745.171 7  48459035.073 8
  20862992.275    20862995.758   -18166362.415 7 -15516614.355 7
  21831844.699    21831848.831   -33003558.491 9  30718807.814 9
 88  3 28  4  0 59.0800000  0  4G 6G13G11G 9
  20384095.811    20384097.773    -9391839.253 8  -8859738.672 7
  23791302.784    23791311.449   -38831662.184 7  48373385.510 7
  20855616.166    20855619.815   -18205126.598 7 -15546820.186 8
  21816179.372    21816182.356   -33085888.411 9  30654654.695 8
 88  3 28  4  1 29.0800000  0  4G 6G13G11G 9
  20381324.492    20381327.570    -9406403.460 7  -8871087.401 7
  23770429.613    23770437.177   -38941354.676 8  48287910.922 6
  20848341.217    20848344.735   -18243355.244 8 -15576608.731 8
  21800547.293    21800550.259   -33168033.465 9  30590645.572 7
 88  3 28  4  1 59.0800000  0  4G 6G13G11G 9
  20378634.317    20378639.399    -9420525.791 1  -8882091.821 1
  23749599.779    23749606.424   -39050821.441 8  48202612.193 8
  20841169.404    20841174.008   -18281047.557 7 -15605979.338 8
  21784949.416    21784954.277   -33249991.360 8  30526782.303 8
 88  3 28  4  2 29.0800000  0  4G 6G13G11G 9
  20376034.588    20376037.609    -9434204.076 9  -8892750.223 8
  23728811.896    23728818.529   -39160059.912 8  48117491.361 7
  20834098.923    20834102.760   -18318203.381 8 -15634931.909 8
  21769391.142    21769394.836   -33331759.185 9  30463067.200 8
 88  3 28  4  2 59.0800000  0  4G 6G13G11G 9
  20373515.535    20373519.132    -9447436.799 8  -8903061.449 7
  23708068.808    23708075.511   -39269067.796 8  48032550.198 4
  20827130.046    20827133.773   -18354822.509 8 -15663466.284 6
  21753866.742    21753870.229   -33413335.006 9  30399501.662 7
 88  3 28  4  3 29.0800000  0  4G 6G13G11G 9
  20371082.500    20371086.687    -9460222.003 9  -8913023.954 7
  23687370.189    23687375.833   -39377843.262 7  47947790.156 6
  20820263.170    20820266.985   -18390904.748 9 -15691582.302 7
  21738378.573    21738384.614   -33494716.383 8  30336087.654 7
 88  3 28  4  3 59.0800000  0  4G 6G13G11G 9
  20368735.815    20368739.070    -9472557.671 8  -8922636.163 6
  23666715.704    23666721.201   -39486382.839 9  47863213.900 7
  20813499.960    20813503.493   -18426449.487 9 -15719279.477 6
  21722932.194    21722934.444   -33575900.194 9  30272827.603 8
 88  3 28  4  4 29.0800000  0  4G 6G13G11G 9
  20366474.452    20366475.925    -9484441.788 9  -8931896.510 8
  23646105.236    23646111.400   -39594685.304 8  47778822.483 8
  20806837.945    20806842.253   -18461456.551 9 -15746557.699 7
  21707522.018    21707524.803   -33656884.108 9  30209723.273 8
 88  3 28  4  4 59.0800000  0  4G 6G13G11G 9
  20364299.803    20364301.290    -9495871.747 9  -8940802.970 7
  23625541.898    23625548.646   -39702746.768 8  47694618.833 7
  20800278.813    20800282.432   -18495924.902 8 -15773416.144 6
  21692147.351    21692150.989   -33737664.592 7  30146777.494 9
 88  3 28  4  5 29.0800000  0  4G 6G13G11G 9
  20362210.838    20362213.223    -9506846.230 9  -8949354.511 7
  23605023.930    23605030.843   -39810565.624 8  47610604.206 7
  20793822.023    20793826.212   -18529854.967 8 -15799855.131 7
  21676815.390    21676820.942   -33818239.806 9  30083991.674 7
 88  3 28  4  5 59.0800000  0  4G 6G13G11G 9
  20360209.187    20360211.580    -9517363.614 9  -8957549.864 8
  23584552.113    23584559.985   -39918139.934 7  47526780.170 7
  20787468.142    20787471.304   -18563246.563 8 -15825874.527 7
  21661523.455    21661525.139   -33898607.290 9  30021367.651 6
 88  3 28  4  6 29.0800000  0  4G 6G13G11G 9
  20358295.313    20358297.722    -9527422.046 9  -8965387.608 7
  23564130.436    23564135.771   -40025467.418 7  47443148.481 8
  20781214.592    20781221.522   -18596099.789 8 -15851474.421 7
  21646267.997    21646272.343   -33978764.434 8  29958907.588 8
 88  3 28  4  6 59.0800000  0  4G 6G13G11G 9
  20356468.061    20356470.775    -9537019.441 9  -8972866.099 8
  23543752.763    23543759.074   -40132545.161 8  47359711.332 7
  20775065.395    20775072.808   -18628413.993 8 -15876654.308 6
  21631057.321    21631059.377   -34058708.425 8  29896613.662 8
 88  3 28  4  7 29.0800000  0  4G 6G13G11G 9
  20354730.553    20354733.004    -9546153.776 9  -8979983.755 7
  23523425.481    23523432.926   -40239371.610 8  47276470.055 8
  20769019.933    20769024.584   -18660188.766 9 -15901413.862 8
  21615884.447    21615886.838   -34138436.269 8  29834488.066 7
 88  3 28  4  7 59.0800000  0  4G 6G13G11G 9
  20353080.599    20353085.825    -9554823.385 8  -8986739.287 8
  23503145.852    23503151.772   -40345943.863 8  47193426.826 8
  20763075.695    20763082.152   -18691424.187 7 -15925753.114 6
  21600753.333    21600758.266   -34217945.503 9  29772532.860 7
 88  3 28  4  8 29.0800000  0  4G 6G13G11G 9
  20351520.038    20351522.844    -9563026.599 9  -8993131.413 7
  23482913.645    23482921.138   -40452260.044 9  47110583.138 7
  20757235.462    20757239.500   -18722120.503 8 -15949672.305 7
  21585666.181    21585671.206   -34297233.588 9  29710749.981 8
 88  3 28  4  8 59.0800000  0  4G 6G13G11G 9
  20350048.072    20350051.761    -9570761.496 8  -8999158.569 8
  23462731.729    23462737.233   -40558317.583 8  47027941.015 8
  20751496.157    20751501.540   -18752277.207 7 -15973171.001 7
  21570621.826    21570623.384   -34376297.764 8  29649141.561 7
 88  3 28  4  9 29.0800000  0  4G 6G13G11G 9
  20348665.860    20348668.014    -9578026.530 8  -9004819.627 7
  23442598.220    23442605.090   -40664114.175 7  46945502.175 7
  20745858.968    20745864.395   -18781894.827 8 -15996249.668 7
  21555617.066    21555622.446   -34455135.631 8  29587709.475 8
 88  3 28  4  9 59.0800000  0  4G 6G13G11G 9
  20347372.783    20347376.775    -9584819.508 9  -9010112.846 8
  23422517.212    23422522.834   -40769647.518 8  46863268.494 7
  20740326.061    20740331.275   -18810972.826 7 -16018907.823 7
  21540659.515    21540665.250   -34533744.028 9  29526456.236 8
 88  3 28  4 10 29.0800000  0  4G 6G13G11G 9
  20346169.430    20346174.462    -9591138.577 8  -9015036.791 6
  23402485.152    23402490.475   -40874915.494 8  46781241.570 7
  20734895.067    20734902.083   -18839511.246 8 -16041145.519 7
  21525745.620    21525749.785   -34612120.351 9  29465383.816 8
 88  3 28  4 10 59.0800000  0  4G 6G13G11G 9
  20345057.862    20345063.039    -9596982.342 9  -9019590.362 6
  23382503.784    23382509.304   -40979916.244 9  46699422.857 7
  20729566.042    20729573.283   -18867510.093 8 -16062962.787 6
  21510873.984    21510878.101   -34690261.759 9  29404494.448 8
 88  3 28  4 11 29.0800000  0  4G 6G13G11G 9
  20344035.664    20344039.824    -9602348.925 8  -9023772.110 7
  23362574.815    23362581.443   -41084646.569 8  46617814.868 8
  20724342.702    20724346.608   -18894969.170 8 -16084359.454 8
  21496051.609    21496054.364   -34768165.867 9  29343789.957 7
 88  3 28  4 11 59.0800000  0  4G 6G13G11G 9
  20343105.878    20343111.119    -9607236.626 9  -9027580.716 7
  23342696.277    23342701.118   -41189104.967 8  46536418.748 7
  20719218.097    20719224.780   -18921888.707 7 -16105335.682 7
  21481272.933    21481275.818   -34845829.739 9  29283272.665 9
 88  3 28  4 12 29.0800000  0  4G 6G13G11G 9
  20342267.754    20342271.083    -9611644.042 9  -9031015.049 7
  23322870.793    23322876.607   -41293289.056 7  46455236.421 7
  20714200.780    20714204.232   -18948268.878 8 -16125891.652 8
  21466536.610    21466542.580   -34923250.934 8  29222944.513 8
 88  3 28  4 12 59.0800000  0  4G 6G13G11G 9
  20341521.317    20341524.557    -9615569.268 9  -9034073.642 7
  23303096.431    23303103.955   -41397197.039 7  46374269.262 7
  20709281.740    20709287.520   -18974109.632 8 -16146027.256 7
  21451854.488    21451856.529   -35000426.949 9  29162807.388 8
 88  3 28  4 13 29.0800000  0  4G 6G13G11G 9
  20340867.310    20340868.347    -9619010.469 9  -9036755.099 8
  23283378.378    23283384.007   -41500826.254 8  46293519.292 7
  20704468.159    20704473.383   -18999411.059 8 -16165742.644 7
  21437213.944    21437217.768   -35077354.288 8  29102863.990 8
 88  3 28  4 13 59.0800000  0  4G 6G13G11G 9
  20340303.499    20340306.819    -9621966.289 9  -9039058.328 8
  23263712.838    23263717.690   -41604174.668 8  46212988.115 6
  20699754.940    20699759.350   -19024173.871 8 -16185038.328 7
  21422623.884    21422625.360   -35154030.790 9  29043116.154 8
 88  3 28  4 14 29.0800000  0  4G 6G13G11G 9
  20339834.037    20339836.216    -9624435.299 9  -9040982.222 8
  23244099.359    23244103.983   -41707240.278 7  46132677.281 7
  20695147.497    20695151.579   -19048398.183 7 -16203914.389 8
  21408082.184    21408082.954   -35230453.582 9  28983565.924 7
 88  3 28  4 14 59.0800000  0  4G 6G13G11G 9
  20339457.995    20339460.669    -9626415.526 9  -9042525.269 7
  23224540.103    23224545.675   -41810020.570 8  46052588.811 9
  20690639.044    20690643.968   -19072083.794 8 -16222370.682 7
  21393586.122    21393590.458   -35306620.437 9  28924215.136 8
 88  3 28  4 15 29.0800000  0  4G 6G13G11G 9
  20339173.901    20339177.341    -9627905.579 9  -9043686.372 7
  23205037.021    23205041.450   -41912513.901 8  45972723.945 7
  20686235.221    20686237.411   -19095230.880 7 -16240407.368 6
  21379141.737    21379145.315   -35382527.813 8  28865066.594 8
 88  3 28  4 15 59.0800000  0  4G 6G13G11G 9
  20338983.991    20338987.776    -9628903.283 9  -9044463.793 7
  23185587.499    23185593.806   -42014717.568 8  45893084.786 7
  20681931.364    20681937.028   -19117839.440 8 -16258024.424 7
  21364748.258    21364750.542   -35458172.997 9  28806122.291 8
 88  3 28  4 16 29.0800000  0  4G 6G13G11G 9
  20338888.794    20338892.155    -9629407.463 9  -9044856.665 8
  23166193.884    23166199.600   -42116629.586 8  45813672.902 7
  20677733.360    20677736.080   -19139910.096 8 -16275222.300 7
  21350401.505    21350406.330   -35533553.556 9  28747384.224 8
 88  3 28  4 16 59.0800000  0  4G 6G13G11G 9
  20338886.137    20338890.550    -9629416.491 8  -9044863.695 7
  23146856.530    23146863.719   -42218247.921 7  45734489.840 7
  20673634.610    20673637.373   -19161442.833 8 -16292001.052 7
  21336109.300    21336111.398   -35608666.115 8  28688854.973 8
 88  3 28  4 17 29.0800000  0  4G 6G13G11G 9
  20338979.819    20338982.885    -9628928.550 9  -9044483.486 7
  23127575.698    23127582.010   -42319570.193 8  45655537.465 8
  20669638.194    20669643.478   -19182437.911 7 -16308360.829 7
  21321867.468    21321869.487   -35683508.208 9  28630536.444 8
 88  3 28  4 17 59.0800000  0  4G 6G13G11G 9
  20339167.173    20339169.677    -9627942.662 8  -9043715.271 7
  23108350.724    23108357.498   -42420594.657 9  45576817.147 8
  20665746.125    20665749.563   -19202896.447 7 -16324302.523 6
  21307676.163    21307679.849   -35758077.718 8  28572430.413 8
 88  3 28  4 18 29.0800000  0  4G 6G13G11G 9
  20339449.021    20339452.052    -9626457.433 9  -9042557.932 7
  23089182.197    23089190.147   -42521319.532 9  45498330.278 7
  20661953.447    20661959.086   -19222818.648 8 -16339826.286 7
  21293540.077    21293541.634   -35832371.448 9  28514539.168 7
 88  3 28  4 18 59.0800000  0  4G 6G13G11G 9
  20339826.428    20339830.628    -9624470.914 8  -9041009.993 7
  23070074.342    23070079.113   -42621742.119 7  45420078.962 8
  20658266.541    20658270.364   -19242204.085 8 -16354931.808 7
  21279453.909    21279458.409   -35906386.282 9  28456865.267 8
 88  3 28  4 19 29.0800000  0  4G 6G13G11G 9
  20340301.928    20340304.851    -9621981.729 9  -9039070.373 7
  23051021.108    23051028.226   -42721860.139 9  45342064.956 7
  20654678.514    20654682.581   -19261053.631 8 -16369619.748 7
  21265423.926    21265426.946   -35980119.618 8  28399410.810 8
 88  3 28  4 19 59.0800000  0  4G 6G13G11G 9
  20340869.924    20340874.363    -9618988.298 9  -9036737.834 7
  23032028.482    23032034.895   -42821672.266 8  45264289.325 8
  20651193.827    20651199.241   -19279367.687 8 -16383890.428 7
  21251447.953    21251450.452   -36053568.414 9  28342177.940 8
 88  3 28  4 20 29.0800000  0  4G 6G13G11G 9
  20341536.325    20341540.116    -9615489.017 9  -9034011.113 6
  23013092.535    23013099.570   -42921175.671 8  45186754.267 8
  20647810.623    20647814.258   -19297146.309 7 -16397743.893 7
  21237523.185    21237528.906   -36126729.788 9  28285169.117 8
 88  3 28  4 20 59.0800000  0  4G 6G13G11G 9
  20342298.690    20342302.952    -9611482.655 9  -9030889.259 7
  22994218.394    22994222.968   -43020368.749 8  45109460.995 7
  20644529.956    20644534.280   -19314390.436 8 -16411180.845 7
  21223657.086    21223661.933   -36199601.451 9  28228386.040 8
 88  3 28  4 21 29.0800000  0  4G 6G13G11G 9
  20343158.102    20343162.110    -9606967.829 9  -9027371.206 7
  22975400.929    22975406.573   -43119249.075 8  45032411.442 7
  20641349.312    20641354.320   -19331100.318 8 -16424201.516 7
  21209845.009    21209849.823   -36272180.229 8  28171831.155 8
 88  3 28  4 21 59.0800000  0  4G 6G13G11G 9
  20344112.940    20344118.419    -9601943.428 9  -9023456.079 7
  22956644.727    22956651.351   -43217814.886 7  44955606.957 7
  20638271.834    20638275.857   -19347276.490 8 -16436806.317 6
  21196091.903    21196093.973   -36344463.648 9  28115506.451 8
 88  3 28  4 22 29.0800000  0  4G 6G13G11G 9
  20345167.306    20345171.096    -9596407.772 9  -9019142.575 8
  22937948.878    22937954.118   -43316063.919 7  44879049.306 7
  20635294.838    20635299.718   -19362919.736 8 -16448995.835 7
  21182392.934    21182397.172   -36416448.626 9  28059414.267 8
 88  3 28  4 22 59.0800000  0  4G 6G13G11G 9
  20346318.737    20346322.146    -9590359.294 8  -9014429.472 8
  22919312.989    22919318.210   -43413994.520 7  44802739.779 7
  20632418.351    20632421.298   -19378030.162 7 -16460770.193 6
  21168752.242    21168754.896   -36488131.923 9  28003557.209 9
 88  3 28  4 23 29.0800000  0  4G 6G13G11G 9
  20347567.785    20347570.362    -9583797.062 9  -9009316.025 7
  22900738.575    22900743.443   -43511604.865 8  44726679.845 7
  20629645.345    20629649.882   -19392608.630 8 -16472130.021 7
  21155170.256    21155172.865   -36559511.392 8  27947936.846 8
 88  3 28  4 23 59.0800000  0  4G 6G13G11G 9
  20348914.010    20348918.574    -9576719.017 8  -9003800.674 7
  22882226.446    22882229.719   -43608892.183 8  44650871.570 8
  20626971.216    20626977.369   -19406654.834 8 -16483075.091 6
  21141641.924    21141647.559   -36630583.494 8  27892555.997 8
 88  3 28  4 24 29.0800000  0  4G 6G13G11G 9
  20350359.432    20350361.822    -9569124.082 8  -8997882.543 7
  22863774.131    22863780.550   -43705854.719 9  44575316.363 7
  20624400.054    20624404.651   -19420169.670 9 -16493606.111 6
  21128178.699    21128180.003   -36701345.281 9  27837416.989 8
 88  3 28  4 24 59.0800000  0  4G 6G13G11G 9
  20351903.036    20351906.826    -9561011.705 9  -8991561.228 8
  22845384.460    22845390.585   -43802491.338 7  44500015.145 7
  20621930.176    20621932.714   -19433154.873 8 -16503724.446 7
  21114773.050    21114776.034   -36771794.974 8  27782521.096 8
 88  3 28  4 25 29.0800000  0  4G 6G13G11G 9
  20353545.032    20353548.479    -9552380.589 8  -8984835.668 7
  22827058.149    22827063.727   -43898799.751 8  44424969.676 8
  20619558.974    20619562.853   -19445610.694 9 -16513430.263 6
  21101424.717    21101429.250   -36841929.420 8  27727870.923 7
 88  3 28  4 25 59.0800000  0  4G 6G13G11G 9
  20355285.630    20355288.248    -9543229.292 8  -8977704.800 7
  22808792.973    22808799.781   -43994777.537 9  44350181.804 8
  20617288.593    20617292.872   -19457537.902 8 -16522724.185 6
  21088142.714    21088143.102   -36911745.593 9  27673468.724 7
 88  3 28  4 26 29.0800000  0  4G 6G13G11G 9
  20357128.395    20357131.567    -9533556.191 9  -8970167.299 7
  22790592.947    22790599.104   -44090422.953 8  44275652.954 8
  20615120.063    20615122.958   -19468936.598 8 -16531606.272 6
  21074915.786    21074918.799   -36981240.463 8  27619316.861 7
 88  3 28  4 26 59.0800000  0  4G 6G13G11G 9
  20359068.038    20359070.453    -9523360.000 7  -8962222.214 7
  22772455.880    22772461.385   -44185734.145 8  44201384.540 8
  20613051.702    20613056.197   -19479807.425 8 -16540077.035 6
  21061752.888    21061756.903   -37050411.005 8  27565417.783 8
 88  3 28  4 27 29.0800000  0  4G 6G13G11G 9
  20361108.023    20361111.478    -9512640.085 9  -8953869.043 7
  22754381.399    22754388.814   -44280709.553 6  44127377.752 7
  20611084.160    20611087.296   -19490151.917 9 -16548137.664 6
  21048653.313    21048654.855   -37119254.931 9  27511773.169 8
 88  3 28  4 27 59.0800000  0  4G 6G13G11G 9
  20363248.739    20363250.381    -9501395.353 8  -8945106.905 7
  22736373.359    22736379.923   -44375347.408 8  44053634.005 8
  20609215.096    20609218.247   -19499970.873 8 -16555788.791 6
  21035613.016    21035618.022   -37187769.535 8  27458385.189 8
 88  3 28  4 28 29.0800000  0  4G 6G13G11G 9
  20365488.189    20365491.729    -9489624.255 9  -8935934.617 7
  22718430.553    22718434.097   -44469645.201 8  43980155.239 7
  20607446.138    20607450.189   -19509264.519 8 -16563030.585 7
  21022639.859    21022644.084   -37255951.520 9  27405256.381 8
 88  3 28  4 28 59.0800000  0  4G 6G13G11G 9
  20367828.753    20367831.139    -9477325.895 8  -8926351.486 8
  22700550.747    22700555.494   -44563601.632 8  43906942.477 7
  20605776.717    20605780.824   -19518033.619 7 -16569863.646 6
  21009729.077    21009732.622   -37323798.093 9  27352388.945 7
 88  3 28  4 29 29.0800000  0  4G 6G13G11G 9
  20370267.870    20370271.546    -9464498.842 9  -8916356.387 8
  22682735.751    22682741.448   -44657214.224 8  43833997.642 8
  20604206.827    20604210.547   -19526278.805 8 -16576288.463 6
  20996884.269    20996886.667   -37391306.322 9  27299785.143 8
 88  3 28  4 29 59.0800000  0  4G 6G13G11G 9
  20372810.462    20372814.181    -9451142.464 8  -8905948.806 6
  22664988.619    22664992.715   -44750481.441 9  43761321.924 7
  20602739.736    20602742.700   -19534001.373 8 -16582306.042 6
  20984099.532    20984105.026   -37458473.717 8  27247446.917 8
 88  3 28  4 30 29.0800000  0  4G 6G13G11G 9
  20375453.232    20375456.898    -9437255.544 9  -8895127.833 7
  22647304.971    22647310.849   -44843401.401 8  43688916.766 7
  20601368.317    20601371.021   -19541202.325 8 -16587917.165 7
  20971385.080    20971387.895   -37525297.395 8  27195376.565 8
 88  3 28  4 30 59.0800000  0  4G 6G13G11G 9
  20378195.976    20378199.544    -9422837.069 8  -8883892.672 7
  22629690.226    22629697.432   -44935972.535 9  43616783.438 8
  20600096.858    20600100.512   -19547882.169 8 -16593122.231 6
  20958733.646    20958737.650   -37591774.071 8  27143576.539 8
 88  3 28  4 31 29.0800000  0  4G 6G13G11G 9
  20381042.513    20381045.426    -9407885.484 9  -8872242.081 8
  22612142.775    22612146.593   -45028192.368 8  43544923.871 7
  20598925.169    20598929.221   -19554041.436 8 -16597921.676 6
  20946151.104    20946155.963   -37657900.989 8  27092049.119 7
 88  3 28  4 31 59.0800000  0  4G 6G13G11G 9
  20383989.221    20383991.158    -9392400.065 8  -8860175.499 7
  22594659.434    22594664.497   -45120059.576 8  43473339.050 8
  20597852.582    20597854.485   -19559681.783 9 -16602316.710 6
  20933635.340    20933638.340   -37723675.067 8  27040796.597 8
 88  3 28  4 32 29.0800000  0  4G 6G13G11G 9
  20387036.670    20387041.095    -9376380.135 9  -8847692.441 7
  22577244.903    22577249.262   -45211572.645 8  43402030.194 7
  20596876.438    20596878.928   -19564804.075 8 -16606308.109 6
  20921186.375    20921189.648   -37789093.985 8  26989820.837 7
 88  3 28  4 32 59.0800000  0  4G 6G13G11G 9
  20390188.968    20390190.641    -9359824.820 9  -8834792.200 7
  22559899.888    22559903.225   -45302729.658 8  43330998.803 8
  20596000.688    20596005.829   -19569409.084 8 -16609896.424 6
  20908806.105    20908809.220   -37854154.742 9  26939124.168 6
 88  3 28  4 33 29.0800000  0  4G 6G13G11G 9
  20393440.838    20393443.944    -9342732.805 8  -8821473.756 8
  22542620.418    22542625.913   -45393528.680 8  43260246.338 7
  20595223.131    20595224.003   -19573497.975 8 -16613082.565 6
  20896493.648    20896496.965   -37918854.576 7  26888708.731 8
 88  3 28  4 33 59.0800000  0  4G 6G13G11G 9
  20396794.654    20396796.985    -9325103.035 8  -8807736.276 7
  22525409.905    22525415.859   -45483967.995 8  43189774.181 8
  20594542.501    20594546.182   -19577071.425 9 -16615867.050 6
  20884251.956    20884254.586   -37983190.290 9  26838577.015 8
 88  3 28  4 34 29.0800000  0  4G 6G13G11G 9
  20400253.275    20400256.922    -9306935.015 9  -8793579.375 8
  22508267.813    22508273.344   -45574045.910 8  43119583.632 7
  20593959.833    20593964.384   -19580130.500 8 -16618250.728 6
  20872078.346    20872082.428   -38047159.150 9  26788731.172 7
 88  3 28  4 34 59.0800000  0  4G 6G13G11G 9
  20403812.365    20403814.998    -9288227.346 8  -8779001.973 8
  22491197.422    22491201.415   -45663760.425 8  43049676.243 7
  20593475.810    20593478.546   -19582676.072 7 -16620234.285 6
  20859976.249    20859978.307   -38110758.111 8  26739173.549 8
 88  3 28  4 35 29.0800000  0  4G 6G13G11G 9
  20407473.822    20407478.120    -9268979.496 9  -8764003.655 6
  22474194.185    22474199.519   -45753110.307 8  42980053.012 7
  20593090.698    20593092.286   -19584709.392 8 -16621818.689 6
  20847943.794    20847947.508   -38173984.399 8  26689906.292 8
 88  3 28  4 35 59.0800000  0  4G 6G13G11G 9
  20411240.801    20411243.939    -9249190.610 8  -8748583.759 7
  22457260.848    22457268.150   -45842093.399 8  42910715.522 8
  20592799.876    20592803.240   -19586231.477 8 -16623004.719 6
  20835983.808    20835988.503   -38236835.381 8  26640931.520 8
 88  3 28  4 36 29.0800000  0  4G 6G13G11G 9
  20415109.634    20415114.131    -9228859.786 9  -8732741.545 7
  22440397.926    22440402.845   -45930708.597 7  42841664.785 8
  20592606.877    20592609.553   -19587243.490 8 -16623793.301 7
  20824095.867    20824098.896   -38299307.952 9  26592251.580 7
 88  3 28  4 36 59.0800000  0  4G 6G13G11G 9
  20419082.644    20419084.394    -9207986.321 8  -8716476.511 8
  22423604.999    22423609.688   -46018953.989 7  42772902.199 8
  20592511.120    20592514.002   -19587746.746 8 -16624185.455 6
  20812281.206    20812283.683   -38361399.460 8  26543868.603 8
 88  3 28  4 37 29.0800000  0  4G 6G13G11G 9
  20423156.027    20423160.845    -9186569.555 9  -8699788.115 8
  22406883.567    22406889.097   -46106827.866 9  42704429.070 7
  20592512.841    20592516.937   -19587742.226 8 -16624181.911 6
  20800538.245    20800541.514   -38423107.039 8  26495784.801 8
 88  3 28  4 37 59.0800000  0  4G 6G13G11G 9
  20427336.725    20427339.857    -9164608.616 9  -8682675.712 7
  22390232.227    22390239.890   -46194328.948 7  42636246.445 7
  20592609.687    20592613.652   -19587231.276 9 -16623783.782 7
  20788868.966    20788872.102   -38484427.905 8  26448002.315 7
 88  3 28  4 38 29.0800000  0  4G 6G13G11G 9
  20431618.456    20431622.967    -9142103.181 9  -8665139.030 7
  22373651.234    22373657.041   -46281455.728 9  42568355.481 7
  20592803.033    20592807.056   -19586215.242 8 -16622992.055 6
  20777274.114    20777276.684   -38545359.610 9  26400523.068 8
 88  3 28  4 38 59.0800000  0  4G 6G13G11G 9
  20436005.241    20436006.410    -9119052.088 8  -8647177.128 7
  22357144.598    22357149.936   -46368206.206 9  42500757.749 7
  20593091.481    20593096.091   -19584694.721 7 -16621807.248 5
  20765753.886    20765756.983   -38605898.625 8  26353349.824 8
 88  3 28  4 39 29.0800000  0  4G 6G13G11G 9
  20440496.230    20440499.236    -9095454.815 8  -8628789.651 7
  22340707.993    22340713.083   -46454578.955 8  42433454.325 7
  20593478.176    20593481.425   -19582671.310 8 -16620230.571 7
  20754308.445    20754312.372   -38666042.613 8  26306484.375 8
 88  3 28  4 39 59.0800000  0  4G 6G13G11G 9
  20445090.238    20445094.543    -9071310.814 8  -8609976.152 7
  22324345.104    22324350.006   -46540572.191 8  42366446.631 8
  20593957.420    20593962.145   -19580146.295 8 -16618263.005 7
  20742940.048    20742942.463   -38725788.510 8  26259929.146 8
 88  3 28  4 40 29.0800000  0  4G 6G13G11G 9
  20449788.059    20449792.824    -9046619.658 9  -8590736.288 7
  22308052.489    22308058.584   -46626184.334 8  42299735.923 7
  20594533.253    20594536.828   -19577121.045 7 -16615905.680 7
  20731645.974    20731650.772   -38785133.645 8  26213686.187 8
 88  3 28  4 40 59.0800000  0  4G 6G13G11G 9
  20454592.305    20454596.207    -9021380.525 8  -8571069.443 7
  22291834.824    22291841.207   -46711414.279 9  42233323.001 8
  20595204.039    20595206.790   -19573596.755 8 -16613159.457 8
  20720428.377    20720432.898   -38844075.563 8  26167757.438 7
 88  3 28  4 41 29.0800000  0  4G 6G13G11G 9
  20459498.976    20459501.589    -8995592.909 8  -8550975.199 7
  22275688.625    22275693.913   -46796260.906 8  42167208.780 7
  20595969.038    20595973.564   -19569574.643 8 -16610025.359 6
  20709290.690    20709294.221   -38902611.032 8  26122145.403 7
 88  3 28  4 41 59.0800000  0  4G 6G13G11G 9
  20464511.374    20464514.417    -8969256.120 8  -8530453.049 7
  22259615.361    22259620.588   -46880722.177 8  42101394.828 7
  20596830.140    20596833.049   -19565055.911 8 -16606504.280 6
  20698229.440    20698233.579   -38960737.253 8  26076852.249 7
 88  3 28  4 42 29.0800000  0  4G 6G13G11G 9
  20469626.629    20469629.406    -8942369.857 9  -8509502.732 7
  22243615.882    22243623.042   -46964796.922 8  42035882.061 7
  20597782.649    20597787.053   -19560041.994 8 -16602597.334 6
  20687247.080    20687251.736   -39018451.508 8  26031880.099 7
 88  3 28  4 42 59.0800000  0  4G 6G13G11G 9
  20474848.298    20474850.340    -8914932.954 8  -8488123.343 8
  22227692.429    22227696.438   -47048482.940 9  41970672.220 7
  20598831.314    20598835.176   -19554534.052 7 -16598305.431 7
  20676341.408    20676347.222   -39075750.445 9  25987231.579 7
 88  3 28  4 43 29.0800000  0  4G 6G13G11G 9
  20480174.355    20480178.314    -8886945.184 9  -8466314.696 7
  22211842.112    22211847.705   -47131778.976 9  41905766.244 7
  20599973.989    20599974.405   -19548533.259 8 -16593629.499 7
  20665520.051    20665522.862   -39132631.675 8  25942908.558 7
 88  3 28  4 43 59.0800000  0  4G 6G13G11G 9
  20485604.200    20485608.503    -8858406.313 8  -8444076.638 7
  22196065.197    22196070.147   -47214683.510 8  41841165.329 7
  20601209.418    20601210.939   -19542041.255 9 -16588570.783 7
  20654774.519    20654779.189   -39189092.391 9  25898913.208 8
 88  3 28  4 44 29.0800000  0  4G 6G13G11G 9
  20491140.120    20491144.278    -8829315.430 8  -8421408.429 7
  22180362.984    22180368.989   -47297194.963 8  41776870.715 7
  20602537.084    20602541.324   -19535058.991 8 -16583130.040 8
  20644111.181    20644115.750   -39245129.680 8  25855247.783 7
 88  3 28  4 44 59.0800000  0  4G 6G13G11G 9
  20496781.433    20496784.176    -8799672.486 9  -8398310.022 8
  22164736.783    22164743.345   -47379312.314 7  41712883.208 9
  20603958.962    20603964.471   -19527588.329 8 -16577308.755 7
  20633529.048    20633534.290   -39300740.907 7  25811914.319 7
 88  3 28  4 45 29.0800000  0  4G 6G13G11G 9
  20502527.277    20502530.996    -8769477.058 9  -8374781.156 7
  22149186.463    22149192.253   -47461034.162 9  41649203.883 8
  20605473.962    20605476.684   -19519630.833 8 -16571108.099 6
  20623027.104    20623032.213   -39355923.243 8  25768915.102 8
 88  3 28  4 45 59.0800000  0  4G 6G13G11G 9
  20508378.160    20508383.055    -8738728.510 8  -8350821.252 8
  22133710.151    22133715.688   -47542359.083 8  41585833.840 7
  20607080.371    20607083.507   -19511187.417 9 -16564528.799 6
  20612607.679    20612612.472   -39410673.638 8  25726252.443 7
 88  3 28  4 46 29.0800000  0  4G 6G13G11G 9
  20514334.532    20514338.836    -8707426.713 8  -8326430.269 8
  22118310.149    22118316.267   -47623285.780 8  41522774.122 9
  20608779.618    20608781.850   -19502259.983 8 -16557572.364 7
  20602273.636    20602276.942   -39464989.963 7  25683928.035 7
 88  3 28  4 46 59.0800000  0  4G 6G13G11G 9
  20520396.020    20520401.132    -8675571.581 9  -8301608.104 8
  22102986.177    22102992.370   -47703813.104 8  41460025.574 7
  20610568.698    20610572.980   -19492849.983 8 -16550239.906 7
  20592022.177    20592023.185   -39518869.115 9  25641944.255 8
 88  3 28  4 47 29.0800000  0  4G 6G13G11G 9
  20526565.144    20526568.114    -8643162.922 8  -8276354.608 7
  22087739.945    22087744.500   -47783939.726 8  41397589.267 7
  20612452.046    20612454.093   -19482959.401 8 -16542532.953 7
  20581851.807    20581854.927   -39572308.812 8  25600302.916 8
 88  3 28  4 47 59.0800000  0  4G 6G13G11G 9
  20532835.295    20532841.270    -8610200.314 9  -8250669.472 8
  22072568.035    22072574.125   -47863664.688 8  41335465.946 7
  20614425.573    20614428.309   -19472589.534 8 -16534452.533 7
  20571767.648    20571771.794   -39625305.891 9  25559006.508 8
 88  3 28  4 48 29.0800000  0  4G 6G13G11G 9
  20539214.990    20539219.510    -8576683.220 8  -8224552.274 7
  22057474.145    22057479.232   -47942985.924 8  41273657.226 7
  20616489.646    20616492.309   -19461741.597 8 -16525999.578 7
  20561765.672    20561769.492   -39677857.929 8  25518056.873 8
 88  3 28  4 48 59.0800000  0  4G 6G13G11G 9
  20545698.546    20545701.304    -8542611.209 8  -8198002.663 7
  22042457.121    22042461.395   -48021901.953 9  41212164.223 7
  20618644.182    20618649.694   -19450416.527 8 -16517174.861 7
  20551853.538    20551853.766   -39729961.352 9  25477456.780 7
 88  3 28  4 49 29.0800000  0  4G 6G13G11G 9
  20552286.650    20552292.073    -8507984.138 8  -8171020.539 7
  22027516.622    22027521.037   -48100411.522 9  41150987.959 8
  20620889.013    20620895.094   -19438616.091 8 -16507979.697 7
  20542021.378    20542026.498   -39781613.912 8  25437208.043 8
 88  3 28  4 49 59.0800000  0  4G 6G13G11G 9
  20558982.212    20558987.872    -8472801.933 9  -8143605.845 7
  22012654.310    22012658.568   -48178513.364 8  41090129.399 7
  20623225.045    20623229.598   -19426341.979 8 -16498415.453 7
  20532278.903    20532283.108   -39832812.672 9  25397312.918 7
 88  3 28  4 50 29.0800000  0  4G 6G13G11G 9
  20565782.895    20565787.533    -8437063.976 8  -8115758.104 8
  21997869.854    21997875.192   -48256206.158 9  41029589.578 7
  20625651.916    20625654.981   -19413595.463 8 -16488483.121 7
  20522624.139    20522627.497   -39883554.761 8  25357773.643 8
 88  3 28  4 50 59.0800000  0  4G 6G13G11G 9
  20572689.712    20572694.316    -8400770.605 9  -8087477.599 7
  21983163.782    21983168.749   -48333489.285 8  40969368.978 7
  20628164.955    20628169.549   -19400378.822 7 -16478184.437 6
  20513055.187    20513058.825   -39933837.975 8  25318591.916 7
 88  3 28  4 51 29.0800000  0  4G 6G13G11G 9
  20579701.608    20579705.970    -8363921.798 9  -8058764.252 7
  21968535.570    21968539.662   -48410361.310 9  40909468.727 7
  20630771.978    20630774.411   -19386693.337 8 -16467520.424 7
  20503574.391    20503578.103   -39983659.679 9  25279769.816 8
 88  3 28  4 51 59.0800000  0  4G 6G13G11G 9
  20586819.125    20586823.725    -8326517.480 8  -8029618.043 7
  21953983.637    21953992.026   -48486821.384 8  40849889.475 8
  20633463.396    20633467.552   -19372540.930 8 -16456492.564 8
  20494181.457    20494184.894   -40033017.070 9  25241309.517 8
 88  3 28  4 52 29.0800000  0  4G 6G13G11G 9
  20594043.016    20594047.180    -8288557.867 9  -8000039.129 7
  21939514.305    21939519.303   -48562868.634 9  40790631.901 8
  20636244.215    20636249.442   -19357923.576 8 -16445102.404 7
  20484878.950    20484882.139   -40081907.728 8  25203212.884 7
 88  3 28  4 52 59.0800000  0  4G 6G13G11G 9
  20601372.096    20601377.458    -8250042.782 8  -7970027.414 8
  21925121.562    21925126.323   -48638501.289 7  40731697.387 7
  20639114.555    20639118.379   -19342842.543 8 -16433350.923 6
  20475664.866    20475669.010   -40130328.976 7  25165482.050 8
 88  3 28  4 53 29.0800000  0  4G 6G13G11G 9
  20608807.553    20608810.806    -8210971.955 9  -7939582.618 7
  21910807.555    21910812.344   -48713718.103 8  40673086.902 7
  20642072.810    20642078.094   -19327299.435 8 -16421239.382 6
  20466540.483    20466541.917   -40178278.016 9  25128119.176 8
 88  3 28  4 53 59.0800000  0  4G 6G13G11G 9
  20616347.327    20616351.589    -8171345.448 8  -7908704.834 6
  21896574.233    21896579.435   -48788518.067 9  40614801.238 7
  20645117.664    20645122.850   -19311296.050 9 -16408769.205 8
  20457504.834    20457508.634   -40225752.084 8  25091126.398 7
 88  3 28  4 54 29.0800000  0  4G 6G13G11G 9
  20623995.463    20623999.105    -8131163.123 9  -7877393.954 6
  21882419.840    21882425.908   -48862899.782 8  40556841.484 8
  20648252.067    20648254.271   -19294833.532 8 -16395941.264 7
  20448563.827    20448565.584   -40272748.401 7  25054505.897 8
 88  3 28  4 54 59.0800000  0  4G 6G13G11G 9
  20631746.207    20631749.586    -8090425.022 9  -7845649.998 7
  21868344.698    21868349.757   -48936862.805 9  40499208.009 7
  20651470.262    20651475.258   -19277913.859 8 -16382757.083 7
  20439711.042    20439714.641   -40319264.380 8  25018259.700 8
 88  3 28  4 55 29.0800000  0  4G 6G13G11G 9
  20639605.105    20639608.509    -8049131.497 9  -7813473.236 7
  21854350.017    21854355.196   -49010406.263 8  40441901.447 7
  20654776.975    20654780.854   -19260539.055 9 -16369218.268 7
  20430949.951    20430955.424   -40365297.837 7  24982389.464 7
 88  3 28  4 55 59.0800000  0  4G 6G13G11G 9
  20647568.078    20647572.875    -8007282.615 9  -7780863.741 7
  21840434.363    21840440.325   -49083528.594 7  40384923.010 7
  20658169.715    20658174.283   -19242710.878 8 -16355326.161 6
  20422284.127    20422286.281   -40410845.952 8  24946897.428 7
 88  3 28  4 56 29.0800000  0  4G 6G13G11G 9
  20655637.533    20655641.851    -7964878.603 8  -7747821.661 7
  21826600.354    21826605.062   -49156229.239 9  40328273.216 8
  20661647.767    20661650.414   -19224431.075 9 -16341082.151 7
  20413709.638    20413712.266   -40455906.188 8  24911785.548 8
 88  3 28  4 56 59.0800000  0  4G 6G13G11G 9
  20663811.733    20663814.905    -7921919.105 8  -7714346.745 7
  21812846.378    21812851.876   -49228506.281 8  40271953.467 7
  20665211.615    20665215.810   -19205700.964 8 -16326487.254 7
  20405226.465    20405230.062   -40500475.517 7  24877056.213 7
 88  3 28  4 57 29.0800000  0  4G 6G13G11G 9
  20672093.713    20672096.424    -7878404.676 8  -7680439.401 7
  21799173.783    21799177.932   -49300359.183 8  40215964.239 7
  20668861.176    20668865.659   -19186522.527 8 -16311542.985 7
  20396840.319    20396842.545   -40544551.896 8  24842710.959 7
 88  3 28  4 57 59.0800000  0  4G 6G13G11G 9
  20680479.260    20680482.939    -7834335.316 9  -7646099.668 7
  21785581.125    21785587.375   -49371786.987 9  40160306.221 8
  20672595.820    20672601.106   -19166897.346 8 -16296250.670 8
  20388546.329    20388551.182   -40588132.505 8  24808752.022 8
 88  3 28  4 58 29.0800000  0  4G 6G13G11G 9
  20688971.815    20688971.941    -7789711.505 8  -7611327.851 8
  21772070.239    21772076.296   -49442788.548 9  40104980.364 8
  20676414.717    20676420.929   -19146827.777 8 -16280612.038 7
  20380346.915    20380351.678   -40631214.967 8  24775181.306 8
 88  3 28  4 58 59.0800000  0  4G 6G13G11G 9
  20697568.820    20697572.649    -7744533.345 9  -7576124.124 6
  21758639.717    21758645.351   -49513363.103 9  40049987.227 7
  20680318.897    20680322.933   -19126315.430 8 -16264628.393 6
  20372245.597    20372250.328   -40673796.751 8  24742000.709 7
 88  3 28  4 59 29.0800000  0  4G 6G13G11G 9
  20706270.331    20706275.751    -7698800.853 8  -7540488.416 8
  21745292.032    21745297.350   -49583509.233 9  39995327.925 9
  20684305.923    20684310.333   -19105361.620 8 -16248300.745 7
  20364239.031    20364241.984   -40715874.975 8  24709212.496 7
 88  3 28  4 59 59.0800000  0  4G 6G13G11G 9
  20715078.879    20715082.595    -7652514.503 8  -7504421.160 8
  21732025.182    21732030.804   -49653226.400 8  39941002.916 7
  20688378.005    20688381.459   -19083968.649 8 -16231630.889 8
  20356327.615    20356331.097   -40757447.286 8  24676818.490 8
 88  3 28  5  0 29.0800000  0  4G 6G13G11G 9
  20723990.822    20723994.630    -7605675.272 8  -7467923.065 7
  21718839.998    21718845.415   -49722514.543 8  39887012.182 6
  20692531.447    20692536.719   -19062139.019 7 -16214620.774 6
  20348512.801    20348518.286   -40798511.895 7  24644820.067 6
 88  3 28  5  0 59.0800000  0  4G 6G13G11G 9
  20733011.093    20733012.365    -7558282.693 8  -7430993.805 7
  21705737.466    21705741.109   -49791371.614 9  39833357.368 7
  20696767.376    20696771.898   -19039873.550 8 -16197271.065 7
  20340794.524    20340801.073   -40839065.576 8  24613219.764 7
 88  3 28  5  1 29.0800000  0  4G 6G13G11G 9
  20742133.628    20742137.394    -7510337.121 8  -7393633.626 7
  21692715.022    21692720.324   -49859797.144 8  39780038.821 7
  20701087.060    20701092.992   -19017174.329 6 -16179583.349 8
  20333175.889    20333180.073   -40879105.821 8  24582019.564 8
 88  3 28  5  1 59.0800000  0  4G 6G13G11G 9
  20751362.794    20751366.143    -7461838.717 9  -7355842.698 7
  21679775.930    21679782.465   -49927790.640 8  39727056.910 8
  20705488.371    20705495.084   -18994042.820 7 -16161558.803 7
  20325655.472    20325658.229   -40918629.839 8  24551221.652 7
 88  3 28  5  2 29.0800000  0  4G 6G13G11G 9
  20760696.885    20760700.303    -7412787.741 9  -7317621.176 8
  21666919.986    21666926.055   -49995349.910 7  39674413.353 7
  20709973.103    20709976.983   -18970480.821 8 -16143198.797 8
  20318231.968    20318235.328   -40957635.053 8  24520827.965 7
 88  3 28  5  2 59.0800000  0  4G 6G13G11G 9
  20770137.764    20770140.378    -7363185.634 9  -7278970.186 7
  21654147.383    21654153.045   -50062475.095 8  39622108.060 7
  20714537.593    20714541.048   -18946490.904 7 -16124505.344 7
  20310908.782    20310912.740   -40996120.015 8  24490839.667 7
 88  3 28  5  3 29.0800000  0  4G 6G13G11G 9
  20779679.352    20779683.329    -7313032.994 8  -7239890.233 7
  21641456.002    21641462.178   -50129165.895 7  39570141.219 7
  20719182.101    20719188.685   -18922075.422 7 -16105480.294 8
  20303685.392    20303689.231   -41034082.815 8  24461258.275 7
 88  3 28  5  3 59.0800000  0  4G 6G13G11G 9
  20789328.482    20789330.414    -7262329.472 9  -7200381.006 7
  21628848.597    21628852.341   -50195420.989 8  39518513.921 7
  20723910.459    20723916.188   -18897235.662 8 -16086124.639 7
  20296559.722    20296565.922   -41071519.976 8  24432086.472 7
 88  3 28  5  4 29.0800000  0  4G 6G13G11G 9
  20799081.785    20799085.417    -7211075.885 9  -7160443.188 7
  21616325.359    21616328.493   -50261239.977 8  39467226.425 7
  20728718.094    20728724.394   -18871973.642 9 -16066439.955 8
  20289537.653    20289541.722   -41108429.065 8  24403326.147 6
 88  3 28  5  4 59.0800000  0  4G 6G13G11G 9
  20808939.839    20808942.558    -7159272.737 9  -7120077.104 7
  21603883.176    21603887.518   -50326621.658 8  39416279.676 6
  20733604.656    20733609.479   -18846291.490 8 -16046427.869 8
  20282616.552    20282619.484   -41144808.315 8  24374978.678 7
 88  3 28  5  5 29.0800000  0  4G 6G13G11G 9
  20818902.926    20818905.282    -7106920.633 8  -7079283.286 6
  21591524.163    21591529.072   -50391565.708 9  39365673.942 6
  20738572.494    20738576.607   -18820191.067 8 -16026089.876 8
  20275793.765    20275797.820   -41180654.949 8  24347046.224 7
 88  3 28  5  5 59.0800000  0  4G 6G13G11G 9
  20828968.800    20828972.797    -7054020.572 9  -7038062.463 7
  21579247.407    21579253.146   -50456072.051 9  39315409.286 7
  20743616.257    20743624.230   -18793674.695 7 -16005427.797 7
  20269074.505    20269076.744   -41215967.254 8  24319530.111 7
 88  3 28  5  6 29.0800000  0  4G 6G13G11G 9
  20839139.402    20839144.111    -7000572.329 8  -6996414.512 7
  21567057.448    21567061.767   -50520138.485 8  39265487.439 7
  20748742.471    20748745.303   -18766743.658 7 -15984442.563 8
  20262454.238    20262461.770   -41250742.143 7  24292432.779 6
 88  3 28  5  6 59.0800000  0  4G 6G13G11G 9
  20849413.840    20849419.517    -6946576.646 9  -6954339.992 8
  21554950.679    21554953.817   -50583764.593 9  39215908.682 7
  20753945.664    20753949.244   -18739400.051 9 -15963135.864 8
  20255941.591    20255945.249   -41284977.375 8  24265755.967 7
 88  3 28  5  7 29.0800000  0  4G 6G13G11G 9
  20859793.315    20859797.484    -6892034.364 9  -6911839.531 7
  21542926.123    21542930.096   -50646950.209 9  39166673.164 7
  20759226.702    20759232.531   -18711645.768 8 -15941509.136 8
  20249528.784    20249534.261   -41318670.808 7  24239501.321 7
 88  3 28  5  7 59.0800000  0  4G 6G13G11G 9
  20870276.056    20870279.486    -6836945.660 8  -6868913.298 8
  21530985.147    21530990.352   -50709693.935 9  39117781.960 7
  20764586.498    20764591.149   -18683482.568 8 -15919563.807 8
  20243222.531    20243225.534   -41351819.546 8  24213671.143 7
 88  3 28  5  8 29.0800000  0  4G 6G13G11G 9
  20880863.151    20880868.113    -6781312.623 9  -6825562.898 7
  21519129.817    21519134.735   -50771996.722 8  39069234.368 7
  20770021.817    20770026.223   -18654913.830 9 -15897302.451 7
  20237017.397    20237021.759   -41384422.987 7  24188265.872 7
 88  3 28  5  8 59.0800000  0  4G 6G13G11G 9
  20891554.491    20891555.585    -6725134.602 8  -6781787.833 8
  21507357.629    21507362.587   -50833857.110 9  39021031.488 8
  20775536.097    20775540.605   -18625939.835 8 -15874725.311 7
  20230919.392    20230920.679   -41416477.319 8  24163288.489 8
 88  3 28  5  9 29.0800000  0  4G 6G13G11G 9
  20902347.294    20902351.146    -6668412.719 9  -6737588.994 7
  21495671.733    21495675.994   -50895274.459 8  38973173.802 7
  20781125.697    20781131.324   -18596563.333 8 -15851834.501 7
  20224923.609    20224924.563   -41447980.683 8  24138740.402 7
 88  3 28  5  9 59.0800000  0  4G 6G13G11G 9
  20913242.525    20913248.266    -6611148.187 7  -6692967.301 6
  21484067.617    21484074.708   -50956248.635 9  38925661.494 7
  20786793.339    20786797.921   -18566786.781 8 -15828631.997 7
  20219033.826    20219038.565   -41478931.439 7  24114622.933 7
 88  3 28  5 10 29.0800000  0  4G 6G13G11G 9
  20924245.100    20924246.718    -6553341.504 7  -6647923.165 7
  21472550.343    21472553.403   -51016779.021 8  38878494.984 7
  20792534.103    20792538.357   -18536611.952 9 -15805119.151 8
  20213250.698    20213252.659   -41509327.199 8  24090937.947 8
 88  3 28  5 10 59.0800000  0  4G 6G13G11G 9
  20935346.578    20935351.752    -6494993.685 8  -6602457.373 7
  21461115.503    21461120.099   -51076864.565 8  38831675.114 7
  20798353.396    20798357.107   -18506041.050 8 -15781297.664 7
  20207570.200    20207574.862   -41539165.620 7  24067687.211 8
 88  3 28  5 11 29.0800000  0  4G 6G13G11G 9
  20946553.505    20946557.811    -6436105.246 7  -6556570.302 7
  21449765.832    21449771.487   -51136505.007 8  38785202.082 7
  20804244.236    20804249.246   -18475075.498 8 -15757168.659 8
  20201998.560    20202005.372   -41568444.240 7  24044872.708 7
 88  3 28  5 11 59.0800000  0  4G 6G13G11G 9
  20957862.741    20957865.936    -6376677.371 8  -6510262.890 7
  21438501.786    21438506.239   -51195700.213 8  38739075.988 8
  20810211.970    20810217.811   -18443718.006 9 -15732734.260 7
  20196535.307    20196538.522   -41597161.539 8  24022495.575 7
 88  3 28  5 12 29.0800000  0  4G 6G13G11G 9
  20969273.460    20969277.912    -6316712.921 8  -6463537.365 7
  21427321.633    21427327.327   -51254449.437 8  38693297.426 7
  20816254.372    20816257.419   -18411970.570 8 -15707996.011 7
  20191177.806    20191180.283   -41625315.421 7  24000557.523 7
 88  3 28  5 12 59.0800000  0  4G 6G13G11G 9
  20980786.979    20980790.395    -6256208.391 8  -6416391.011 8
  21416225.699    21416232.626   -51312752.677 8  38647866.394 8
  20822368.919    20822373.302   -18379835.126 9 -15682955.386 8
  20185927.189    20185931.821   -41652903.731 7  23979060.136 7
 88  3 28  5 13 29.0800000  0  4G 6G13G11G 9
  20992402.609    20992405.773    -6195167.887 9  -6368827.011 8
  21405216.751    21405223.015   -51370609.550 8  38602783.145 8
  20828556.128    20828562.383   -18347314.289 8 -15657614.484 7
  20180785.673    20180789.992   -41679924.670 7  23958004.891 6
 88  3 28  5 13 59.0800000  0  4G 6G13G11G 9
  21004120.064    21004124.531    -6133591.111 8  -6320845.139 8
  21394292.076    21394298.222   -51428018.844 8  38558048.659 7
  20834819.608    20834822.958   -18314409.148 7 -15631974.140 8
  20175751.622    20175755.601   -41706375.293 7  23937394.043 7
 88  3 28  5 14 29.0800000  0  4G 6G13G11G 9
  21015939.069    21015944.277    -6071479.757 9  -6272446.699 7
  21383453.713    21383458.649   -51484980.885 8  38513662.681 7
  20841154.662    20841157.135   -18281122.661 8 -15606036.628 7
  20170827.608    20170833.353   -41732254.367 8  23917228.548 6
 88  3 28  5 14 59.0800000  0  4G 6G13G11G 9
  21027860.832    21027865.125    -6008834.611 9  -6223632.319 7
  21372699.963    21372703.577   -51541494.842 9  38469625.844 7
  20847560.056    20847563.350   -18247456.686 8 -15579803.422 7
  20166011.225    20166015.472   -41757559.632 7  23897510.163 6
 88  3 28  5 15 29.0800000  0  4G 6G13G11G 9
  21039884.181    21039887.546    -5945656.396 9  -6174402.557 7
  21362029.104    21362034.180   -51597560.385 7  38425938.439 8
  20854036.482    20854041.425   -18213413.220 8 -15553276.061 6
  20161306.209    20161309.546   -41782289.018 7  23878240.517 7
 88  3 28  5 15 59.0800000  0  4G 6G13G11G 9
  21052007.552    21052009.794    -5881946.044 9  -6124758.127 7
  21351447.015    21351451.446   -51653176.708 8  38382601.066 7
  20860587.748    20860592.432   -18178994.090 8 -15526455.992 8
  20156710.102    20156713.625   -41806440.140 6  23859421.458 8
 88  3 28  5 16 29.0800000  0  4G 6G13G11G 9
  21064232.614    21064235.256    -5817705.027 9  -6074700.217 7
  21340949.643    21340954.940   -51708344.066 9  38339613.534 7
  20867207.210    20867212.149   -18144201.978 8 -15499345.272 8
  20152224.589    20152227.697   -41830011.461 7  23841054.217 7
 88  3 28  5 16 59.0800000  0  4G 6G13G11G 9
  21076557.995    21076562.403    -5752933.736 9  -6024229.095 7
  21330535.672    21330541.082   -51763061.677 9  38296976.455 6
  20873901.165    20873904.447   -18109038.090 8 -15471944.848 8
  20147850.569    20147854.091   -41853000.273 7  23823140.851 6
 88  3 28  5 17 29.0800000  0  4G 6G13G11G 9
  21088983.495    21088988.248    -5687633.627 8  -5973345.900 7
  21320210.239    21320214.855   -51817329.350 9  38254689.991 8
  20880662.117    20880664.840   -18073504.843 8 -15444256.610 8
  20143587.422    20143590.430   -41875405.281 6  23805682.421 6
 88  3 28  5 17 59.0800000  0  4G 6G13G11G 9
  21101510.830    21101515.345    -5621806.182 9  -5922051.801 8
  21309967.934    21309973.437   -51871147.572 8  38212753.714 7
  20887493.384    20887497.984   -18037604.576 8 -15416282.379 8
  20139435.818    20139437.582   -41897224.866 7  23788680.154 8
 88  3 28  5 18 29.0800000  0  4G 6G13G11G 9
  21114136.468    21114140.803    -5555452.773 8  -5870347.858 7
  21299812.095    21299816.132   -51924515.673 9  38171168.192 7
  20894391.790    20894398.975   -18001339.867 9 -15388024.166 7
  20135393.992    20135397.059   -41918457.104 7  23772135.544 8
 88  3 28  5 18 59.0800000  0  4G 6G13G11G 9
  21126863.671    21126867.592    -5488574.192 9  -5818234.692 7
  21289742.267    21289745.792   -51977433.542 8  38129933.496 7
  20901362.719    20901368.871   -17964712.791 8 -15359483.602 7
  20131466.355    20131470.297   -41939100.229 7  23756049.992 8
 88  3 28  5 19 29.0800000  0  4G 6G13G11G 9
  21139689.251    21139691.872    -5421172.726 9  -5765714.083 7
  21279757.456    21279763.570   -52029901.966 9  38089049.047 7
  20908402.867    20908407.121   -17927726.341 8 -15330662.973 9
  20127649.478    20127652.637   -41959153.067 8  23740424.404 7
 88  3 28  5 19 59.0800000  0  4G 6G13G11G 9
  21152614.846    21152617.674    -5353249.013 8  -5712786.546 7
  21269859.799    21269863.866   -52081919.889 9  38048515.620 7
  20915507.813    20915513.639   -17890381.844 8 -15301563.376 8
  20123945.874    20123950.726   -41978613.360 8  23725260.537 7
 88  3 28  5 20 29.0800000  0  4G 6G13G11G 9
  21165638.356    21165642.631    -5284803.598 9  -5659452.461 7
  21260046.084    21260050.869   -52133486.796 8  38008333.632 7
  20922682.471    20922687.325   -17852680.892 9 -15272185.995 8
  20120356.975    20120361.399   -41997478.475 8  23710560.432 7
 88  3 28  5 20 59.0800000  0  4G 6G13G11G 9
  21178763.415    21178765.623    -5215838.154 9  -5605713.156 7
  21250318.446    21250324.602   -52184603.218 9  37968502.671 7
  20929924.326    20929928.580   -17814626.038 8 -15242532.855 6
  20116879.341    20116886.391   -42015747.208 7  23696325.059 7
 88  3 28  5 21 29.0800000  0  4G 6G13G11G 9
  21191985.945    21191988.948    -5146353.842 9  -5551569.561 7
  21240678.303    21240682.324   -52235268.030 9  37929023.583 8
  20937232.489    20937237.646   -17776219.676 9 -15212605.813 7
  20113518.377    20113520.974   -42033417.628 8  23682555.909 7
 88  3 28  5 21 59.0800000  0  4G 6G13G11G 9
  21205306.392    21205309.970    -5076352.239 9  -5497022.883 8
  21231122.489    21231127.822   -52285481.550 8  37889896.173 7
  20944607.763    20944611.558   -17737463.928 9 -15182406.523 7
  20110268.801    20110273.690   -42050488.342 7  23669254.055 6
 88  3 28  5 22 29.0800000  0  4G 6G13G11G 9
  21218725.849    21218729.967    -5005834.989 9  -5442074.379 8
  21221652.856    21221656.908   -52335244.342 8  37851119.968 6
  20952049.862    20952054.700   -17698361.118 8 -15151936.824 8
  20107136.996    20107138.901   -42066957.983 8  23656420.561 6
 88  3 28  5 22 59.0800000  0  4G 6G13G11G 9
  21232241.874    21232248.500    -4934802.934 8  -5386724.746 8
  21212269.960    21212275.205   -52384555.545 7  37812695.693 7
  20959555.123    20959560.144   -17658913.274 9 -15121198.225 7
  20104115.300    20104119.719   -42082824.374 6  23644057.136 8
 88  3 28  5 23 29.0800000  0  4G 6G13G11G 9
  21245857.234    21245861.092    -4863257.730 9  -5330975.264 7
  21202971.856    21202976.035   -52433415.698 8  37774622.866 6
  20967128.004    20967132.669   -17619122.664 8 -15090192.569 7
  20101212.267    20101217.646   -42098085.921 7  23632165.003 7
 88  3 28  5 23 59.0800000  0  4G 6G13G11G 9
  21259569.670    21259572.672    -4791200.599 8  -5274826.854 7
  21193757.713    21193764.279   -52481824.347 7  37736901.859 7
  20974764.277    20974769.890   -17578991.284 9 -15058921.361 7
  20098422.592    20098426.924   -42112741.039 7  23620745.444 7
 88  3 28  5 24 29.0800000  0  4G 6G13G11G 9
  21273378.708    21273382.381    -4718633.127 9  -5218280.793 7
  21184634.292    21184638.664   -52529781.992 8  37699532.259 7
  20982465.717    20982469.591   -17538521.816 9 -15027386.707 7
  20095750.811    20095752.711   -42126788.265 8  23609799.565 6
 88  3 28  5 24 59.0800000  0  4G 6G13G11G 9
  21287284.266    21287288.703    -4645556.466 8  -5161337.944 7
  21175592.853    21175598.898   -52577287.689 7  37662514.865 8
  20990230.771    20990234.993   -17497715.963 9 -14995589.929 7
  20093193.730    20093197.231   -42140225.782 6  23599328.746 7
 88  3 28  5 25 29.0800000  0  4G 6G13G11G 9
  21301286.840    21301288.396    -4571972.229 9  -5103999.595 7
  21166640.102    21166645.420   -52624341.720 9  37625849.422 8
  20998059.646    20998064.095   -17456575.771 9 -14963532.642 8
  20090753.288    20090755.422   -42153052.200 8  23589334.162 7
 88  3 28  5 25 59.0800000  0  4G 6G13G11G 9
  21315385.822    21315390.137    -4497881.727 9  -5046266.749 6
  21157770.943    21157776.518   -52670944.275 8  37589535.762 7
  21005951.481    21005957.279   -17415103.455 9 -14931216.559 7
  20088430.108    20088431.280   -42165265.625 8  23579817.203 6
 88  3 28  5 26 29.0800000  0  4G 6G13G11G 9
  21329582.005    21329584.815    -4423286.699 9  -4988140.777 6
  21148988.858    21148992.752   -52717095.671 9  37553573.696 7
  21013906.877    21013910.901   -17373301.696 9 -14898643.760 8
  20086221.848    20086224.278   -42176865.003 8  23570778.704 6
 88  3 28  5 26 59.0800000  0  4G 6G13G11G 9
  21343872.662    21343874.044    -4348188.305 9  -4929622.564 7
  21140291.244    21140297.493   -52762795.374 8  37517963.567 7
  21021922.917    21021927.340   -17331172.111 9 -14865815.506 8
  20084131.278    20084133.181   -42187848.408 7  23562220.220 5
 88  3 28  5 27 29.0800000  0  4G 6G13G11G 9
  21358258.354    21358261.323    -4272588.328 9  -4870713.508 6
  21131681.706    21131687.002   -52808043.746 8  37482705.138 6
  21030002.432    21030006.653   -17288717.105 9 -14832733.703 8
  20082157.853    20082162.306   -42198214.710 7  23554142.581 7
 88  3 28  5 27 59.0800000  0  4G 6G13G11G 9
  21372739.341    21372742.429    -4196488.502 8  -4811414.967 8
  21123157.225    21123162.324   -52852841.018 8  37447798.202 7
  21038141.215    21038147.857   -17245939.372 9 -14799400.437 7
  20080303.018    20080307.785   -42207962.460 7  23546546.927 7
 88  3 28  5 28 29.0800000  0  4G 6G13G11G 9
  21387316.566    21387317.712    -4119890.682 9  -4751728.367 6
  21114719.064    21114724.501   -52897187.493 8  37413242.503 8
  21046343.504    21046348.053   -17202841.243 9 -14765817.481 7
  20078567.690    20078571.993   -42217090.417 7  23539434.263 6
 88  3 28  5 28 59.0800000  0  4G 6G13G11G 9
  21401985.783    21401990.516    -4042796.085 9  -4691654.672 7
  21106365.043    21106371.613   -52941083.141 8  37379038.111 7
  21054605.518    21054610.455   -17159424.535 9 -14731986.280 7
  20076947.566    20076948.762   -42225597.096 8  23532805.670 6
 88  3 28  5 29 29.0800000  0  4G 6G13G11G 9
  21416751.174    21416755.319    -3965205.998 9  -4631194.891 8
  21098098.124    21098103.069   -52984527.946 8  37345185.008 7
  21062926.601    21062932.823   -17115691.003 9 -14697908.211 7
  20075448.043    20075451.015   -42233480.831 7  23526662.500 6
 88  3 28  5 29 59.0800000  0  4G 6G13G11G 9
  21431610.324    21431613.991    -3887122.670 9  -4570350.768 8
  21089916.571    21089922.921   -53027522.285 9  37311682.924 7
  21071309.009    21071315.595   -17071643.313 8 -14663585.327 8
  20074065.625    20074069.949   -42240740.776 8  23521005.412 7
 88  3 28  5 30 29.0800000  0  4G 6G13G11G 9
  21446562.918    21446566.028    -3808547.388 9  -4509123.296 7
  21081821.911    21081825.324   -53070065.832 9  37278532.125 7
  21079750.748    21079755.215   -17027283.609 9 -14629019.335 7
  20072803.440    20072804.595   -42247375.242 8  23515835.699 6
 88  3 28  5 30 59.0800000  0  4G 6G13G11G 9
  21461607.722    21461612.653    -3729482.270 8  -4447514.147 8
  21073810.959    21073814.756   -53112159.795 9  37245731.641 7
  21088252.269    21088255.406   -16982614.919 9 -14594212.573 7
  20071661.147    20071663.618   -42253383.444 8  23511153.990 7
 88  3 28  5 31 29.0800000  0  4G 6G13G11G 9
  21476746.594    21476749.082    -3649929.158 9  -4385524.713 7
  21065885.153    21065890.707   -53153804.351 9  37213281.359 8
  21096810.341    21096814.492   -16937638.851 9 -14559166.281 7
  20070637.450    20070639.424   -42258764.223 7  23506961.175 7
 88  3 28  5 31 59.0800000  0  4G 6G13G11G 9
  21491977.647    21491981.541    -3569889.107 8  -4323155.852 7
  21058046.895    21058052.731   -53194998.682 8  37181181.914 7
  21105425.506    21105431.246   -16892356.973 8 -14523881.708 8
  20069731.310    20069734.898   -42263515.704 7  23503258.729 6
 88  3 28  5 32 29.0800000  0  4G 6G13G11G 9
  21507299.510    21507304.867    -3489363.681 8  -4260408.788 7
  21050293.919    21050297.096   -53235743.329 8  37149432.869 8
  21114100.597    21114105.049   -16846771.796 8 -14488360.803 8
  20068946.238    20068950.500   -42267636.624 8  23500047.619 7
 88  3 28  5 32 59.0800000  0  4G 6G13G11G 9
  21522715.460    21522721.527    -3408354.691 9  -4197284.916 7
  21042625.845    21042630.379   -53276038.454 8  37118034.119 7
  21122833.328    21122837.937   -16800885.133 8 -14452604.972 7
  20068283.704    20068287.072   -42271125.633 8  23497328.946 6
 88  3 28  5 33 29.0800000  0  4G 6G13G11G 9
  21538223.110    21538227.038    -3326865.100 8  -4133786.548 8
  21035043.959    21035047.668   -53315885.504 9  37086984.506 6
  21131621.345    21131625.427   -16754700.806 8 -14416617.169 7
  20067740.200    20067744.115   -42273982.870 7  23495102.502 6
 88  3 28  5 33 59.0800000  0  4G 6G13G11G 9
  21553821.837    21553826.213    -3244896.388 9  -4069914.847 8
  21027547.330    21027549.878   -53355284.516 9  37056284.022 8
  21140466.028    21140471.558   -16708220.783 8 -14380398.977 8
  20067317.749    20067321.339   -42276207.038 8  23493369.413 6
 88  3 28  5 34 29.0800000  0  4G 6G13G11G 9
  21569510.234    21569514.611    -3162449.553 9  -4005670.566 7
  21020133.537    21020136.238   -53394234.817 8  37025933.162 7
  21149366.924    21149371.632   -16661446.504 8 -14343951.474 9
  20067014.522    20067018.062   -42277796.058 7  23492131.218 6
 88  3 28  5 34 59.0800000  0  4G 6G13G11G 9
  21585289.221    21585294.282    -3079527.473 8  -3941055.979 7
  21012807.900    21012812.188   -53432737.583 8  36995931.016 6
  21158323.848    21158328.187   -16614380.984 8 -14307277.036 7
  20066833.189    20066837.107   -42278750.071 8  23491387.827 6
 88  3 28  5 35 29.0800000  0  4G 6G13G11G 9
  21601160.648    21601163.756    -2996131.754 9  -3876072.323 8
  21005564.318    21005569.604   -53470793.391 9  36966277.119 6
  21167334.836    21167340.475   -16567025.788 8 -14270376.902 8
  20066774.063    20066776.333   -42279067.714 7  23491140.294 6
 88  3 28  5 35 59.0800000  0  4G 6G13G11G 9
  21617119.099    21617121.735    -2912263.731 9  -3810720.622 7
  20998408.735    20998413.088   -53508401.983 8  36936971.742 6
  21176401.054    21176404.706   -16519382.904 8 -14233252.567 8
  20066833.683    20066835.716   -42278747.427 8  23491389.898 6
 88  3 28  5 36 29.0800000  0  4G 6G13G11G 9
  21633168.644    21633172.814    -2827925.005 9  -3745002.178 7
  20991335.631    20991340.815   -53545563.259 8  36908014.917 7
  21185522.251    21185527.246   -16471454.473 9 -14195905.718 7
  20067016.417    20067018.440   -42277787.840 8  23492137.619 6
 88  3 28  5 36 59.0800000  0  4G 6G13G11G 9
  21649307.533    21649310.038    -2743118.217 9  -3678918.950 7
  20984349.076    20984354.466   -53582278.728 8  36879405.450 6
  21194696.244    21194699.551   -16423243.616 9 -14158338.839 7
  20067320.282    20067323.645   -42276188.777 8  23493383.647 6
 88  3 28  5 37 29.0800000  0  4G 6G13G11G 9
  21665533.154    21665538.346    -2657845.025 9  -3612472.346 7
  20977447.189    20977452.591   -53618548.546 8  36851143.313 7
  21203923.071    21203926.362   -16374752.307 9 -14120553.375 7
  20067747.664    20067749.663   -42273949.075 7  23495128.880 7
 88  3 28  5 37 59.0800000  0  4G 6G13G11G 9
  21681849.301    21681853.519    -2572107.510 9  -3545663.902 7
  20970630.270    20970634.680   -53654373.021 8  36823228.172 7
  21213204.102    21213210.284   -16325982.408 9 -14082550.882 8
  20068294.984    20068296.060   -42271068.134 8  23497373.776 6
 88  3 28  5 38 29.0800000  0  4G 6G13G11G 9
  21698252.756    21698255.564    -2485907.475 9  -3478495.057 8
  20963899.258    20963901.975   -53689752.542 8  36795659.743 7
  21222539.589    21222542.509   -16276936.164 9 -14044333.022 8
  20068965.641    20068967.991   -42267544.786 7  23500119.241 6
 88  3 28  5 38 59.0800000  0  4G 6G13G11G 9
  21714742.806    21714747.487    -2399246.951 9  -3410967.381 8
  20957250.170    20957255.952   -53724688.060 8  36768437.294 7
  21231921.440    21231926.839   -16227616.142 8 -14005901.839 8
  20069758.599    20069759.672   -42263378.288 8  23503365.853 6
 88  3 28  5 39 29.0800000  0  4G 6G13G11G 9
  21731320.771    21731325.544    -2312127.877 8  -3343082.422 8
  20950687.749    20950691.790   -53759179.105 7  36741561.191 7
  21241361.761    21241365.410   -16178023.925 9 -13967258.570 8
  20070673.489    20070675.236   -42258567.688 7  23507114.379 6
 88  3 28  5 39 59.0800000  0  4G 6G13G11G 9
  21747985.339    21747991.130    -2224551.849 8  -3274841.386 8
  20944208.225    20944211.474   -53793226.326 8  36715030.917 7
  21250848.298    21250853.024   -16128161.633 8 -13928404.847 8
  20071713.514    20071714.479   -42253111.768 8  23511365.748 6
 88  3 28  5 40 29.0800000  0  4G 6G13G11G 9
  21764738.403    21764743.318    -2136521.414 9  -3206246.277 7
  20937812.124    20937818.227   -53826831.160 8  36688845.371 6
  21260388.178    21260390.526   -16078032.249 8 -13889343.019 7
  20072873.113    20072875.673   -42247010.433 8  23516120.035 6
 88  3 28  5 40 59.0800000  0  4G 6G13G11G 9
  21781576.200    21781579.946    -2048038.181 8  -3137298.323 8
  20931500.931    20931506.695   -53859993.285 8  36663004.774 6
  21269978.800    21269982.752   -16027637.081 9 -13850074.054 9
  20074158.505    20074160.898   -42240262.330 7  23521378.296 6
 88  3 28  5 41 29.0800000  0  4G 6G13G11G 9
  21798499.189    21798503.380    -1959105.066 9  -3067999.814 7
  20925274.956    20925279.753   -53892713.804 8  36637508.281 8
  21279616.758    21279621.871   -15976979.294 8 -13810600.500 8
  20075564.535    20075568.265   -42232867.631 7  23527140.417 6
 88  3 28  5 41 59.0800000  0  4G 6G13G11G 9
  21815507.865    21815511.791    -1869723.697 8  -2998352.017 7
  20919133.473    20919137.032   -53924993.039 8  36612355.651 6
  21289307.001    21289311.299   -15926061.003 9 -13770923.881 7
  20077094.024    20077097.675   -42224825.548 8  23533406.970 5
 88  3 28  5 42 29.0800000  0  4G 6G13G11G 9
  21832602.501    21832606.223    -1779895.965 8  -2928356.403 7
  20913074.553    20913078.171   -53956831.405 9  36587546.556 8
  21299044.464    21299048.803   -15874883.971 9 -13731045.683 8
  20078749.369    20078750.260   -42216134.857 8  23540178.945 4
 88  3 28  5 42 59.0800000  0  4G 6G13G11G 9
  21849780.079    21849784.764    -1689624.749 8  -2858015.227 8
  20907100.470    20907105.355   -53988230.406 8  36563079.819 7
  21308833.671    21308837.979   -15823451.291 9 -13690968.288 8
  20080524.155    20080528.561   -42206795.999 7  23547455.949 7
 88  3 28  5 43 29.0800000  0  4G 6G13G11G 9
  21867042.092    21867045.364    -1598911.591 9  -2787329.671 6
  20901208.804    20901211.844   -54019190.501 8  36538955.090 7
  21318668.667    21318672.277   -15771764.533 9 -13650692.877 9
  20082427.363    20082428.571   -42196807.619 8  23555239.101 7
 88  3 28  5 43 59.0800000  0  4G 6G13G11G 9
  21884389.129    21884392.124    -1507759.089 9  -2716301.774 7
  20895400.893    20895403.796   -54049712.134 7  36515172.021 7
  21328550.767    21328556.005   -15719826.169 8 -13610221.425 7
  20084452.075    20084453.265   -42186169.671 7  23563528.380 6
 88  3 28  5 44 29.0800000  0  4G 6G13G11G 9
  21901818.189    21901822.116    -1416169.146 9  -2644933.014 8
  20889675.960    20889680.209   -54079795.939 8  36491730.125 8
  21338483.208    21338487.258   -15667638.285 9 -13569555.535 8
  20086598.555    20086600.623   -42174881.536 8  23572324.332 5
 88  3 28  5 44 59.0800000  0  4G 6G13G11G 9
  21919329.570    21919332.526    -1324143.924 9  -2573225.074 7
  20884032.784    20884039.606   -54109442.179 8  36468629.200 7
  21348460.522    21348465.101   -15615203.035 8 -13528696.883 8
  20088869.222    20088873.921   -42162942.407 8  23581627.525 6
 88  3 28  5 45 29.0800000  0  4G 6G13G11G 9
  21936923.935    21936926.594    -1231685.549 9  -2501179.599 7
  20878475.941    20878479.676   -54138651.919 8  36445868.376 8
  21358485.800    21358489.791   -15562522.374 8 -13487647.010 8
  20091265.835    20091266.735   -42150351.948 8  23591438.286 6
 88  3 28  5 45 59.0800000  0  4G 6G13G11G 9
  21954600.300    21954602.532    -1138796.303 9  -2428798.413 8
  20872999.414    20873004.076   -54167425.583 8  36423447.375 8
  21368555.952    21368562.333   -15509598.507 8 -13446407.641 8
  20093787.464    20093789.707   -42137109.694 7  23601756.931 7
 88  3 28  5 46 29.0800000  0  4G 6G13G11G 9
  21972358.465    21972360.551    -1045478.494 8  -2356083.238 8
  20867607.648    20867611.120   -54195764.655 8  36401365.032 7
  21378673.005    21378678.836   -15456433.904 8 -13404980.698 8
  20096430.174    20096432.494   -42123215.401 7  23612583.642 5
 88  3 28  5 46 59.0800000  0  4G 6G13G11G 9
  21990196.139    21990199.424     -951734.551 8  -2283036.046 7
  20862297.135    20862301.027   -54223669.895 8  36379620.680 8
  21388837.057    21388839.938   -15403030.534 8 -13363367.655 7
  20099198.619    20099199.329   -42108668.961 7  23623918.524 6
 88  3 28  5 47 29.0800000  0  4G 6G13G11G 9
  22008116.103    22008120.278     -857566.792 9  -2209658.590 7
  20857069.090    20857073.531   -54251141.300 8  36358214.416 7
  21399042.434    21399049.819   -15349391.181 8 -13321570.718 8
  20102090.741    20102094.188   -42093469.899 7  23635761.933 7
 88  3 28  5 47 59.0800000  0  4G 6G13G11G 9
  22026114.504    22026118.765     -762977.191 7  -2135952.463 7
  20851924.649    20851927.441   -54278180.131 9  36337145.229 7
  21409295.943    21409300.310   -15295517.464 9 -13279591.232 7
  20105107.639    20105110.442   -42077617.830 8  23648114.199 6
 88  3 28  5 48 29.0800000  0  4G 6G13G11G 9
  22044195.133    22044198.035     -667968.047 8  -2061919.379 8
  20846859.949    20846864.766   -54304787.166 9  36316412.496 7
  21419592.208    21419596.105   -15241411.873 9 -13237430.994 7
  20108248.778    20108250.021   -42061112.452 8  23660975.506 7
 88  3 28  5 48 59.0800000  0  4G 6G13G11G 9
  22062353.314    22062357.932     -572541.793 9  -1987561.260 7
  20841881.037    20841884.496   -54330963.041 8  36296015.704 7
  21429930.802    21429935.696   -15187076.474 9 -13195091.706 8
  20111513.904    20111516.715   -42043953.227 7  23674346.328 7
 88  3 28  5 49 29.0800000  0  4G 6G13G11G 9
  22080591.974    22080597.166     -476700.808 8  -1912880.023 7
  20836981.035    20836984.605   -54356708.590 9  36275954.267 7
  21440313.979    21440319.162   -15132513.485 9 -13152575.105 8
  20114904.182    20114907.109   -42026140.631 7  23688226.250 6
 88  3 28  5 49 59.0800000  0  4G 6G13G11G 9
  22098908.735    22098913.973     -380447.255 8  -1837877.282 8
  20832162.702    20832167.890   -54382024.788 9  36256227.370 7
  21450740.745    21450743.454   -15077724.947 9 -13109882.726 7
  20118416.938    20118419.261   -42007673.926 7  23702615.871 7
 88  3 28  5 50 29.0800000  0  4G 6G13G11G 9
  22117302.858    22117307.361     -283783.668 9  -1762555.041 8
  20827427.414    20827431.156   -54406912.641 8  36236834.284 7
  21461207.520    21461211.887   -15022713.600 9 -13067016.748 7
  20122054.774    20122057.882   -41988553.150 7  23717515.162 7
 88  3 28  5 50 59.0800000  0  4G 6G13G11G 9
  22135775.930    22135778.369     -186712.165 8  -1686914.912 7
  20822771.403    20822775.145   -54431372.663 9  36217774.547 7
  21471719.168    21471723.449   -14967480.591 8 -13023978.053 8
  20125819.919    20125820.863   -41968778.062 8  23732924.318 7
 88  3 28  5 51 29.0800000  0  4G 6G13G11G 9
  22154324.365    22154327.286      -89235.259 8  -1610958.919 7
  20818199.282    20818203.839   -54455405.864 8  36199047.412 6
  21482270.654    21482275.335   -14912028.525 9 -12980768.643 8
  20129707.092    20129707.272   -41948348.855 7  23748843.165 6
 88  3 28  5 51 59.0800000  0  4G 6G13G11G 9
  22172949.602    22172955.205        8645.033 8  -1534688.575 8
  20813707.597    20813710.734   -54479012.358 8  36180652.767 7
  21492864.786    21492868.472   -14856359.313 9 -12937390.006 9
  20133720.243    20133722.436   -41927264.804 7  23765272.283 6
 88  3 28  5 52 29.0800000  0  4G 6G13G11G 9
  22191652.591    22191656.986      106925.886 9  -1458106.106 9
  20809295.346    20809298.641   -54502194.397 8  36162588.862 7
  21503497.791    21503504.474   -14800475.501 8 -12893844.159 9
  20137855.275    20137858.036   -41905526.263 8  23782211.376 7
 88  3 28  5 52 59.0800000  0  4G 6G13G11G 9
  22210432.061    22210435.737      205604.994 9  -1381213.333 8
  20804964.086    20804967.905   -54524952.534 8  36144855.295 8
  21514172.992    21514179.727   -14744378.924 9 -12850132.578 8
  20142117.747    20142117.899   -41883133.373 7  23799660.388 7
 88  3 28  5 53 29.0800000  0  4G 6G13G11G 9
  22229284.339    22229288.584      304679.694 9  -1304012.294 9
  20800714.571    20800718.192   -54547287.389 9  36127451.540 8
  21524889.397    21524891.524   -14688072.041 8 -12806257.075 9
  20146501.618    20146505.342   -41860086.173 8  23817619.213 6
 88  3 28  5 53 59.0800000  0  4G 6G13G11G 9
  22248212.023    22248218.577      404147.897 7  -1226504.631 8
  20796544.744    20796548.894   -54569199.854 9  36110376.922 8
  21535641.669    21535646.780   -14631556.752 9 -12762219.155 9
  20151013.052    20151015.520   -41836384.545 7  23836088.021 6
 88  3 28  5 54 29.0800000  0  4G 6G13G11G 9
  22267214.697    22267220.507      504006.986 9  -1148692.410 8
  20792454.907    20792457.929   -54590690.574 9  36093630.931 7
  21546436.524    21546441.819   -14574835.281 8 -12718020.632 8
  20155647.501    20155650.283   -41812028.487 7  23855066.770 7
 88  3 28  5 54 59.0800000  0  4G 6G13G11G 9
  22286291.511    22286295.048      604254.244 8  -1070577.685 9
  20788445.562    20788450.413   -54611761.010 9  36077212.433 7
  21557269.177    21557273.285   -14517909.681 8 -12673663.028 9
  20160405.705    20160410.890   -41787018.761 7  23874554.845 8
 88  3 28  5 55 29.0800000  0  4G 6G13G11G 9
  22305440.839    22305446.833      704887.173 8   -992162.433 8
  20784515.271    20784520.880   -54632412.798 9  36061120.170 7
  21568140.083    21568145.096   -14460782.626 8 -12629148.438 8
  20165289.767    20165292.597   -41761355.310 7  23894552.358 6
 88  3 28  5 55 59.0800000  0  4G 6G13G11G 9
  22324662.265    22324667.697      805903.471 8   -913448.472 8
  20780664.807    20780669.592   -54652646.221 9  36045353.886 8
  21579048.054    21579054.475   -14403455.919 7 -12584478.292 8
  20170298.460    20170300.612   -41735037.837 8  23915059.486 7
 88  3 28  5 56 29.0800000  0  4G 6G13G11G 9
  22343958.961    22343963.280      907300.632 9   -834437.741 8
  20776894.168    20776898.806   -54672462.640 9  36029912.526 8
  21589994.214    21589999.761   -14345931.573 7 -12539654.181 9
  20175429.708    20175434.272   -41708067.157 8  23936075.590 8
 88  3 28  5 56 59.0800000  0  4G 6G13G11G 9
  22363326.606    22363331.627     1009076.502 8   -755131.880 8
  20773202.255    20773205.547   -54691862.834 8  36014795.509 8
  21600979.405    21600983.771   -14288211.343 7 -12494677.423 8
  20180686.161    20180691.796   -41680442.979 7  23957600.916 8
 88  3 28  5 57 29.0800000  0  4G 6G13G11G 9
  22382765.573    22382769.116     1111228.079 8   -675533.260 7
  20769589.942    20769594.650   -54710847.933 9  36000001.927 7
  21612000.905    21612004.891   -14230297.587 9 -12449549.840 9
  20186068.312    20186072.362   -41652165.658 7  23979635.191 7
 88  3 28  5 57 59.0800000  0  4G 6G13G11G 9
  22402274.680    22402279.168     1213752.897 9   -595643.826 8
  20766055.617    20766060.370   -54729419.002 8  35985530.958 7
  21623056.264    21623061.673   -14172192.674 8 -12404273.323 8
  20191573.938    20191577.014   -41623235.698 7  24002177.993 6
 88  3 28  5 58 29.0800000  0  4G 6G13G11G 9
  22421855.080    22421860.105     1316648.459 9   -515465.475 8
  20762600.709    20762605.046   -54747577.096 7  35971381.801 7
  21634150.363    21634154.206   -14113898.257 8 -12358849.111 8
  20197202.665    20197205.731   -41593653.281 8  24025229.232 8
 88  3 28  5 58 59.0800000  0  4G 6G13G11G 9
  22441506.338    22441511.193     1419912.173 8   -435000.268 8
  20759224.570    20759227.475   -54765322.957 8  35957553.841 8
  21645278.804    21645282.097   -14055416.350 9 -12313278.731 8
  20202957.255    20202959.729   -41563418.876 8  24048788.482 7
 88  3 28  5 59 29.0800000  0  4G 6G13G11G 9
  22461227.204    22461230.503     1523541.531 9   -354250.162 9
  20755923.325    20755929.494   -54782658.076 8  35944045.952 7
  21656443.142    21656446.717   -13996749.042 8 -12267563.877 9
  20208833.287    20208837.087   -41532532.783 7  24072855.571 7
 88  3 28  5 59 59.0800000  0  4G 6G13G11G 9
  22481014.195    22481020.204     1627533.971 8   -273217.110 9
  20752702.769    20752708.152   -54799583.421 8  35930857.356 7
  21667641.369    21667646.510   -13937898.574 9 -12221706.420 9
  20214833.800    20214838.427   -41500995.467 8  24097430.093 7
 88  3 28  6  0 29.0800000  0  4G 6G13G11G 9
  22500872.162    22500878.111     1731886.866 8   -191903.205 9
  20749560.502    20749564.623   -54816100.074 8  35917987.238 8
  21678876.254    21678878.588   -13878866.994 8 -12175707.755 8
  20220960.783    20220963.423   -41468807.513 8  24122511.612 7
 88  3 28  6  0 59.0800000  0  4G 6G13G11G 9
  22520799.628    22520803.514     1836597.264 8   -110310.701 9
  20746494.817    20746500.025   -54832209.504 8  35905434.464 8
  21690142.562    21690145.763   -13819656.756 9 -12129569.844 8
  20227209.941    20227211.907   -41435969.401 8  24148099.738 7
 88  3 28  6  1 29.0800000  0  4G 6G13G11G 9
  22540792.614    22540795.968     1941662.903 8    -28441.405 8
  20743507.329    20743511.382   -54847912.724 8  35893198.194 8
  21701441.774    21701449.030   -13760269.494 8 -12083294.097 9
  20233582.550    20233584.909   -41402481.333 7  24174194.319 7
 88  3 28  6  1 59.0800000  0  4G 6G13G11G 9
  22560852.590    22560857.207     2047081.016 9     53702.543 8
  20740595.424    20740601.895   -54863210.902 8  35881277.515 8
  21712779.139    21712781.776   -13700707.515 8 -12036882.144 7
  20240078.918    20240082.190   -41368344.417 8  24200794.491 7
 88  3 28  6  2 29.0800000  0  4G 6G13G11G 9
  22580978.438    22580984.138     2152849.253 8    136119.313 8
  20737762.135    20737765.871   -54878105.001 7  35869671.738 8
  21724143.173    21724148.614   -13640972.430 8 -11990335.301 8
  20246697.430    20246701.004   -41333558.476 8  24227900.391 7
 88  3 28  6  2 59.0800000  0  4G 6G13G11G 9
  22601171.183    22601176.428     2258964.885 8    218806.801 9
  20735004.141    20735007.547   -54892595.984 8  35858380.055 8
  21735544.252    21735549.840   -13581066.434 9 -11943655.309 9
  20253440.219    20253444.129   -41298124.373 8  24255511.373 7
 88  3 28  6  3 29.0800000  0  4G 6G13G11G 9
  22621431.386    22621435.688     2365424.779 8    301762.495 8
  20732322.928    20732328.125   -54906685.706 8  35847401.060 7
  21746976.264    21746981.058   -13520991.738 9 -11896843.858 9
  20260306.360    20260310.909   -41262043.020 7  24283626.716 7
 88  3 28  6  3 59.0800000  0  4G 6G13G11G 9
  22641756.095    22641760.496     2472226.837 8    384984.860 9
  20729717.970    20729722.565   -54920375.021 8  35836734.076 8
  21758438.241    21758444.807   -13460750.079 9 -11849902.330 8
  20267295.336    20267298.700   -41225314.906 6  24312246.022 7
 88  3 28  6  4 29.0800000  0  4G 6G13G11G 9
  22662143.396    22662147.619     2579368.108 9    468471.554 8
  20727186.185    20727193.700   -54933665.709 8  35826377.696 7
  21769934.530    21769939.076   -13400343.716 9 -11802832.405 8
  20274407.580    20274411.439   -41187940.751 7  24341368.721 7
 88  3 28  6  4 59.0800000  0  4G 6G13G11G 9
  22682594.957    22682599.964     2686845.989 9    552220.529 8
  20724734.280    20724741.253   -54946558.108 8  35816331.696 8
  21781461.742    21781466.689   -13339774.331 8 -11755635.462 9
  20281641.619    20281646.619   -41149921.274 8  24370994.270 6
 88  3 28  6  5 29.0800000  0  4G 6G13G11G 9
  22703110.022    22703115.924     2794657.543 9    636229.518 8
  20722357.394    20722362.407   -54959053.775 8  35806594.824 7
  21793015.492    21793023.409   -13279044.011 8 -11708313.146 9
  20288999.773    20289003.559   -41111257.305 7  24401122.015 8
 88  3 28  6  5 59.0800000  0  4G 6G13G11G 9
  22723691.365    22723695.884     2902800.254 8    720496.531 8
  20720054.921    20720059.371   -54971154.500 8  35797165.698 7
  21804604.544    21804607.974   -13218154.877 9 -11660867.077 8
  20296478.598    20296484.094   -41071949.676 8  24431751.328 8
 88  3 28  6  6 29.0800000  0  4G 6G13G11G 9
  22744331.081    22744336.188     3011271.288 9    805019.385 8
  20717827.052    20717832.148   -54982860.976 8  35788043.797 8
  21816220.202    21816226.109   -13157108.765 8 -11613298.654 8
  20304081.439    20304085.541   -41031998.886 7  24462881.814 7
 88  3 28  6  6 59.0800000  0  4G 6G13G11G 9
  22765035.544    22765039.764     3120068.390 9    889796.329 8
  20715673.779    20715677.556   -54994174.208 9  35779228.314 8
  21827865.975    21827872.653   -13095907.704 9 -11565609.552 9
  20311808.288    20311811.702   -40991405.940 7  24494512.654 9
 88  3 28  6  7 29.0800000  0  4G 6G13G11G 9
  22785798.490    22785804.520     3229188.039 8    974824.596 8
  20713595.082    20713601.007   -55005096.077 8  35770717.777 8
  21839542.306    21839547.022   -13034553.975 8 -11517801.450 8
  20319653.163    20319658.445   -40950171.922 9  24526643.044 7
 88  3 28  6  7 59.0800000  0  4G 6G13G11G 9
  22806626.091    22806630.617     3338628.120 8   1060102.534 8
  20711592.012    20711596.178   -55015627.254 8  35762511.669 8
  21851245.538    21851250.475   -12973049.003 8 -11469875.465 8
  20327621.388    20327625.476   -40908297.461 7  24559272.474 7
 88  3 28  6  8 29.0800000  0  4G 6G13G11G 9
  22827512.147    22827516.692     3448385.553 9   1145627.785 9
  20709661.918    20709666.783   -55025769.853 8  35754608.359 8
  21862977.192    21862983.206   -12911395.043 8 -11421833.424 8
  20335711.918    20335716.240   -40865783.740 6  24592400.031 8
 88  3 28  6  8 59.0800000  0  4G 6G13G11G 9
  22848458.777    22848463.156     3558457.662 9   1231398.222 9
  20707805.687    20707811.828   -55035525.149 8  35747006.836 8
  21874740.214    21874744.672   -12849594.052 9 -11373676.821 8
  20343924.153    20343927.692   -40822631.555 7  24626025.103 7
 88  3 28  6  9 29.0800000  0  4G 6G13G11G 9
  22869463.647    22869467.838     3668841.697 8   1317411.709 9
  20706021.391    20706026.068   -55044894.199 8  35739706.277 7
  21886526.518    21886531.205   -12787648.074 8 -11325407.192 9
  20352256.643    20352260.776   -40778841.831 8  24660146.943 8
 88  3 28  6  9 59.0800000  0  4G 6G13G11G 9
  22890527.177    22890532.216     3779534.525 9   1403665.832 9
  20704312.829    20704316.924   -55053878.570 8  35732705.471 8
  21898339.602    21898345.999   -12725559.092 8 -11277026.145 9
  20360710.621    20360714.389   -40734416.089 8  24694764.378 7
 88  3 28  6 10 29.0800000  0  4G 6G13G11G 9
  22911649.695    22911654.851     3890533.794 8   1490158.754 9
  20702676.561    20702681.531   -55062479.711 9  35726003.268 8
  21910184.071    21910189.175   -12663328.745 9 -11228534.956 9
  20369285.649    20369289.372   -40689355.040 7  24729876.878 7
 88  3 28  6 10 59.0800000  0  4G 6G13G11G 9
  22932830.286    22932835.533     4001837.064 9   1576888.533 8
  20701111.608    20701117.306   -55070697.622 8  35719599.691 8
  21922052.645    21922058.308   -12600958.402 8 -11179934.692 9
  20377980.709    20377984.544   -40643659.033 7  24765484.108 8
 88  3 28  6 11 29.0800000  0  4G 6G13G11G 9
  22954068.515    22954072.247     4113440.695 8   1663852.378 9
  20699620.550    20699625.088   -55078535.237 8  35713492.456 7
  21933948.486    21933950.940   -12538451.028 8 -11131227.629 8
  20386797.006    20386799.979   -40597330.255 8  24801584.449 7
 88  3 28  6 11 59.0800000  0  4G 6G13G11G 9
  22975362.756    22975366.936     4225341.878 9   1751048.084 9
  20698200.965    20698206.934   -55085993.372 9  35707680.920 7
  21945867.063    21945871.486   -12475808.302 8 -11082415.064 8
  20395732.860    20395737.340   -40550369.837 8  24838176.988 8
 88  3 28  6 12 29.0800000  0  4G 6G13G11G 9
  22996711.516    22996717.882     4337538.703 9   1838474.151 8
  20696854.186    20696859.011   -55093072.911 8  35702164.413 8
  21957813.552    21957818.575   -12413031.218 8 -11033497.871 9
  20404788.911    20404794.281   -40502778.166 9  24875261.383 6
 88  3 28  6 12 59.0800000  0  4G 6G13G11G 9
  23018118.546    23018123.212     4450027.690 9   1926127.891 8
  20695578.578    20695584.435   -55099776.212 9  35696941.075 8
  21969785.358    21969790.805   -12350122.682 9 -10984478.269 9
  20413965.675    20413969.285   -40454556.980 9  24912836.329 7
 88  3 28  6 13 29.0800000  0  4G 6G13G11G 9
  23039579.820    23039583.566     4562806.369 8   2014007.350 9
  20694374.563    20694379.200   -55106103.803 8  35692010.494 8
  21981781.542    21981784.183   -12287083.919 9 -10935357.142 7
  20423262.235    20423266.212   -40405706.845 9  24950901.367 7
 88  3 28  6 13 59.0800000  0  4G 6G13G11G 9
  23061096.410    23061099.711     4675872.046 9   2102110.436 8
  20693242.076    20693245.197   -55112057.273 9  35687371.445 7
  21993800.350    21993804.751   -12223916.809 8 -10886136.002 8
  20432677.772    20432681.484   -40356229.223 8  24989455.335 7
 88  3 28  6 14 29.0800000  0  4G 6G13G11G 9
  23082665.758    23082669.651     4789220.765 9   2190434.090 9
  20692178.978    20692183.286   -55117639.108 8  35683021.944 8
  22005846.268    22005850.286   -12160624.091 8 -10836817.004 8
  20442211.826    20442213.258   -40306126.479 9  25028496.432 7
 88  3 28  6 14 59.0800000  0  4G 6G13G11G 9
  23104288.026    23104293.342     4902849.670 9   2278976.071 8
  20691187.439    20691192.776   -55122850.883 8  35678960.825 8
  22017913.462    22017919.174   -12097207.599 9 -10787401.508 8
  20451865.508    20451866.889   -40255399.590 7  25068023.859 7
 88  3 28  6 15 29.0800000  0  4G 6G13G11G 9
  23125962.944    23125967.699     5016756.930 8   2367734.949 8
  20690266.427    20690271.351   -55127692.686 8  35675188.032 7
  22030002.973    22030009.090   -12033668.336 7 -10737890.426 9
  20461636.097    20461639.894   -40204049.255 9  25108037.097 7
 88  3 28  6 15 59.0800000  0  4G 6G13G11G 9
  23147690.974    23147697.034     5130940.506 8   2456709.101 9
  20689414.586    20689420.041   -55132165.223 8  35671702.939 8
  22042119.212    22042123.494   -11970007.299 8 -10688284.470 8
  20471525.295    20471528.081   -40152075.834 7  25148535.847 7
 88  3 28  6 16 29.0800000  0  4G 6G13G11G 9
  23169472.487    23169476.442     5245397.017 9   2545895.993 9
  20688634.168    20688638.075   -55136270.553 8  35668504.054 7
  22054256.266    22054261.461   -11906226.629 9 -10638585.198 9
  20481534.209    20481538.141   -40099481.266 8  25189518.623 7
 88  3 28  6 16 59.0800000  0  4G 6G13G11G 9
  23191304.017    23191308.189     5360123.046 8   2635292.864 9
  20687921.394    20687927.395   -55140011.096 8  35665589.346 8
  22066414.936    22066419.452   -11842328.873 7 -10588794.755 8
  20491660.949    20491663.759   -40046267.497 9  25230983.891 6
 88  3 28  6 17 29.0800000  0  4G 6G13G11G 9
  23213187.389    23213190.353     5475115.688 8   2724897.486 9
  20687279.346    20687284.768   -55143388.166 9  35662957.849 7
  22078596.601    22078601.433   -11778315.784 8 -10538914.427 9
  20501904.310    20501908.302   -39992436.008 7  25272930.508 7
 88  3 28  6 17 59.0800000  0  4G 6G13G11G 9
  23235119.498    23235122.589     5590372.056 9   2814707.621 9
  20686705.276    20686711.375   -55146402.628 8  35660608.947 8
  22090798.057    22090804.556   -11714188.851 8 -10488945.444 8
  20512266.064    20512271.999   -39937988.231 7  25315357.322 6
 88  3 28  6 18 29.0800000  0  4G 6G13G11G 9
  23257101.142    23257105.804     5705889.337 9   2904721.060 9
  20686199.776    20686206.950   -55149056.016 9  35658541.391 8
  22103023.186    22103028.183   -11649949.961 8 -10438889.173 9
  20522742.092    20522747.234   -39882925.706 8  25358263.179 8
 88  3 28  6 18 59.0800000  0  4G 6G13G11G 9
  23279134.611    23279137.038     5821664.585 9   2994935.516 8
  20685762.831    20685770.947   -55151350.158 9  35656753.749 8
  22115268.622    22115273.000   -11585600.890 8 -10388747.026 9
  20533339.025    20533342.696   -39827249.817 7  25401646.974 7
 88  3 28  6 19 29.0800000  0  4G 6G13G11G 9
  23301212.900    23301217.498     5937695.107 9   3085348.880 8
  20685395.575    20685401.570   -55153286.601 8  35655244.827 8
  22127534.085    22127538.550   -11521143.219 8 -10338520.284 8
  20544049.690    20544054.054   -39770961.794 9  25445507.751 7
 88  3 28  6 19 59.0800000  0  4G 6G13G11G 9
  23323340.439    23323343.888     6053977.797 8   3175958.745 8
  20685095.282    20685099.734   -55154866.674 8  35654013.625 7
  22139820.366    22139825.641   -11456578.924 8 -10288210.451 9
  20554875.643    20554881.328   -39714063.750 8  25489843.903 9
 88  3 28  6 20 29.0800000  0  4G 6G13G11G 9
  23345515.173    23345519.155     6170509.726 8   3266762.793 9
  20684861.787    20684867.328   -55156092.252 8  35653058.655 8
  22152126.388    22152132.821   -11391909.822 8 -10237818.961 9
  20565821.634    20565824.821   -39656557.108 7  25534654.257 8
 88  3 28  6 20 59.0800000  0  4G 6G13G11G 9
  23367737.770    23367742.201     6287287.875 8   3357758.723 8
  20684695.816    20684700.683   -55156964.874 9  35652378.702 8
  22164452.822    22164457.870   -11327137.929 8 -10187347.344 9
  20576879.939    20576883.406   -39598443.759 8  25579937.346 7
 88  3 28  6 21 29.0800000  0  4G 6G13G11G 9
  23390007.022    23390011.346     6404309.610 8   3448944.451 9
  20684598.258    20684602.321   -55157485.706 8  35651972.866 9
  22176796.948    22176801.996   -11262264.759 7 -10136796.829 8
  20588052.204    20588056.309   -39539724.859 8  25625692.303 8
 88  3 28  6 21 59.0800000  0  4G 6G13G11G 9
  23412318.185    23412325.870     6521572.042 8   3540317.727 8
  20684564.987    20684568.268   -55157656.476 8  35651839.811 8
  22189160.636    22189166.025   -11197291.590 8 -10086168.386 8
  20599342.479    20599345.038   -39480402.281 9  25671917.683 7
 88  3 28  6 22 29.0800000  0  4G 6G13G11G 9
  23434678.074    23434685.979     6639071.758 8   3631875.922 8
  20684598.745    20684603.441   -55157478.969 8  35651978.168 8
  22201544.017    22201549.636   -11132220.828 9 -10035463.878 8
  20610743.773    20610748.573   -39420477.999 8  25718611.919 7
 88  3 28  6 22 59.0800000  0  4G 6G13G11G 9
  23457082.194    23457089.284     6756806.212 8   3723617.034 8
  20684698.052    20684702.147   -55156954.321 9  35652386.977 7
  22213945.252    22213949.927   -11067053.604 8  -9984684.244 9
  20622261.838    20622266.274   -39359953.522 8  25765773.835 7
 88  3 28  6 23 29.0800000  0  4G 6G13G11G 9
  23479531.558    23479537.500     6874772.432 8   3815538.746 8
  20684863.553    20684868.620   -55156083.640 9  35653065.440 7
  22226364.407    22226368.736   -11001791.649 8  -9933830.797 8
  20633894.296    20633897.929   -39298830.595 8  25813402.082 8
 88  3 28  6 23 59.0800000  0  4G 6G13G11G 9
  23502023.931    23502028.211     6992967.416 9   3907638.716 8
  20685094.063    20685100.175   -55154868.933 9  35654011.977 7
  22238800.682    22238804.047   -10936436.825 8  -9882904.922 9
  20645638.298    20645643.357   -39237110.984 9  25861495.262 8
 88  3 28  6 24 29.0800000  0  4G 6G13G11G 9
  23524559.426    23524563.726     7111388.591 8   3999914.959 8
  20685391.824    20685396.345   -55153311.455 8  35655225.622 9
  22251253.972    22251259.794   -10870990.438 9  -9831907.697 8
  20657497.036    20657499.846   -39174796.129 8  25910052.270 8
 88  3 28  6 24 59.0800000  0  4G 6G13G11G 9
  23547135.632    23547139.962     7230032.449 9   4092364.720 8
  20685751.029    20685757.626   -55151413.924 8  35656704.233 8
  22263726.061    22263730.547   -10805454.696 8  -9780840.922 8
  20669468.078    20669470.560   -39111888.476 9  25959071.216 8
 88  3 28  6 25 29.0800000  0  4G 6G13G11G 9
  23569755.802    23569759.866     7348896.187 8   4184985.801 8
  20686178.546    20686182.038   -55149177.341 8  35658447.049 8
  22276213.581    22276219.847   -10739830.801 8  -9729705.452 9
  20681550.578    20681554.852   -39048389.547 9  26008550.892 8
 88  3 28  6 25 59.0800000  0  4G 6G13G11G 9
  23592416.125    23592420.523     7467976.970 9   4277775.986 9
  20686667.275    20686672.616   -55146603.167 8  35660452.870 8
  22288718.208    22288721.295   -10674120.442 8  -9678502.534 7
  20693746.485    20693749.725   -38984301.266 9  26058489.793 7
 88  3 28  6 26 29.0800000  0  4G 6G13G11G 9
  23615116.457    23615120.295     7587271.562 9   4370732.789 9
  20687220.286    20687225.149   -55143692.934 8  35662720.530 8
  22301237.686    22301242.569   -10608325.633 8  -9627233.802 9
  20706053.775    20706058.524   -38919625.894 8  26108886.170 8
 88  3 28  6 26 59.0800000  0  4G 6G13G11G 9
  23637857.852    23637861.668     7706777.166 8   4463854.041 8
  20687839.859    20687844.027   -55140447.955 8  35665249.053 8
  22313773.548    22313778.701   -10542447.736 8  -9575900.384 8
  20718472.913    20718476.581   -38854364.875 8  26159738.900 7
 88  3 28  6 27 29.0800000  0  4G 6G13G11G 9
  23660637.846    23660641.937     7826491.029 6   4557137.521 8
  20688519.748    20688524.546   -55136869.981 8  35668037.130 9
  22326325.266    22326331.347   -10476488.362 9  -9524503.463 9
  20731003.174    20731006.139   -38788520.384 8  26211046.298 7
 88  3 28  6 27 59.0800000  0  4G 6G13G11G 9
  23683457.505    23683463.426     7946409.931 7   4650580.778 8
  20689262.796    20689269.081   -55132960.961 9  35671083.136 8
  22338892.812    22338898.754   -10410449.205 8  -9473044.376 9
  20743642.114    20743647.598   -38722094.559 8  26262806.659 7
 88  3 28  6 28 29.0800000  0  4G 6G13G11G 9
  23706316.107    23706321.308     8066531.039 8   4744181.594 7
  20690071.039    20690075.033   -55128722.236 8  35674386.074 8
  22351474.792    22351478.423   -10344331.701 7  -9421524.237 9
  20756393.041    20756396.674   -38655089.171 8  26315018.629 6
 88  3 28  6 28 59.0800000  0  4G 6G13G11G 9
  23729211.971    23729219.733     8186851.072 7   4837937.453 9
  20690939.120    20690943.944   -55124155.663 8  35677944.458 8
  22364070.003    22364073.990   -10278137.844 8  -9369944.579 9
  20769253.907    20769258.462   -38587506.476 8  26367680.444 7
 88  3 28  6 29 29.0800000  0  4G 6G13G11G 9
  23752145.998    23752152.411     8307367.377 8   4931846.175 8
  20691870.078    20691873.899   -55119262.643 9  35681757.240 8
  22376680.021    22376685.187   -10211868.903 8  -9318306.444 8
  20782224.219    20782228.170   -38519348.137 9  26420790.809 8
 88  3 28  6 29 59.0800000  0  4G 6G13G11G 9
  23775116.036    23775121.777     8428077.127 8   5025905.719 8
  20692863.955    20692867.533   -55114044.940 8  35685823.026 7
  22389306.665    22389311.233   -10145526.043 9  -9266610.707 8
  20795303.388    20795305.822   -38450616.357 8  26474348.037 8
 88  3 28  6 30 29.0800000  0  4G 6G13G11G 9
  23798123.517    23798127.197     8548977.250 8   5120113.615 9
  20693918.142    20693922.979   -55108503.888 9  35690140.783 8
  22401944.945    22401950.602   -10079110.815 8  -9214858.555 9
  20808491.802    20808495.262   -38381313.079 8  26528350.561 7
 88  3 28  6 30 59.0800000  0  4G 6G13G11G 9
  23821165.577    23821169.572     8670064.796 8   5214467.537 8
  20695032.843    20695038.354   -55102641.095 8  35694709.238 8
  22414595.194    22414601.436   -10012624.769 7  -9163051.230 9
  20821787.193    20821791.364   -38311440.545 8  26582796.673 7
 88  3 28  6 31 29.0800000  0  4G 6G13G11G 9
  23844242.174    23844246.852     8791336.427 7   5308964.879 9
  20696209.404    20696213.684   -55096459.021 9  35699526.431 7
  22427259.331    22427266.746    -9946069.781 7  -9111190.196 9
  20835192.898    20835195.225   -38241000.937 7  26637684.671 7
 88  3 28  6 31 59.0800000  0  4G 6G13G11G 9
  23867354.979    23867358.301     8912789.300 8   5403603.452 9
  20697447.119    20697451.128   -55089959.114 8  35704591.276 8
  22439939.565    22439944.025    -9879447.630 8  -9059276.824 9
  20848703.833    20848706.789   -38169996.643 9  26693012.656 8
 88  3 28  6 32 29.0800000  0  4G 6G13G11G 9
  23890500.779    23890504.622     9034420.546 8   5498381.022 8
  20698744.073    20698747.957   -55083142.281 8  35709903.088 9
  22452629.673    22452632.787    -9812759.323 9  -9007311.884 8
  20862322.078    20862324.791   -38098429.454 8  26748779.283 8
 88  3 28  6 32 59.0800000  0  4G 6G13G11G 9
  23913679.522    23913683.081     9156227.119 6   5593295.220 7
  20700101.031    20700106.612   -55076010.490 8  35715460.314 8
  22465331.578    22465336.323    -9746006.668 7  -8955296.816 9
  20876047.502    20876051.203   -38026301.879 9  26804982.572 7
 88  3 28  6 33 29.0800000  0  4G 6G13G11G 9
  23936891.602    23936895.905     9278205.825 7   5688343.541 8
  20701517.915    20701522.017   -55068565.716 8  35721261.417 7
  22478045.023    22478051.264    -9679191.075 7  -8903232.750 9
  20889879.313    20889883.472   -37953616.124 9  26861620.805 7
 88  3 28  6 33 59.0800000  0  4G 6G13G11G 9
  23960134.660    23960139.827     9400353.830 8   5783523.757 8
  20702993.072    20702997.931   -55060809.408 8  35727305.304 8
  22490773.172    22490776.979    -9612314.019 8  -8851120.726 9
  20903816.639    20903821.713   -37880374.277 9  26918692.356 9
 88  3 28  6 34 29.0800000  0  4G 6G13G11G 9
  23983408.101    23983415.832     9522668.225 7   5878833.652 8
  20704528.130    20704533.526   -55052743.072 8  35733590.776 8
  22503510.727    22503514.708    -9545376.856 7  -8798961.870 8
  20917860.154    20917864.384   -37806578.746 9  26976195.368 7
 88  3 28  6 34 59.0800000  0  4G 6G13G11G 9
  24006716.486    24006723.778     9645146.129 7   5974270.941 8
  20706121.804    20706126.906   -55044368.384 7  35740116.510 7
  22516258.673    22516263.570    -9478380.760 7  -8746757.134 9
  20932008.400    20932011.999   -37732231.615 8  27034128.165 7
 88  3 28  6 35 29.0800000  0  4G 6G13G11G 9
  24030052.428    24030060.303     9767784.673 7   6069833.390 8
  20707775.222    20707778.838   -55035686.212 9  35746881.848 8
  22529019.296    22529024.233    -9411327.246 7  -8694507.632 9
  20946260.843    20946263.153   -37657334.904 9  27092489.220 8
 88  3 28  6 35 59.0800000  0  4G 6G13G11G 9
  24053421.668    24053427.524     9890580.484 7   6165518.386 8
  20709485.963    20709489.200   -55026699.510 8  35753884.476 9
  22541789.828    22541794.882    -9344218.122 7  -8642214.809 8
  20960616.340    20960621.171   -37581891.451 8  27151276.311 8
 88  3 28  6 36 29.0800000  0  4G 6G13G11G 9
  24076817.900    24076824.778    10013530.467 6   6261323.520 8
  20711252.212    20711258.188   -55017409.318 8  35761123.589 8
  22554570.656    22554574.800    -9277054.690 7  -8589879.659 8
  20975077.557    20975080.641   -37505903.666 9  27210487.552 7
 88  3 28  6 36 59.0800000  0  4G 6G13G11G 9
  24100244.766    24100250.468    10136631.646 8   6357246.460 8
  20713077.300    20713082.216   -55007817.199 8  35768597.995 8
  22567360.507    22567364.250    -9209838.619 8  -8537503.475 8
  20989639.950    20989643.279   -37429374.041 8  27270120.996 8
 88  3 28  6 37 29.0800000  0  4G 6G13G11G 9
  24123698.193    24123702.294    10259881.061 7   6453284.952 8
  20714959.161    20714965.045   -54997925.909 8  35776305.489 8
  22580161.604    22580166.590    -9142571.128 8  -8485087.235 8
  21004305.531    21004310.006   -37352304.705 8  27330175.035 8
 88  3 28  6 37 59.0800000  0  4G 6G13G11G 9
  24147179.960    24147183.433    10383275.917 8   6549436.757 8
  20716898.411    20716903.470   -54987736.437 8  35784245.314 7
  22592971.828    22592976.196    -9075253.511 9  -8432631.955 9
  21019074.636    21019078.065   -37274698.014 8  27390647.758 8
 88  3 28  6 38 29.0800000  0  4G 3G13G11G 9
                  23078530.513   -95837803.231 9
  20718893.792    20718897.866   -54977250.300 9  35792416.370 8
  22605791.351    22605796.088    -9007887.159 8  -8380138.709 8
  21033943.445    21033947.348   -37196556.681 8  27451537.080 7
 88  3 28  6 38 59.0800000  0  4G 3G13G11G 9
  23066723.458    23066727.133   -95900038.128 8 121618860.777 7
  20720946.023    20720950.777   -54966469.337 8  35800817.167 8
  22618619.797    22618623.437    -8940473.473 9  -8327608.565 9
  21048915.406    21048918.911   -37117882.849 9  27512841.338 6
 88  3 28  6 39 29.0800000  0  4G 3G13G11G 9
  23054924.767    23054929.061   -95962035.895 8 121570550.874 7
  20723053.090    20723058.697   -54955394.981 8  35809446.501 9
  22631457.464    22631461.686    -8873013.875 9  -8275042.618 7
  21063986.357    21063989.553   -37038679.122 9  27574558.517 7
 88  3 28  6 39 59.0800000  0  4G 3G13G11G 9
  23043172.232    23043177.431   -96023797.401 7 121522425.102 8
  20725216.514    20725220.068   -54944029.170 9  35818302.990 8
  22644301.277    22644307.233    -8805509.794 7  -8222442.041 8
  21079159.455    21079162.695   -36958947.907 8  27636686.715 7
 88  3 28  6 40 29.0800000  0  4G 3G13G11G 9
  23031464.371    23031467.948   -96085322.768 6 121474483.309 8
  20727434.442    20727438.103   -54932373.799 9  35827385.110 7
  22657154.998    22657160.536    -8737962.338 8  -8169807.645 8
  21094429.806    21094435.681   -36878691.741 8  27699223.972 7
 88  3 28  6 40 59.0800000  0  4G 3G13G11G 9
  23019801.627    23019806.452   -96146612.086 8 121426725.444 8
  20729707.423    20729710.480   -54920430.017 8  35836691.967 7
  22670017.102    22670022.585    -8670372.936 9  -8117140.590 8
  21109802.882    21109807.934   -36797913.147 8  27762168.313 8
 88  3 28  6 41 29.0800000  0  4G 3G13G11G 9
  23008183.342    23008188.057   -96207665.564 8 121379151.393 8
  20732033.711    20732039.134   -54908199.992 9  35846221.789 9
  22682886.846    22682892.630    -8602742.719 8  -8064441.736 8
  21125272.466    21125277.681   -36716614.834 7  27825517.611 7
 88  3 28  6 41 59.0800000  0  4G 3G13G11G 9
  22996610.198    22996614.835   -96268483.666 8 121331760.715 6
  20734415.836    20734420.069   -54895685.139 9  35855973.568 8
  22695765.402    22695768.526    -8535073.394 9  -8011712.351 8
  21140843.055    21140846.688   -36634799.159 8  27889270.071 7
 88  3 28  6 42 29.0800000  0  4G 3G13G11G 9
  22985081.446    22985085.407   -96329067.033 8 121284552.976 8
  20736851.416    20736856.393   -54882886.953 9  35865946.194 8
  22708648.205    22708654.166    -8467365.578 8  -7958953.040 9
  21156510.031    21156512.999   -36552468.874 8  27953423.537 8
 88  3 28  6 42 59.0800000  0  4G 3G13G11G 9
  22973596.541    22973601.185   -96389415.977 8 121237527.889 9
  20739339.106    20739343.629   -54869807.854 9  35876137.701 8
  22721539.039    22721543.968    -8399621.293 8  -7906165.301 8
  21172272.305    21172278.029   -36469626.864 7  28017975.725 7
 88  3 28  6 43 29.0800000  0  4G 3G13G11G 9
  22962158.953    22962163.100   -96449529.556 7 121190686.185 8
  20741882.892    20741886.826   -54856448.184 8  35886547.850 8
  22734437.055    22734443.241    -8331841.215 8  -7853349.644 8
  21188135.600    21188138.278   -36386275.232 8  28082925.013 7
 88  3 28  6 43 59.0800000  0  4G 3G13G11G 9
  22950762.133    22950768.825   -96509409.026 8 121144026.910 7
  20744476.505    20744484.076   -54842810.671 8  35897174.504 8
  22747342.780    22747346.538    -8264026.981 8  -7800507.382 8
  21204092.765    21204096.456   -36302416.559 9  28148269.423 7
 88  3 28  6 44 29.0800000  0  4G 3G13G11G 9
  22939412.590    22939417.580   -96569054.534 7 121097549.929 8
  20747125.821    20747129.391   -54828896.955 9  35908016.396 7
  22760253.063    22760259.272    -8196179.845 9  -7747639.513 8
  21220145.875    21220149.424   -36218054.066 8  28214006.421 7
 88  3 28  6 44 59.0800000  0  4G 3G13G11G 9
  22928106.915    22928111.963   -96628466.428 8 121051255.019 7
  20749825.892    20749828.522   -54814708.863 9  35919072.107 8
  22773169.876    22773175.517    -8128300.733 8  -7694746.714 9
  21236296.001    21236298.464   -36133189.944 8  28280134.300 7
 88  3 28  6 45 29.0800000  0  4G 3G13G11G 9
  22916847.281    22916849.801   -96687644.977 8 121005141.937 8
  20752577.838    20752581.545   -54800248.071 8  35930340.265 8
  22786092.733    22786099.088    -8060391.271 8  -7641830.261 9
  21252538.921    21252543.603   -36047827.237 8  28346650.676 8
 88  3 28  6 45 59.0800000  0  4G 3G13G11G 9
  22905627.894    22905633.237   -96746590.089 7 120959210.710 7
  20755380.565    20755384.303   -54785515.441 9  35941820.280 8
  22799022.405    22799027.850    -7992452.377 9  -7588890.880 9
  21268878.372    21268881.574   -35961968.337 9  28413553.706 8
 88  3 28  6 46 29.0800000  0  4G 3G13G11G 9
  22894457.527    22894461.618   -96805302.234 8 120913461.027 7
  20758235.404    20758238.930   -54770513.001 8  35953510.469 8
  22811956.238    22811959.529    -7924485.260 8  -7535929.498 9
  21285311.731    21285313.851   -35875615.887 8  28480841.307 8
 88  3 28  6 46 59.0800000  0  4G 3G13G11G 9
  22883328.324    22883332.981   -96863781.567 7 120867892.750 8
  20761141.004    20761144.170   -54755243.047 8  35965409.157 8
  22824895.205    22824898.960    -7856491.551 9  -7482947.365 9
  21301835.556    21301839.676   -35788773.018 8  28548511.068 8
 88  3 28  6 47 29.0800000  0  4G 3G13G11G 9
  22872244.400    22872248.003   -96922029.037 8 120822505.134 8
  20764098.500    20764101.308   -54739707.016 8  35977515.113 7
  22837838.772    22837841.482    -7788472.085 7  -7429945.187 8
  21318453.548    21318457.480   -35701442.350 8  28616560.927 8
 88  3 28  6 47 59.0800000  0  4G 3G13G11G 9
  22861203.315    22861207.773   -96980044.730 8 120777298.085 8
  20767104.190    20767109.349   -54723906.503 8  35989827.254 8
  22850785.921    22850791.524    -7720427.970 8  -7376923.840 9
  21335165.582    21335169.583   -35613626.739 9  28684988.647 8
 88  3 28  6 48 29.0800000  0  4G 3G13G11G 9
  22850208.086    22850212.933   -97037828.745 9 120732271.597 8
  20770161.133    20770165.502   -54707843.173 9  36002344.107 7
  22863739.171    22863744.238    -7652360.284 8  -7323884.104 9
  21351966.532    21351973.100   -35525328.651 8  28753792.316 8
 88  3 28  6 48 59.0800000  0  4G 3G13G11G 9
  22839255.636    22839259.848   -97095381.213 8 120687425.543 8
  20773268.188    20773271.697   -54691518.633 9  36015064.508 8
  22876697.139    22876702.385    -7584270.311 9  -7270826.969 9
  21368861.820    21368865.296   -35436551.051 9  28822969.657 8
 88  3 28  6 49 29.0800000  0  4G 3G13G11G 9
  22828347.737    22828352.137   -97152703.198 7 120642759.088 7
  20776424.704    20776426.853   -54674934.860 9  36027986.875 8
  22889657.363    22889662.078    -7516159.163 9  -7217753.322 9
  21385847.028    21385849.732   -35347296.628 8  28892518.530 8
 88  3 28  6 49 59.0800000  0  4G 3G13G11G 9
  22817483.947    22817488.436   -97209795.058 8 120598271.964 8
  20779627.432    20779633.306   -54658093.286 8  36041110.115 8
  22902621.297    22902627.145    -7448028.069 8  -7164664.157 8
  21402921.455    21402925.549   -35257568.461 8  28962436.575 8
 88  3 28  6 50 29.0800000  0  4G 3G13G11G 9
  22806664.094    22806669.139   -97266656.345 7 120553964.510 8
  20782882.775    20782886.043   -54640995.488 9  36054433.125 8
  22915590.459    22915595.068    -7379877.954 8  -7111560.196 8
  21420084.517    21420088.683   -35167369.375 9  29032721.555 8
 88  3 28  6 50 59.0800000  0  4G 3G13G11G 9
  22795886.762    22795890.158   -97323287.978 8 120509836.031 7
  20786185.157    20786187.063   -54623643.336 8  36067954.289 8
  22928564.297    22928568.296    -7311710.385 9  -7058442.631 8
  21437339.624    21437342.270   -35076701.963 8  29103371.459 8
 88  3 28  6 51 29.0800000  0  4G 3G13G11G 9
  22785154.342    22785158.767   -97379690.209 8 120465886.215 7
  20789532.985    20789538.926   -54606038.422 8  36081672.320 8
  22941538.728    22941543.723    -7243526.114 9  -7005312.019 9
  21454682.161    21454684.610   -34985569.362 8  29174383.859 8
 88  3 28  6 51 59.0800000  0  4G 3G13G11G 9
  22774463.903    22774469.307   -97435863.404 7 120422114.935 8
  20792931.968    20792936.346   -54588181.987 8  36095586.442 8
  22954516.920    22954521.285    -7175326.098 8  -6952169.135 9
  21472109.898    21472114.722   -34893974.273 8  29245756.637 8
 88  3 28  6 52 29.0800000  0  4G 3G13G11G 9
  22763818.476    22763823.491   -97491807.800 8 120378521.969 8
  20796376.883    20796380.339   -54570076.667 9  36109694.455 8
  22967496.862    22967500.837    -7107111.656 7  -6899015.035 9
  21489628.439    21489630.772   -34801919.755 9  29317487.404 9
 88  3 28  6 52 59.0800000  0  4G 3G13G11G 9
  22753216.895    22753220.357   -97547523.837 8 120335106.920 8
  20799868.676    20799873.663   -54551723.499 8  36123995.653 8
  22980480.635    22980484.907    -7038883.921 7  -6845850.582 8
  21507233.508    21507236.425   -34709408.566 8  29389574.045 7
 88  3 28  6 53 29.0800000  0  4G 3G13G11G 9
  22742657.004    22742662.218   -97603012.398 7 120291869.096 8
  20803409.447    20803412.130   -54533124.895 7  36138488.058 8
  22993464.026    22993470.740    -6970643.772 7  -6792676.487 8
  21524922.029    21524927.653   -34616444.163 8  29462013.840 7
 88  3 28  6 53 59.0800000  0  4G 3G13G11G 9
  22732139.197    22732145.057   -97658273.568 8 120248808.469 8
  20806993.958    20806998.434   -54514281.881 9  36153170.881 8
  23006453.689    23006458.862    -6902392.203 9  -6739493.448 9
  21542699.207    21542702.644   -34523028.996 8  29534804.841 8
 88  3 28  6 54 29.0800000  0  4G 3G13G11G 9
  22721669.388    22721673.701   -97713308.103 8 120205924.407 8
  20810628.084    20810631.244   -54495195.863 9  36168043.061 7
  23019444.470    23019449.479    -6834130.231 9  -6686302.302 9
  21560560.798    21560564.262   -34429165.973 8  29607944.852 8
 88  3 28  6 54 59.0800000  0  4G 3G13G11G 9
  22711235.854    22711244.732   -97768116.537 7 120163216.565 7
  20814304.594    20814309.765   -54475868.766 9  36183103.139 8
  23032435.671    23032440.068    -6765858.805 8  -6633103.778 9
  21578505.929    21578511.677   -34334858.262 8  29681431.367 8
 88  3 28  6 55 29.0800000  0  4G 3G13G11G 9
  22700852.745    22700856.606   -97822698.716 8 120120684.994 8
  20818027.895    20818031.897   -54456302.187 9  36198349.858 7
  23045427.148    23045432.693    -6697579.352 7  -6579899.022 9
  21596537.856    21596541.004   -34240108.939 7  29755261.988 7
 88  3 28  6 55 59.0800000  0  4G 3G13G11G 9
  22690508.923    22690512.287   -97877055.082 7 120078329.416 9
  20821795.324    20821800.926   -54436497.885 9  36213781.786 8
  23058422.446    23058427.581    -6629292.527 9  -6526688.580 9
  21614651.057    21614653.864   -34144920.731 8  29829434.587 7
 88  3 28  6 56 29.0800000  0  4G 3G13G11G 9
  22680208.264    22680208.894   -97931186.635 1 120036149.015 1
                  20825611.219   -54416471.542 7
  23071419.122    23071423.757    -6560999.603 8  -6473473.298 8
  21632846.880    21632852.104   -34049297.047 8  29903946.510 7
 88  3 28  6 56 59.0800000  0  4G 3G13G11G 9
  22669948.626    22669954.210   -97985093.449 8 119994143.710 8
  20829468.477    20829471.198   -54396200.362 9  36443974.772 1
  23084414.872    23084420.354    -6492700.842 9  -6420253.465 9
  21651126.421    21651129.827   -33953239.940 8  29978796.186 8
 88  3 28  6 57 29.0800000  0  4G 3G13G11G 9
  22659734.091    22659738.668   -98038775.494 8 119952313.550 9
  20833369.502    20833376.366   -54375692.785 8  36459954.720 8
  23097413.262    23097418.146    -6424397.396 9  -6367030.001 9
  21669487.299    21669490.781   -33856753.006 8  30053980.783 8
 88  3 28  6 57 59.0800000  0  4G 3G13G11G 9
  22649560.984    22649564.736   -98092234.051 8 119910657.526 8
  20837316.995    20837320.672   -54354954.706 8  36476114.252 8
  23110411.065    23110416.202    -6356090.981 9  -6313804.216 8
  21687929.403    21687932.218   -33759839.782 7  30129497.564 7
 88  3 28  6 58 29.0800000  0  4G 3G13G11G 9
  22639430.001    22639435.123   -98145469.640 9 119869175.252 8
  20841306.775    20841311.072   -54333987.400 9  36492452.378 8
  23123410.367    23123414.474    -6287782.007 7  -6260576.434 9
  21706452.192    21706455.420   -33662503.352 8  30205344.093 7
 88  3 28  6 58 59.0800000  0  4G 3G13G11G 9
  22629341.774    22629347.548   -98198482.865 8 119827866.229 8
  20845339.146    20845343.165   -54312792.441 9  36508967.892 8
  23136408.694    23136414.268    -6219471.746 8  -6207347.703 9
  21725054.052    21725058.067   -33564746.382 8  30281518.332 8
 88  3 28  6 59 29.0800000  0  4G 3G13G11G 9
  22619297.267    22619301.694   -98251273.612 8 119786730.627 8
  20849417.162    20849421.511   -54291371.363 9  36525659.676 8
  23149407.600    23149413.951    -6151160.959 8  -6154118.530 9
  21743735.833    21743740.837   -33466571.876 8  30358017.937 8
 88  3 28  6 59 59.0800000  0  4G 3G13G11G 9
  22609293.127    22609298.322   -98303842.347 9 119745768.010 9
  20853535.113    20853539.112   -54269725.251 8  36542526.819 8
  23162407.801    23162412.192    -6082850.217 8  -6100889.370 9
  21762496.446    21762503.273   -33367982.810 8  30434840.586 8
 88  3 28  7  0 29.0800000  0  4G 3G13G11G 9
  22599332.608    22599334.321   -98356190.128 9 119704977.536 8
  20857695.809    20857700.204   -54247856.862 8  36559567.166 7
  23175405.783    23175410.140    -6014540.782 8  -6047661.269 7
  21781334.598    21781341.657   -33268982.831 9  30511983.380 7
 88  3 28  7  0 59.0800000  0  4G 3G13G11G 9
  22589412.883    22589416.658   -98408317.434 8 119664358.855 7
  20861900.434    20861904.541   -54225766.967 9  36576780.103 8
  23188405.963    23188407.816    -5946233.390 9  -5994434.707 7
  21800252.729    21800256.834   -33169574.595 9  30589444.316 6
 88  3 28  7  1 29.0800000  0  4G 3G13G11G 9
  22579534.353    22579538.767   -98460224.359 8 119623911.883 7
  20866146.706    20866150.552   -54203457.067 9  36594164.491 6
  23201402.703    23201406.945    -5877928.842 8  -5941210.403 8
  21819246.929    21819250.612   -33069761.648 8  30667220.637 8
 88  3 28  7  1 59.0800000  0  4G 3G13G11G 9
  22569698.410    22569703.536   -98511911.727 8 119583636.002 7
  20870433.139    20870434.921   -54180929.712 8  36611718.268 8
  23214398.232    23214404.773    -5809628.074 8  -5887989.037 8
  21838316.669    21838322.352   -32969546.509 9  30745310.329 6
 88  3 28  7  2 29.0800000  0  4G 3G13G11G 9
  22559906.057    22559909.420   -98563379.693 8 119543531.089 8
  20874761.222    20874764.305   -54158185.965 9  36629440.642 7
  23227395.267    23227401.244    -5741331.756 7  -5834771.171 8
  21857463.029    21857467.521   -32868932.597 8  30823710.753 7
 88  3 28  7  2 59.0800000  0  4G 3G13G11G 9
  22550152.701    22550157.017   -98614628.839 8 119503596.697 8
  20879130.072    20879132.581   -54135227.393 9  36647330.465 7
  23240389.861    23240396.652    -5673041.094 7  -5781557.654 8
  21876683.476    21876687.868   -32767923.002 8  30902419.505 7
 88  3 28  7  3 29.0800000  0  4G 3G13G11G 9
  22540441.007    22540446.248   -98665660.072 8 119463832.084 7
  20883539.544    20883542.957   -54112055.957 9  36665386.064 7
  23253385.013    23253390.770    -5604756.840 8  -5728349.143 8
  21895982.295    21895985.502   -32666520.864 8  30981434.132 7
 88  3 28  7  3 59.0800000  0  4G 3G13G11G 9
  22530770.902    22530775.990   -98716473.595 8 119424237.156 8
  20887988.379    20887992.865   -54088672.674 8  36683606.778 7
  23266378.398    23266382.879    -5536479.575 9  -5675146.082 8
  21915351.829    21915355.671   -32564729.674 8  31060751.898 7
 88  3 28  7  4 29.0800000  0  4G 3G13G11G 9
  22521144.111    22521150.469   -98767070.230 7 119384811.226 8
  20892478.069    20892483.098   -54065079.370 9  36701991.275 6
  23279370.543    23279375.129    -5468210.360 8  -5621949.294 8
  21934794.689    21934799.411   -32462552.449 8  31140370.493 8
 88  3 28  7  4 59.0800000  0  4G 3G13G11G 9
  22511557.743    22511560.593   -98817450.150 8 119345554.180 6
  20897006.269    20897013.269   -54041277.644 8  36720538.125 8
  23292358.978    23292364.277    -5399949.926 9  -5568759.342 8
  21954311.801    21954316.345   -32359992.496 9  31220287.318 7
 88  3 28  7  5 29.0800000  0  4G 3G13G11G 9
  22502012.106    22502016.580   -98867614.074 9 119306465.409 7
  20901575.689    20901580.461   -54017269.614 8  36739245.689 8
  23305344.761    23305350.405    -5331699.003 8  -5515576.814 7
  21973899.366    21973904.231   -32257052.514 8  31300500.237 7
 88  3 28  7  5 59.0800000  0  4G 3G13G11G 9
  22492506.033    22492510.920   -98917562.628 8 119267544.447 7
  20906181.585    20906187.364   -53993056.625 9  36758113.000 8
  23318333.466    23318337.278    -5263458.654 8  -5462402.539 9
  21993560.679    21993564.685   -32153736.067 9  31381006.542 8
 88  3 28  7  6 29.0800000  0  4G 3G13G11G 9
  22483042.266    22483046.744   -98967296.182 8 119228791.049 7
  20910828.844    20910832.772   -53968639.997 8  36777139.013 7
  23331316.460    23331320.902    -5195229.337 8  -5409236.838 8
  22013291.559    22013297.018   -32050046.364 8  31461803.676 8
 88  3 28  7  6 59.0800000  0  4G 3G13G11G 9
  22473619.270    22473623.540   -99016815.444 9 119190204.631 8
  20915515.850    20915518.037   -53944021.520 8  36796322.248 8
  23344296.377    23344301.777    -5127011.937 9  -5356080.418 9
  22033093.966    22033098.422   -31945986.572 8  31542889.196 7
 88  3 28  7  7 29.0800000  0  4G 3G13G11G 9
  22464237.299    22464240.326   -99066121.208 8 119151784.577 8
  20920238.143    20920241.372   -53919202.745 8  36815661.539 7
  23357276.424    23357281.347    -5058807.354 9  -5302934.015 9
  22052967.108    22052970.818   -31841560.137 8  31624260.421 8
 88  3 28  7  7 59.0800000  0  4G 3G13G11G 9
  22454893.266    22454898.107   -99115213.547 8 119113530.821 7
  20924998.911    20925000.765   -53894184.568 9  36835156.277 7
  23370254.167    23370256.861    -4990616.048 9  -5249797.920 9
  22072908.153    22072911.414   -31736769.845 8  31705915.157 8
 88  3 28  7  8 29.0800000  0  4G 3G13G12G 9
  22445592.495    22445596.635   -99164093.227 9 119075442.760 7
  20929796.748    20929799.231   -53868969.595 9  36854804.238 8
                  20686795.278  -106570310.141 9
  22092916.271    22092920.709   -31631619.042 8  31787850.802 7
 88  3 28  7  8 59.0800000  0  4G 3G13G12G 9
  22436331.787    22436336.658   -99212761.476 8 119037519.475 7
  20934631.425    20934635.803   -53843558.987 8  36874604.669 7
  20689882.245    20689886.849  -106554259.584 8 135286514.905 8
  22112994.534    22112999.718   -31526111.350 9  31870064.566 7
 88  3 28  7  9 29.0800000  0  4G 3G13G12G 9
  22427110.422    22427114.662   -99261218.700 8 118999760.646 8
  20939504.140    20939508.633   -53817954.530 9  36894556.223 7
  20693058.519    20693064.403  -106537563.226 8 135299525.053 7
  22133138.993    22133144.284   -31420249.849 9  31952554.021 7
 88  3 28  7  9 59.0800000  0  4G 3G13G12G 9
  22417928.967    22417932.620   -99309465.410 8 118962165.791 7
  20944413.482    20944418.092   -53792157.517 9  36914657.847 8
  20696359.567    20696364.742  -106520221.341 8 135313038.210 8
  22153350.028    22153355.707   -31314037.824 7  32035316.602 8
 88  3 28  7 10 29.0800000  0  4G 3G13G12G 9
  22408788.006    22408794.525   -99357501.972 8 118924734.732 7
  20949358.199    20949363.021   -53766169.377 9  36934908.336 8
  20699783.409    20699786.434  -106502234.266 7 135327054.096 8
  22173629.431    22173633.986   -31207478.080 8  32118350.139 7
 88  3 28  7 10 59.0800000  0  4G 3G13G12G 9
  22399687.095    22399690.704   -99405328.792 8 118887467.066 7
  20954339.515    20954343.717   -53739991.626 9  36955306.538 7
  20703327.990    20703332.340  -106483602.815 9 135341572.111 8
  22193971.942    22193975.196   -31100574.240 8  32201651.796 7
 88  3 28  7 11 29.0800000  0  4G 3G13G12G 9
  22390625.648    22390630.341   -99452946.988 7 118850361.955 7
  20959357.382    20959360.374   -53713625.737 9  36975851.414 8
  20706995.552    20707000.077  -106464327.669 9 135356591.694 7
  22214379.904    22214383.103   -30993329.942 9  32285218.773 7
 88  3 28  7 11 59.0800000  0  4G 3G13G12G 9
  22381603.635    22381609.290   -99500357.292 8 118813418.764 8
  20964408.818    20964413.455   -53687073.356 9  36996541.573 8
  20710785.399    20710789.941  -106444409.160 8 135372112.596 8
  22234850.648    22234856.287   -30885748.413 8  32369048.493 8
 88  3 28  7 12 29.0800000  0  4G 3G13G12G 9
  22372621.678    22372626.953   -99547560.110 8 118776637.255 7
  20969499.231    20969502.488   -53660336.315 9  37017375.605 8
  20714698.844    20714703.435  -106423847.830 9 135388134.415 8
  22255387.086    22255389.980   -30777832.748 9  32453138.614 6
 88  3 28  7 12 59.0800000  0  4G 3G13G12G 9
  22363677.987    22363683.376   -99594555.891 9 118740017.115 7
  20974620.528    20974624.727   -53633415.911 7  37038352.585 7
  20718733.893    20718738.430  -106402644.067 8 135404656.810 8
  22275984.497    22275990.844   -30669586.404 8  32537486.367 8
 88  3 28  7 13 29.0800000  0  4G 3G13G12G 9
  22354774.581    22354779.452   -99641345.030 8 118703557.997 7
  20979777.616    20979783.056   -53606313.003 9  37059471.743 8
  20722890.548    20722895.705  -106380797.746 8 135421679.921 7
  22296648.193    22296649.729   -30561011.862 8  32622089.862 8
 88  3 28  7 13 59.0800000  0  4G 3G13G12G 9
  22345910.312    22345914.986   -99687928.478 8 118667259.160 7
  20984969.388    20984974.207   -53579029.879 9  37080731.366 7
  20727170.363    20727174.788  -106358309.622 8 135439203.118 7
  22317370.492    22317373.305   -30452113.165 9  32706945.979 7
 88  3 28  7 14 29.0800000  0  4G 3G13G12G 9
  22337084.701    22337090.003   -99734306.718 7 118631120.240 8
  20990196.087    20990200.090   -53551568.029 9  37102130.231 8
  20731571.083    20731576.359  -106335181.329 9 135457225.156 7
  22338152.474    22338157.907   -30342893.612 9  32792052.079 7
 88  3 28  7 14 59.0800000  0  4G 3G13G12G 9
  22328298.225    22328302.483   -99780480.449 9 118595140.688 8
  20995455.888    20995458.944   -53523928.493 9  37123667.608 8
  20736094.594    20736099.352  -106311413.038 9 135475745.882 8
  22358996.978    22359002.261   -30233356.383 8  32877405.735 7
 88  3 28  7 15 29.0800000  0  4G 3G13G12G 9
  22319550.722    22319555.354   -99826450.742 9 118559319.665 8
  21000748.138    21000751.762   -53496113.338 9  37145341.803 7
  20740739.543    20740742.437  -106287005.405 8 135494764.818 8
  22379901.830    22379906.577   -30123505.131 8  32963004.084 8
 88  3 28  7 15 59.0800000  0  4G 3G13G12G 9
  22310841.156    22310847.259   -99872217.886 8 118523656.961 9
  21006074.089    21006078.434   -53468123.704 9  37167151.974 8
  20745505.087    20745509.859  -106261959.513 9 135514281.089 7
  22400864.965    22400868.601   -30013342.899 8  33048844.737 8
 88  3 28  7 16 29.0800000  0  4G 3G13G12G 9
  22302171.904    22302175.509   -99917782.046 9 118488152.450 6
  21011433.633    21011438.156   -53439961.263 9  37189096.745 7
  20750394.241    20750397.024  -106236275.457 9 135534294.626 7
  22421886.427    22421890.652   -29902872.728 8  33134925.361 7
 88  3 28  7 16 59.0800000  0  4G 3G13G12G 9
  22293540.308    22293542.235   -99963143.994 8 118452805.481 8
  21016825.161    21016829.214   -53411626.760 9  37211175.613 6
  20755402.186    20755407.604  -106209954.313 9 135554804.602 7
  22442966.557    22442971.181   -29792098.129 8  33221243.189 7
 88  3 28  7 17 29.0800000  0  4G 3G13G12G 9
  22284944.218    22284950.734  -100008304.495 9 118417615.510 7
  21022250.439    21022253.953   -53383121.968 9  37233387.123 8
  20760530.707    20760536.207  -106182996.965 9 135575810.334 8
  22464101.767    22464107.053   -29681022.673 7  33307795.465 8
 88  3 28  7 17 59.0800000  0  4G 3G13G12G 9
  22276389.495    22276393.673  -100053264.435 9 118382581.844 7
  21027705.768    21027709.868   -53354448.792 9  37255729.813 8
  20765782.193    20765787.989  -106155404.108 9 135597311.242 7
  22485296.572    22485301.224   -29569649.508 9  33394579.722 7
 88  3 28  7 18 29.0800000  0  4G 3G13G12G 9
  22267871.116    22267875.994  -100098024.400 8 118347703.984 7
  21033194.830    21033197.341   -53325608.489 8  37278202.765 7
  20771153.772    20771158.562  -106127176.268 9 135619306.947 7
  22506545.813    22506551.943   -29457981.925 8  33481593.391 7
 88  3 28  7 18 59.0800000  0  4G 3G13G12G 9
  22259393.141    22259396.539  -100142584.449 8 118312981.900 7
  21038713.836    21038716.810   -53296601.763 8  37300805.381 7
  20776646.490    20776649.400  -106098313.991 9 135641797.024 8
  22527850.806    22527854.919   -29346022.818 9  33568834.250 8
 88  3 28  7 19 29.0800000  0  4G 3G13G12G 9
  22250950.351    22250953.428  -100186946.128 9 118278414.393 8
  21044264.859    21044268.476   -53267430.755 9  37323536.039 7
  20782258.604    20782262.734  -106068819.226 8 135664779.955 8
  22549210.305    22549214.359   -29233776.089 8  33656299.191 7
 88  3 28  7 19 59.0800000  0  4G 3G13G12G 9
  22242545.530    22242551.375  -100231109.740 8 118244001.158 7
  21049848.270    21049850.805   -53238096.285 9  37346394.049 7
  20787991.314    20787996.555  -106038693.000 9 135688254.927 8
  22570624.632    22570628.863   -29121245.187 9  33743985.600 8
 88  3 28  7 20 29.0800000  0  4G 3G13G12G 9
  22234179.909    22234184.838  -100275076.175 9 118209741.624 7
  21055460.170    21055464.703   -53208600.781 8  37369377.565 7
  20793843.308    20793847.789  -106007936.111 9 135712221.329 8
  22592093.015    22592097.741   -29008433.578 9  33831890.728 7
 88  3 28  7 20 59.0800000  0  4G 3G13G12G 9
  22225851.484    22225855.658  -100318846.130 8 118175635.163 8
  21061102.655    21061108.767   -53178944.939 9  37392486.045 8
  20799818.446    20799820.951  -105976549.607 9 135736678.339 8
  22613613.838    22613615.756   -28895344.515 8  33920012.054 7
 88  3 28  7 21 29.0800000  0  4G 3G13G12G 9
  22217558.951    22217564.116  -100362420.353 8 118141681.278 8
  21066776.513    21066781.205   -53149130.216 9  37415718.251 7
  20805909.169    20805914.696  -105944534.119 8 135761625.448 9
  22635185.135    22635189.163   -28781981.499 8  34008346.860 8
 88  3 28  7 21 59.0800000  0  4G 3G13G12G 9
  22209304.677    22209308.341  -100405799.324 8 118107879.575 8
  21072481.074    21072484.142   -53119157.593 9  37439073.550 8
  20812122.229    20812125.035  -105911890.921 9 135787061.692 8
  22656808.640    22656812.685   -28668347.507 9  34096892.813 8
 88  3 28  7 22 29.0800000  0  4G 3G13G12G 9
  22201086.929    22201090.039  -100448983.655 9 118074229.538 7
  21078214.168    21078217.406   -53089029.525 9  37462549.940 8
  20818453.188    20818456.443  -105878621.499 9 135812985.914 7
  22678483.813    22678487.722   -28554446.371 8  34185646.943 7
 88  3 28  7 22 59.0800000  0  4G 3G13G12G 9
  22192904.971    22192908.808  -100491974.493 8 118040730.228 7
  21083977.231    21083979.210   -53058746.767 9  37486146.899 7
  20824904.097    20824906.141  -105844726.700 9 135839397.424 7
  22700209.218    22700213.232   -28440281.358 8  34274606.666 8
 88  3 28  7 23 29.0800000  0  4G 3G13G12G 9
  22184761.613    22184765.155  -100534771.924 7 118007381.616 7
  21089768.764    21089772.093   -53028310.933 9  37509863.148 8
  20831470.518    20831475.756  -105810207.783 8 135866295.272 7
  22721982.419    22721988.029   -28325855.672 8  34363769.506 8
 88  3 28  7 23 59.0800000  0  4G 3G13G12G 9
  22176654.200    22176658.420  -100577377.156 8 117974182.800 7
  21095588.452    21095593.407   -52997723.423 9  37533697.562 7
  20838157.721    20838162.605  -105775066.064 9 135893678.425 7
  22743807.809    22743812.002   -28211172.822 8  34453132.732 8
 88  3 28  7 24 29.0800000  0  4G 3G13G12G 9
  22168582.033    22168586.998  -100619790.378 8 117941133.619 7
  21101439.514    21101440.860   -52966985.176 9  37557649.454 8
  20844964.265    20844968.642  -105739302.127 8 135921546.400 7
  22765678.710    22765683.484   -28096235.886 9  34542693.984 8
 88  3 28  7 24 59.0800000  0  4G 3G13G12G 9
  22160548.724    22160552.734  -100662012.775 8 117908233.100 8
  21107316.850    21107320.485   -52936097.816 9  37581717.503 7
  20851887.115    20851891.021  -105702918.027 8 135949897.649 8
  22787597.967    22787601.756   -27981048.670 8  34632450.242 8
 88  3 28  7 25 29.0800000  0  4G 3G13G12G 9
  22152547.981    22152553.130  -100704044.841 9 117875480.914 7
  21113221.000    21113225.345   -52905062.527 9  37605900.836 8
  20858929.077    20858933.431  -105665914.897 9 135978731.229 8
  22809563.369    22809569.045   -27865614.572 8  34722398.841 7
 88  3 28  7 25 59.0800000  0  4G 3G13G12G 9
  22144586.595    22144592.012  -100745887.161 9 117842876.579 8
  21119154.208    21119158.519   -52873880.765 9  37630198.305 8
  20866087.581    20866091.257  -105628294.058 9 136008046.141 7
  22831576.494    22831580.847   -27749936.746 8  34812537.385 7
 88  3 28  7 26 29.0800000  0  4G 3G13G12G 9
  22136660.789    22136664.776  -100787540.629 8 117810419.398 8
  21125116.056    21125121.267   -52842553.695 9  37654609.033 9
  20873363.840    20873369.769  -105590056.501 8 136037841.646 8
  22853635.963    22853640.638   -27634018.749 9  34902863.100 7
 88  3 28  7 26 59.0800000  0  4G 3G13G12G 9
  22128770.675    22128774.257  -100829006.161 8 117778108.680 8
  21131106.315    21131110.823   -52811083.079 9  37679131.579 7
  20880758.667    20880762.843  -105551203.832 8 136068116.426 7
  22875740.698    22875743.487   -27517863.815 8  34993373.436 7
 88  3 28  7 27 29.0800000  0  4G 3G13G12G 9
  22120914.510    22120918.423  -100870284.288 8 117745943.911 7
  21137122.503    21137125.692   -52779469.894 8  37703765.205 8
  20888267.118    20888272.606  -105511737.522 9 136098869.380 7
  22897886.062    22897891.472   -27401475.177 9  35084065.848 7
 88  3 28  7 27 59.0800000  0  4G 3G13G12G 9
  22113094.898    22113101.332  -100911375.573 7 117713924.775 7
  21143164.789    21143168.251   -52747715.444 9  37728508.923 8
  20895894.660    20895898.895  -105471659.073 8 136130099.317 7
  22920079.313    22920082.008   -27284856.966 8  35174937.162 7
 88  3 28  7 28 29.0800000  0  4G 3G13G12G 9
  22105310.413    22105317.248  -100952280.514 9 117682050.824 7
  21149235.180    21149236.922   -52715820.822 9  37753361.912 8
  20903637.227    20903642.869  -105430969.597 9 136161805.374 8
  22942312.626    22942316.617   -27168011.955 8  35265985.221 8
 88  3 28  7 28 59.0800000  0  4G 3G13G12G 9
  22097563.404    22097567.321  -100993000.095 8 117650321.336 8
  21155328.474    21155333.389   -52683787.708 9  37778322.801 7
  20911495.605    20911501.126  -105389670.707 9 136193986.312 7
  22964591.532    22964594.936   -27050943.731 8  35357207.191 7
 88  3 28  7 29 29.0800000  0  4G 3G13G12G 9
  22089848.694    22089852.705  -101033534.992 8 117618735.688 7
  21161449.646    21161453.920   -52651616.960 8  37803390.935 8
  20919470.294    20919476.286  -105347764.198 8 136226640.708 7
  22986909.570    22986914.997   -26933655.672 9  35448600.483 7
 88  3 28  7 29 59.0800000  0  4G 3G13G12G 9
  22082171.258    22082175.469  -101073885.574 9 117587293.695 8
  21167598.116    21167602.799   -52619309.853 9  37828565.263 7
  20927560.080    20927566.819  -105305251.274 7 136259767.624 8
  23009269.425    23009275.532   -26816150.763 8  35540162.700 8
 88  3 28  7 30 29.0800000  0  4G 3G13G12G 9
  22074527.378    22074528.622  -101114053.118 8 117555994.387 8
  21173770.990    21173776.647   -52586868.111 8  37853844.533 8
  20935765.480    20935770.967  -105262133.518 9 136293365.859 8
  23031671.028    23031675.268   -26698432.981 8  35631890.815 7
 88  3 28  7 30 59.0800000  0  4G 3G13G12G 9
  22066916.242    22066922.004  -101154038.314 8 117524837.119 7
  21179971.451    21179975.685   -52554292.923 9  37879227.772 8
  20944085.633    20944090.589  -105218412.454 8 136327434.212 7
  23054112.684    23054116.385   -26580505.367 8  35723782.465 7
 88  3 28  7 31 29.0800000  0  4G 3G13G12G 9
  22059342.576    22059347.496  -101193841.454 9 117493821.697 7
  21186197.465    21186200.155   -52521585.411 9  37904714.187 7
  20952519.918    20952525.713  -105174089.828 8 136361971.298 8
  23076592.952    23076596.643   -26462371.565 8  35815834.737 8
 88  3 28  7 31 59.0800000  0  4G 3G13G12G 9
  22051803.801    22051807.100  -101233463.517 8 117462947.400 8
  21192445.779    21192448.885   -52488746.530 9  37930302.979 8
  20961068.847    20961074.235  -105129167.557 9 136396975.638 7
  23099111.516    23099117.048   -26344034.942 8  35908045.075 7
 88  3 28  7 32 29.0800000  0  4G 3G13G12G 9
  22044297.724    22044301.755  -101272905.139 8 117432213.700 7
  21198716.983    21198720.712   -52455777.612 9  37955993.049 7
  20969731.368    20969735.578  -105083647.190 9 136432446.043 8
  23121668.095    23121672.553   -26225498.867 8  36000410.808 8
 88  3 28  7 32 59.0800000  0  4G 3G13G12G 9
  22036826.626    22036831.442  -101312167.101 8 117401619.987 8
  21205015.031    21205017.888   -52422679.890 8  37981783.479 7
  20978506.453    20978511.230  -105037530.204 9 136468381.319 8
  23144262.460    23144267.039   -26106766.574 9  36092929.470 7
 88  3 28  7 33 29.0800000  0  4G 3G13G12G 9
  22029388.634    22029393.616  -101351250.129 9 117371165.659 7
  21211337.030    21211341.486   -52389454.688 8  38007673.254 7
  20987394.843    20987399.871  -104990818.080 8 136504780.337 8
  23166891.363    23166896.352   -25987841.539 8  36185598.308 8
 88  3 28  7 33 59.0800000  0  4G 3G13G12G 9
  22021987.165    22021989.437  -101390154.744 8 117340850.349 8
  21217683.939    21217689.410   -52356102.814 8  38033661.704 6
  20996398.058    20996402.181  -104943512.869 9 136541641.518 8
  23189559.601    23189563.826   -25868727.169 8  36278414.666 7
 88  3 28  7 34 29.0800000  0  4G 3G13G12G 9
  22014617.240    22014621.517  -101428881.920 9 117310673.386 8
  21224054.643    21224058.714   -52322626.029 9  38059747.515 7
  21005512.325    21005516.803  -104895616.801 8 136578963.112 7
  23212262.066    23212268.114   -25749427.304 8  36371375.596 8
 88  3 28  7 34 59.0800000  0  4G 3G13G12G 9
  22007280.813    22007285.450  -101467432.620 8 117280633.878 7
  21230448.856    21230452.992   -52289025.681 8  38085929.550 8
  21014738.857    21014743.202  -104847131.254 9 136616744.042 8
  23234999.295    23235002.118   -25629944.678 9  36464478.918 7
 88  3 28  7 35 29.0800000  0  4G 3G13G12G 9
  21999979.165    21999983.112  -101505806.787 9 117250731.980 8
  21236868.678    21236871.820   -52255301.995 8  38112207.741 9
  21024077.653    21024082.348  -104798057.759 8 136654983.105 8
  23257768.683    23257773.914   -25510282.682 8  36557722.025 7
 88  3 28  7 35 59.0800000  0  4G 3G13G12G 9
  21992709.723    21992714.602  -101544005.797 9 117220966.561 9
  21243308.672    21243312.217   -52221456.565 9  38138580.817 8
  21033526.286    21033532.303  -104748398.662 9 136693678.471 8
  23280573.641    23280578.017   -25390445.176 7  36651101.875 7
 88  3 28  7 36 29.0800000  0  4G 3G13G12G 9
  21985474.958    21985477.367  -101582030.374 9 117191337.023 7
  21249771.105    21249776.552   -52187490.425 8  38165047.936 8
  21043088.139    21043092.464  -104698155.840 8 136732828.693 7
  23303408.987    23303415.201   -25270435.350 8  36744616.007 7
 88  3 28  7 36 59.0800000  0  4G 3G13G12G 9
  21978272.301    21978275.270  -101619880.906 9 117161843.132 8
  21256255.443    21256263.066   -52153404.799 8  38191608.118 8
  21052759.314    21052762.612  -104647330.835 8 136772432.569 7
  23326280.900    23326282.986   -25150256.468 8  36838261.869 8
 88  3 28  7 37 29.0800000  0  4G 3G13G12G 9
  21971101.958    21971107.192  -101657558.332 8 117132484.107 8
  21262765.488    21262770.205   -52119201.568 8  38218259.997 6
  21062541.438    21062546.260  -104595925.876 9 136812488.349 8
  23349180.014    23349184.034   -25029912.339 8  36932036.499 7
 88  3 28  7 37 59.0800000  0  4G 3G13G12G 9
  21963964.944    21963969.314  -101695063.481 9 117103259.287 7
  21269296.500    21269300.354   -52084881.280 8  38245003.090 7
  21072432.292    21072437.926  -104543942.869 8 136852994.576 8
  23372112.261    23372116.664   -24909406.030 8  37025937.506 7
 88  3 28  7 38 29.0800000  0  4G 3G13G12G 9
  21956860.496    21956864.548  -101732396.796 8 117074168.442 7
  21275849.901    21275852.363   -52050444.877 9  38271836.650 7
  21082434.637    21082439.758  -104491383.885 9 136893949.581 8
  23395073.924    23395079.711   -24788740.752 9  37119962.373 7
 88  3 28  7 38 59.0800000  0  4G 3G13G12G 9
  21949787.562    21949792.114  -101769559.050 9 117045210.826 7
  21282426.130    21282429.389   -52015893.601 9  38298759.730 8
  21092545.986    21092551.232  -104438251.068 8 136935351.771 7
  23418065.303    23418070.332   -24667920.062 9  37214108.356 7
 88  3 28  7 39 29.0800000  0  4G 3G13G12G 9
  21942748.823    21942753.685  -101806551.196 9 117016385.785 8
  21289022.375    21289025.151   -51981228.601 8  38325771.433 8
  21102767.294    21102770.441  -104384546.277 9 136977199.641 8
  23441086.856    23441089.779   -24546947.612 9  37308372.626 8
 88  3 28  7 39 59.0800000  0  4G 3G13G12G 9
  21935742.480    21935746.068  -101843373.569 8 116987693.028 7
  21295638.158    21295643.725   -51946450.749 9  38352871.035 7
  21113093.533    21113098.743  -104330271.150 9 137019491.929 7
  23464134.453    23464138.884   -24425826.387 8  37402752.767 8
 88  3 28  7 40 29.0800000  0  4G 3G13G12G 9
  21928766.578    21928771.041  -101880027.091 8 116959131.824 7
  21302276.670    21302283.626   -51911560.804 9  38380057.963 8
  21123529.755    21123534.315  -104275427.841 9 137062226.962 7
  23487210.681    23487216.404   -24304559.588 9  37497246.354 8
 88  3 28  7 40 59.0800000  0  4G 3G13G12G 9
  21921823.550    21921828.271  -101916512.109 8 116930701.940 7
  21308938.213    21308943.995   -51876560.235 9  38407331.086 8
  21134074.854    21134080.329  -104220018.286 9 137105403.198 7
  23510315.024    23510318.917   -24183150.489 8  37591850.826 8
 88  3 28  7 41 29.0800000  0  4G 3G13G12G 9
  21914912.056    21914917.774  -101952829.650 8 116902402.585 8
  21315621.229    21315625.088   -51841449.700 9  38434689.964 7
  21144726.153    21144730.457  -104164045.327 9 137149018.465 9
  23533445.014    23533448.504   -24061602.892 8  37686563.214 7
 88  3 28  7 41 59.0800000  0  4G 3G13G12G 9
  21908033.248    21908037.574  -101988980.388 9 116874233.207 8
  21322322.825    21322326.089   -51806230.837 9  38462133.249 8
  21155484.650    21155488.608  -104107511.078 9 137193071.112 8
  23556599.142    23556604.444   -23939920.156 6  37781380.920 8
 88  3 28  7 42 29.0800000  0  4G 3G13G12G 9
  21901185.754    21901190.327  -102024964.962 8 116846193.253 8
  21329045.713    21329047.958   -51770904.443 9  38489660.328 7
  21166349.438    21166353.718  -104050417.047 9 137237559.935 8
  23579780.344    23579784.301   -23818105.563 8  37876301.344 8
 88  3 28  7 42 59.0800000  0  4G 3G13G12G 9
  21894370.679    21894374.350  -102060784.204 9 116818282.126 8
  21335788.352    21335789.624   -51735472.000 8  38517270.050 8
  21177319.378    21177321.997  -103992766.185 9 137282482.656 7
  23602985.286    23602989.719   -23696162.695 7  37971321.769 8
 88  3 28  7 43 29.0800000  0  4G 3G13G12G 9
  21887586.381    21887588.228  -102096438.913 9 116790499.197 7
  21342550.558    21342551.414   -51699933.501 9  38544962.398 7
  21188396.046    21188400.817  -103934560.074 9 137327838.036 7
  23626212.027    23626220.338   -23574094.659 7  38066439.669 8
 88  3 28  7 43 59.0800000  0  4G 3G13G12G 9
  21880832.085    21880835.751  -102131929.616 9 116762844.111 7
  21349332.690    21349336.845   -51664290.686 9  38572736.004 7
  21199577.734    21199580.298  -103875801.216 9 137373624.134 7
  23649465.023    23649470.940   -23451904.461 7  38161652.773 7
 88  3 28  7 44 29.0800000  0  4G 3G13G12G 9
  21874108.140    21874113.480  -102167257.171 8 116735316.087 7
  21356135.542    21356139.823   -51628544.938 9  38600589.832 7
  21210863.404    21210867.722  -103816492.216 9 137419838.918 7
  23672739.659    23672745.533   -23329596.066 7  38256957.977 7
 88  3 28  7 44 59.0800000  0  4G 3G13G12G 9
  21867417.697    21867421.441  -102202422.101 9 116707914.808 7
  21362958.059    21362960.841   -51592696.569 9  38628523.644 7
  21222254.288    21222259.673  -103756634.566 9 137466481.223 8
  23696036.598    23696040.955   -23207172.412 8  38352353.042 8
 88  3 28  7 45 29.0800000  0  4G 3G13G12G 9
  21860757.531    21860761.297  -102237425.487 9 116680639.427 7
  21369798.068    21369801.835   -51556746.633 9  38656536.580 7
  21233748.545    21233753.851  -103696231.606 8 137513548.431 7
  23719354.693    23719360.336   -23084637.080 9  38447835.127 7
 88  3 28  7 45 59.0800000  0  4G 3G13G12G 9
  21854126.397    21854131.282  -102272267.892 9 116653489.485 8
  21376656.872    21376660.645   -51520696.184 9  38684627.877 7
  21245345.854    21245349.857  -103635284.828 8 137561039.382 8
  23742694.933    23742697.678   -22961993.267 9  38543401.738 8
 88  3 28  7 46 29.0800000  0  4G 3G13G12G 9
  21847524.737    21847529.580  -102306949.729 8 116626464.673 7
  21383537.683    21383541.055   -51484545.735 9  38712797.058 8
  21257046.328    21257049.666  -103573796.394 8 137608952.421 7
  23766051.205    23766055.651   -22839244.235 8  38639050.317 8
 88  3 28  7 46 59.0800000  0  4G 3G13G12G 9
  21840956.163    21840961.140  -102341471.967 8 116599564.205 7
  21390435.117    21390437.651   -51448296.719 9  38741043.059 7
  21268850.405    21268854.404  -103511769.460 8 137657285.071 7
  23789427.930    23789434.427   -22716393.600 7  38734778.062 7
 88  3 28  7 47 29.0800000  0  4G 3G13G12G 9
  21834418.177    21834422.474  -102375835.203 9 116572787.679 7
  21397350.886    21397353.215   -51411950.465 9  38769364.833 8
  21280754.178    21280759.596  -103449205.889 9 137706035.893 8
  23812825.185    23812829.697   -22593444.592 7  38830582.433 7
 88  3 28  7 47 59.0800000  0  4G 3G13G12G 9
  21827908.126    21827915.268  -102410040.261 9 116546134.347 8
  21404285.926    21404289.872   -51375507.532 9  38797761.951 8
  21292762.352    21292768.120  -103386108.541 8 137755202.644 8
  23836239.495    23836244.465   -22470400.513 8  38926460.901 8
 88  3 28  7 48 29.0800000  0  4G 3G13G12G 9
  21821428.704    21821435.135  -102444087.738 8 116519603.853 8
  21411241.572    21411243.643   -51338968.902 9  38826233.623 8
  21304870.273    21304876.335  -103322480.072 8 137804783.304 7
  23859672.419    23859677.095   -22347264.759 8  39022410.820 8
 88  3 28  7 48 59.0800000  0  4G 3G13G12G 9
  21814980.123    21814985.654  -102477977.854 8 116493195.990 7
  21418210.318    21418215.059   -51302335.216 9  38854779.336 8
  21317079.434    21317083.871  -103258321.857 8 137854776.705 8
  23883119.862    23883125.571   -22224040.315 7  39118429.827 7
 88  3 28  7 49 29.0800000  0  4G 3G13G12G 9
  21808561.967    21808566.343  -102511712.110 8 116466909.563 7
  21425200.131    21425203.983   -51265607.292 9  38883398.497 8
  21329388.430    21329393.211  -103193636.862 8 137905180.586 7
  23906585.282    23906590.061   -22100730.749 8  39214515.181 7
 88  3 28  7 49 59.0800000  0  4G 3G13G12G 9
  21802171.153    21802175.985  -102545290.878 8 116440744.295 7
  21432207.058    21432211.332   -51228786.618 9  38912089.928 7
  21341797.091    21341802.652  -103128427.986 8 137955992.649 8
  23930065.156    23930071.306   -21977339.319 8  39310664.314 8
 88  3 28  7 50 29.0800000  0  4G 3G13G12G 9
  21795810.588    21795815.651  -102578714.948 8 116414699.550 7
  21439231.222    21439234.577   -51191873.728 8  38940853.247 7
  21354306.064    21354310.955  -103062697.676 8 138007211.059 7
  23953563.470    23953566.894   -21853869.147 8  39406874.792 7
 88  3 28  7 50 59.0800000  0  4G 3G13G12G 9
  21789479.218    21789485.323  -102611984.513 7 116388775.213 6
  21446270.014    21446275.264   -51154869.383 9  38969687.799 7
  21366912.456    21366917.276  -102996448.348 8 138058833.882 8
  23977071.518    23977075.164   -21730323.970 8  39503143.747 7
 88  3 28  7 51 29.0800000  0  4G 3G13G12G 9
  21783177.471    21783182.158  -102645100.641 8 116362970.429 7
  21453330.089    21453335.080   -51117774.364 9  38998592.975 8
  21379618.318    21379621.694  -102929682.489 9 138110859.208 7
  24000597.602    24000600.064   -21606706.645 8  39599468.898 7
 88  3 28  7 51 59.0800000  0  4G 3G13G12G 9
  21776905.217    21776910.026  -102678063.610 8 116337285.046 8
  21460407.677    21460410.964   -51080589.677 8  39027568.046 7
  21392421.682    21392425.237  -102862402.396 9 138163285.231 8
  24024133.154    24024136.179   -21483020.451 8  39695847.720 6
 88  3 28  7 52 29.0800000  0  4G 3G13G12G 9
  21770662.603    21770667.338  -102710874.745 8 116311717.909 6
  21467501.234    21467503.705   -51043316.266 9  39056612.299 8
  21405319.872    21405326.315  -102794611.257 9 138216109.474 9
  24047681.180    24047684.983   -21359269.176 8  39792277.286 7
 88  3 28  7 52 59.0800000  0  4G 3G13G12G 9
  21764446.769    21764450.594  -102743534.230 8 116286269.016 7
  21474610.562    21474614.455   -51005954.983 9  39085724.988 9
  21418317.400    21418320.975  -102726311.541 8 138269330.016 7
  24071242.451    24071247.663   -21235455.715 8  39888755.269 7
 88  3 28  7 53 29.0800000  0  4G 3G13G12G 9
  21758259.325    21758263.728  -102776043.005 8 116260937.508 7
  21481736.648    21481740.821   -50968506.432 9  39114905.659 8
  21431411.990    21431415.798  -102657505.474 9 138322945.125 8
  24094814.802    24094817.690   -21111583.379 8  39985279.172 7
 88  3 28  7 53 59.0800000  0  4G 3G13G12G 9
  21752103.342    21752106.894  -102808401.512 8 116235723.075 8
  21488879.519    21488884.132   -50930971.534 8  39144153.626 9
  21444600.929    21444604.741  -102588196.016 9 138376952.465 8
  24118396.120    24118401.628   -20987655.460 8  40081846.371 7
 88  3 28  7 54 29.0800000  0  4G 3G13G12G 9
  21745973.612    21745978.071  -102840610.340 8 116210625.314 7
  21496036.229    21496042.194   -50893350.652 8  39173468.580 8
  21457885.544    21457891.124  -102518385.314 8 138431350.425 8
  24141990.946    24141994.824   -20863674.905 6  40178454.578 8
 88  3 28  7 54 59.0800000  0  4G 3G13G12G 9
  21739871.765    21739877.904  -102872670.340 8 116185643.503 8
  21503210.572    21503216.518   -50855645.261 8  39202849.381 8
  21471264.089    21471268.597  -102448076.631 9 138486136.396 8
  24165593.329    24165596.730   -20739645.222 7  40275101.052 9
 88  3 28  7 55 29.0800000  0  4G 3G13G12G 9
  21733801.195    21733803.152  -102904582.409 9 116160776.957 8
  21510403.980    21510408.006   -50817855.636 9  39232295.852 8
  21484737.794    21484743.952  -102377272.628 9 138541308.327 7
  24189203.793    24189207.498   -20615569.707 8  40371783.249 8
 88  3 28  7 55 59.0800000  0  4G 3G13G12G 9
  21727755.200    21727760.297  -102936346.998 8 116136025.294 8
  21517610.541    21517614.287   -50779982.862 8  39261807.132 8
  21498303.983    21498310.159  -102305976.496 8 138596863.735 8
  24212820.909    24212826.937   -20491451.774 6  40468498.481 8
 88  3 28  7 56 29.0800000  0  4G 3G13G12G 9
  21721739.401    21721743.464  -102967964.810 9 116111388.038 8
  21524834.804    21524837.494   -50742027.796 9  39291382.535 8
  21511964.988    21511971.135  -102234190.700 7 138652800.710 8
  24236446.919    24236453.715   -20367294.631 6  40565244.236 8
 88  3 28  7 56 59.0800000  0  4G 3G13G12G 9
  21715750.922    21715754.885  -102999436.363 8 116086864.767 8
  21532071.670    21532074.670   -50703991.153 9  39321021.483 8
  21525719.116    21525723.915  -102161917.474 8 138709117.463 8
  24260080.441    24260086.853   -20243101.332 7  40662018.181 8
 88  3 28  7 57 29.0800000  0  4G 3G13G12G 9
  21709788.923    21709792.859  -103030762.282 8 116062454.940 7
  21539324.950    21539329.250   -50665873.450 8  39350723.600 8
  21539563.941    21539568.342  -102089159.852 9 138765811.682 8
  24283720.429    24283726.475   -20118875.131 7  40758817.767 8
 88  3 28  7 57 59.0800000  0  4G 3G13G12G 9
  21703856.506    21703861.008  -103061943.222 9 116038158.112 8
  21546594.504    21546597.897   -50627675.400 9  39380488.310 9
  21553502.111    21553506.939  -102015920.789 9 138822881.038 8
  24307366.008    24307370.308   -19994619.248 8  40855640.513 7
 88  3 28  7 58 29.0800000  0  4G 3G13G12G 9
  21697949.483    21697954.728  -103092979.982 8 116013973.631 8
  21553878.430    21553882.777   -50589397.650 8  39410315.111 8
  21567529.156    21567535.002  -101942203.100 8 138880323.348 9
  24331015.997    24331020.922   -19870337.065 8  40952483.767 8
 88  3 28  7 58 59.0800000  0  4G 3G13G12G 9
  21692071.340    21692074.600  -103123873.137 8 115989901.045 8
  21561176.832    21561181.749   -50551041.366 9  39440203.088 8
  21581647.621    21581652.991  -101868009.640 8 138938136.400 8
  24354669.738    24354674.723   -19746031.626 7  41049345.144 7
 88  3 28  7 59 29.0800000  0  4G 3G13G12G 9
  21686217.770    21686222.082  -103154623.495 8 115965939.735 7
  21568491.720    21568494.417   -50512607.117 8  39470151.864 7
  21595855.846    21595861.489  -101793343.094 8 138996318.077 7
  24378328.959    24378335.063   -19621706.189 9  41146222.064 8
 88  3 28  7 59 59.0800000  0  4G 3G13G12G 9
  21680394.331    21680399.029  -103185231.241 8 115942089.596 8
  21575819.688    21575823.376   -50474095.527 9  39500160.901 8
  21610154.635    21610159.887  -101718206.430 9 139054866.104 9
  24401991.682    24401995.136   -19497363.721 8  41243112.304 7
 88  3 28  8  0 29.0800000  0  4G 3G13G12G 9
  21674596.452    21674600.982  -103215697.364 8 115918349.776 8
  21583161.359    21583167.302   -50435507.141 8  39530229.771 8
  21624539.717    21624546.665  -101642602.858 8 139113777.954 8
  24425654.759    24425657.970   -19373007.771 8  41340013.039 8
 88  3 28  8  0 59.0800000  0  4G 3G13G12G 9
  21668826.911    21668830.387  -103246022.455 8 115894719.879 9
  21590518.458    21590523.709   -50396842.098 7  39560358.367 9
  21639016.717    21639022.564  -101566534.505 9 139173051.995 9
  24449321.136    24449324.975   -19248641.396 7  41436921.868 9
 88  3 28  8  1 29.0800000  0  4G 3G13G12G 9
  21663082.092    21663087.536  -103276207.053 8 115871199.440 8
  21597890.729    21597897.042   -50358102.266 8  39590545.238 8
  21653579.670    21653584.188  -101490004.895 8 139232685.428 9
  24472988.706    24472992.981   -19124267.964 8  41533836.209 8
 88  3 28  8  1 59.0800000  0  4G 3G13G12G 9
  21657364.677    21657369.239  -103306251.646 7 115847788.092 8
  21605277.109    21605282.610   -50319287.810 9  39620790.269 8
  21668230.269    21668234.152  -101413017.003 8 139292675.958 8
  24496657.858    24496662.253   -18999890.379 7  41630753.771 7
 88  3 28  8  2 29.0800000  0  4G 3G13G12G 9
  21651675.671    21651679.263  -103336156.374 9 115824485.751 7
  21612678.478    21612683.124   -50280398.624 8  39651093.527 8
  21682966.901    21682972.541  -101335572.824 8 139353022.056 8
  24520325.249    24520329.047   -18875511.544 7  41727672.326 8
 88  3 28  8  2 59.0800000  0  4G 3G13G12G 9
  21646010.129    21646015.748  -103365922.649 9 115801291.251 8
  21620092.560    21620097.077   -50241435.776 9  39681454.190 7
  21697790.380    21697796.055  -101257675.863 9 139413720.947 8
  24543992.388    24543998.904   -18751134.730 8  41824589.311 7
 88  3 28  8  3 29.0800000  0  4G 3G13G12G 9
  21640373.046    21640377.475  -103395550.652 9 115778204.496 8
  21627520.975    21627526.011   -50202400.288 9  39711871.447 8
  21712698.631    21712703.927  -101179329.225 8 139474770.268 7
  24567660.221    24567664.829   -18626763.442 7  41921501.990 7
 88  3 28  8  3 59.0800000  0  4G 3G13G12G 9
  21634761.135    21634764.671  -103425041.355 9 115755224.703 8
  21634964.648    21634968.098   -50163292.383 9  39742345.150 9
  21727692.286    21727698.564  -101100536.141 8 139536167.434 7
  24591325.382    24591330.378   -18502400.769 7  42018407.943 7
 88  3 28  8  4 29.0800000  0  4G 3G13G12G 9
  21629175.813    21629178.735  -103454394.995 9 115732351.729 8
  21642419.173    21642423.731   -50124112.760 9  39772874.724 8
  21742770.821    21742777.276  -101021299.449 8 139597910.265 8
  24614988.405    24614993.969   -18378050.020 6  42115304.623 6
 88  3 28  8  4 59.0800000  0  4G 3G13G12G 9
  21623613.726    21623618.859  -103483612.272 9 115709585.008 8
  21649886.538    21649891.963   -50084862.107 8  39803459.635 8
  21757933.470    21757938.337  -100941622.203 8 139659996.391 8
  24638649.764    24638652.839   -18253713.943 7  42212189.851 7
 88  3 28  8  5 29.0800000  0  4G 3G13G12G 9
  21618080.768    21618084.691  -103512696.557 9 115686921.906 8
  21657370.426    21657372.893   -50045542.744 8  39834098.086 7
  21773178.329    21773183.908  -100861509.562 8 139722421.801 9
  24662305.651    24662310.373   -18129398.288 7  42309059.169 6
 88  3 28  8  5 59.0800000  0  4G 3G13G12G 9
  21612570.596    21612575.071  -103541645.361 8 115664364.375 8
  21664866.468    21664869.162   -50006153.756 9  39864790.833 8
  21788504.758    21788511.059  -100780962.672 8 139785185.582 8
  24685956.311    24685962.917   -18005103.794 7  42405911.993 7
 88  3 28  8  6 29.0800000  0  4G 3G13G12G 9
  21607087.572    21607091.999  -103570459.400 9 115641911.872 8
  21672376.004    21672378.061   -49966695.360 9  39895537.633 9
  21803914.281    21803921.471  -100699984.368 8 139848285.514 9
  24709606.588    24709610.658   -17880833.591 7  42502745.886 8
 88  3 28  8  6 59.0800000  0  4G 3G13G12G 9
  21601630.852    21601634.194  -103599139.224 9 115619563.923 8
  21679893.690    21679898.663   -49927167.856 7  39926338.285 8
  21819405.537    21819411.969  -100618577.279 8 139911719.575 9
  24733248.815    24733254.301   -17756590.395 7  42599558.733 8
 88  3 28  8  7 29.0800000  0  4G 3G13G12G 9
  21596198.585    21596202.212  -103627685.351 9 115597320.174 8
  21687430.054    21687434.361   -49887571.839 9  39957192.277 8
  21834979.377    21834984.718  -100536744.847 8 139975485.064 8
  24756886.211    24756890.728   -17632377.600 9  42696347.925 8
